[[{"header":{"parameterUnit":"m.s-1","parameterCategory":1,"la1":30.6,"la2":28.766,"lo1":-90.7593,"lo2":-88.6598,"dy":0.0162,"dx":0.0183,"nx":116,"ny":114,"refTime":"2023-04-11T18:00:00:Z","depth":0,"parameterNumber":2,"parameterNumberName":"U-component_of_WINDS"},"data":[0.0,0.0,0.0,0.0,0.0,0.0,0.0,0.0,0.0,0.0,0.0,0.0,0.0,0.0,0.0,0.0,0.0,0.0,0.0,0.0,0.0,0.0,0.0,0.0,0.0,0.0,0.0,0.0,0.0,0.0,0.0,0.0,0.0,0.0,0.0,0.0,0.0,0.0,0.0,0.0,0.0,0.0,0.0,0.0,0.0,0.0,0.0,0.0,0.0,0.0,0.0,0.0,0.0,0.0,0.0,0.0,0.0,0.0,0.0,0.0,0.0,0.0,0.0,0.0,0.0,0.0,0.0,0.0,0.0,0.0,0.0,0.0,0.0,0.0,0.0,0.0,0.0,0.0,0.0,0.0,0.0,0.0,0.0,0.0,0.0,0.0,0.0,0.0,0.0,0.0,0.0,0.0,0.0,0.0,0.0,0.0,0.0,0.0,0.0,0.0,0.0,0.0,0.0,0.0,0.0,0.0,0.0,0.0,0.0,0.0,0.0,0.0,0.0,0.0,0.0,0.0,0.0,0.0,0.0,0.0,0.0,0.0,0.0,0.0,0.0,0.0,0.0,0.0,0.0,0.0,0.0,0.0,0.0,0.0,0.0,0.0,0.0,0.0,0.0,0.0,0.0,0.0,0.0,0.0,0.0,0.0,0.0,0.0,0.0,0.0,0.0,0.0,0.0,0.0,0.0,0.0,0.0,0.0,0.0,0.0,0.0,0.0,0.0,0.0,0.0,0.0,0.0,0.0,0.0,0.0,0.0,0.0,0.0,0.0,0.0,0.0,0.0,0.0,0.0,0.0,0.0,0.0,0.0,0.0,0.0,0.0,0.0,0.0,0.0,0.0,0.0,0.0,0.0,0.0,0.0,0.0,0.0,0.0,0.0,0.0,0.0,0.0,0.0,0.0,0.0,0.0,0.0,0.0,0.0,0.0,0.0,0.0,0.0,0.0,0.0,0.0,0.0,0.0,0.0,0.0,0.0,0.0,0.0,0.0,0.0,0.0,0.0,0.0,0.0,0.0,0.0,0.0,0.0,0.0,0.0,0.0,0.0,0.0,0.0,0.0,0.0,0.0,0.0,0.0,0.0,0.0,0.0,0.0,0.0,0.0,0.0,0.0,0.0,0.0,0.0,0.0,0.0,0.0,0.0,0.0,0.0,0.0,0.0,0.0,0.0,0.0,0.0,0.0,0.0,0.0,0.0,0.0,0.0,0.0,0.0,0.0,0.0,0.0,0.0,0.0,0.0,0.0,0.0,0.0,0.0,0.0,0.0,0.0,0.0,0.0,0.0,0.0,0.0,0.0,0.0,0.0,0.0,0.0,0.0,0.0,0.0,0.0,0.0,0.0,0.0,0.0,0.0,0.0,0.0,0.0,0.0,0.0,0.0,0.0,0.0,0.0,0.0,0.0,0.0,0.0,0.0,0.0,0.0,0.0,0.0,0.0,0.0,0.0,0.0,0.0,0.0,0.0,0.0,0.0,0.0,0.0,0.0,0.0,0.0,0.0,0.0,0.0,0.0,0.0,0.0,0.0,0.0,0.0,0.0,0.0,0.0,0.0,0.0,0.0,0.0,0.0,0.0,0.0,0.0,0.0,0.0,0.0,0.0,0.0,0.0,0.0,0.0,0.0,0.0,0.0,0.0,0.0,0.0,0.0,0.0,0.0,0.0,0.0,0.0,0.0,0.0,0.0,0.0,0.0,0.0,0.0,0.0,0.0,0.0,0.0,0.0,0.0,0.0,0.0,0.0,0.0,0.0,0.0,0.0,0.0,0.0,0.0,0.0,0.0,0.0,0.0,0.0,0.0,0.0,0.0,0.0,0.0,0.0,0.0,0.0,0.0,0.0,0.0,0.0,0.0,0.0,0.0,0.0,0.0,0.0,0.0,0.0,0.0,0.0,0.0,0.0,0.0,0.0,0.0,0.0,0.0,0.0,0.0,0.0,0.0,0.0,0.0,0.0,0.0,0.0,0.0,0.0,0.0,0.0,0.0,0.0,0.0,0.0,0.0,0.0,0.0,0.0,0.0,0.0,0.0,0.0,0.0,0.0,0.0,0.0,0.0,0.0,0.0,0.0,0.0,0.0,0.0,0.0,0.0,0.0,0.0,0.0,0.0,0.0,0.0,0.0,0.0,0.0,0.0,0.0,0.0,0.0,0.0,0.0,0.0,0.0,0.0,0.0,0.0,0.0,0.0,0.0,0.0,0.0,0.0,0.0,0.0,0.0,0.0,0.0,0.0,0.0,0.0,0.0,0.0,0.0,0.0,0.0,0.0,0.0,0.0,0.0,0.0,0.0,0.0,0.0,0.0,0.0,0.0,0.0,0.0,0.0,0.0,0.0,0.0,0.0,0.0,0.0,0.0,0.0,0.0,0.0,0.0,0.0,0.0,0.0,0.0,0.0,0.0,0.0,0.0,0.0,0.0,0.0,0.0,0.0,0.0,0.0,0.0,0.0,0.0,0.0,0.0,0.0,0.0,0.0,0.0,0.0,0.0,0.0,0.0,0.0,0.0,0.0,0.0,0.0,0.0,0.0,0.0,0.0,0.0,0.0,0.0,0.0,0.0,0.0,0.0,0.0,0.0,0.0,0.0,0.0,0.0,0.0,0.0,0.0,0.0,0.0,0.0,0.0,0.0,0.0,0.0,0.0,0.0,0.0,0.0,0.0,0.0,0.0,0.0,0.0,0.0,0.0,0.0,0.0,0.0,0.0,0.0,0.0,0.0,0.0,0.0,0.0,0.0,0.0,0.0,0.0,0.0,0.0,0.0,0.0,0.0,0.0,0.0,0.0,0.0,0.0,0.0,0.0,0.0,0.0,0.0,0.0,0.0,0.0,0.0,0.0,0.0,0.0,0.0,0.0,0.0,0.0,0.0,0.0,0.0,0.0,0.0,0.0,0.0,0.0,0.0,0.0,0.0,0.0,0.0,0.0,0.0,0.0,0.0,0.0,0.0,0.0,0.0,0.0,0.0,0.0,0.0,0.0,0.0,0.0,0.0,0.0,0.0,0.0,0.0,0.0,0.0,0.0,0.0,0.0,0.0,0.0,0.0,0.0,0.0,0.0,0.0,0.0,0.0,0.0,0.0,0.0,0.0,0.0,0.0,0.0,0.0,0.0,0.0,0.0,0.0,0.0,0.0,0.0,0.0,0.0,0.0,0.0,0.0,0.0,0.0,0.0,0.0,0.0,0.0,0.0,0.0,0.0,0.0,0.0,0.0,0.0,0.0,0.0,0.0,0.0,0.0,0.0,0.0,0.0,0.0,0.0,0.0,0.0,0.0,0.0,0.0,0.0,0.0,0.0,0.0,0.0,0.0,0.0,0.0,0.0,0.0,0.0,0.0,0.0,0.0,0.0,0.0,0.0,0.0,0.0,0.0,0.0,0.0,0.0,0.0,0.0,0.0,0.0,0.0,0.0,0.0,0.0,0.0,0.0,0.0,0.0,0.0,0.0,0.0,0.0,0.0,0.0,0.0,0.0,0.0,0.0,0.0,0.0,0.0,0.0,0.0,0.0,0.0,0.0,0.0,0.0,0.0,0.0,0.0,0.0,0.0,0.0,0.0,0.0,0.0,0.0,0.0,0.0,0.0,0.0,0.0,0.0,0.0,0.0,0.0,0.0,0.0,0.0,0.0,0.0,0.0,0.0,0.0,0.0,0.0,0.0,0.0,0.0,0.0,0.0,0.0,0.0,0.0,0.0,0.0,0.0,0.0,0.0,0.0,0.0,0.0,0.0,0.0,0.0,0.0,0.0,0.0,0.0,0.0,0.0,0.0,0.0,0.0,0.0,0.0,0.0,0.0,0.0,0.0,0.0,0.0,0.0,0.0,0.0,0.0,0.0,0.0,0.0,0.0,0.0,0.0,0.0,0.0,0.0,0.0,0.0,0.0,0.0,0.0,0.0,0.0,0.0,0.0,0.0,0.0,0.0,0.0,0.0,0.0,0.0,0.0,0.0,0.0,0.0,0.0,0.0,0.0,0.0,0.0,0.0,0.0,0.0,0.0,0.0,0.0,0.0,0.0,0.0,0.0,0.0,0.0,0.0,0.0,0.0,0.0,0.0,0.0,0.0,0.0,0.0,0.0,0.0,0.0,0.0,0.0,0.0,0.0,0.0,0.0,0.0,0.0,0.0,0.0,0.0,0.0,0.0,0.0,0.0,0.0,0.0,0.0,0.0,0.0,0.0,0.0,0.0,0.0,0.0,0.0,0.0,0.0,0.0,0.0,0.0,0.0,0.0,0.0,0.0,0.0,0.0,0.0,0.0,0.0,0.0,0.0,0.0,0.0,0.0,0.0,0.0,0.0,0.0,0.0,0.0,0.0,0.0,0.0,0.0,0.0,0.0,0.0,0.0,0.0,0.0,0.0,0.0,0.0,0.0,0.0,0.0,0.0,0.0,0.0,0.0,0.0,0.0,0.0,0.0,0.0,0.0,0.0,0.0,0.0,0.0,0.0,0.0,0.0,0.0,0.0,0.0,0.0,0.0,0.0,0.0,0.0,0.0,0.0,0.0,0.0,0.0,0.0,0.0,0.0,0.0,0.0,0.0,0.0,0.0,0.0,0.0,0.0,0.0,0.0,0.0,0.0,0.0,0.0,0.0,0.0,0.0,0.0,0.0,0.0,0.0,0.0,0.0,0.0,0.0,0.0,0.0,0.0,0.0,0.0,0.0,0.0,0.0,0.0,0.0,0.0,0.0,0.0,0.0,0.0,0.0,0.0,0.0,0.0,0.0,0.0,0.0,0.0,0.0,0.0,0.0,0.0,0.0,0.0,0.0,0.0,0.0,0.0,0.0,0.0,0.0,0.0,0.0,0.0,0.0,0.0,0.0,0.0,0.0,0.0,0.0,0.0,0.0,0.0,0.0,0.0,0.0,0.0,0.0,0.0,0.0,0.0,0.0,0.0,0.0,0.0,0.0,0.0,0.0,0.0,0.0,0.0,0.0,0.0,0.0,0.0,0.0,0.0,0.0,0.0,0.0,0.0,0.0,0.0,0.0,0.0,0.0,0.0,0.0,0.0,0.0,0.0,0.0,0.0,0.0,0.0,0.0,0.0,0.0,0.0,0.0,0.0,0.0,0.0,0.0,0.0,0.0,0.0,0.0,0.0,0.0,0.0,0.0,0.0,0.0,0.0,0.0,0.0,0.0,0.0,0.0,0.0,0.0,0.0,0.0,0.0,0.0,0.0,0.0,0.0,0.0,0.0,0.0,0.0,0.0,0.0,0.0,0.0,0.0,0.0,0.0,0.0,0.0,0.0,0.0,0.0,0.0,0.0,0.0,0.0,0.0,0.0,0.0,0.0,0.0,0.0,0.0,0.0,0.0,0.0,0.0,0.0,0.0,0.0,0.0,0.0,0.0,0.0,0.0,0.0,0.0,0.0,0.0,0.0,0.0,0.0,0.0,0.0,0.0,0.0,0.0,0.0,0.0,0.0,0.0,0.0,0.0,0.0,0.0,0.0,0.0,0.0,0.0,0.0,0.0,0.0,0.0,0.0,0.0,0.0,0.0,0.0,0.0,0.0,0.0,0.0,0.0,0.0,0.0,0.0,0.0,0.0,0.0,0.0,0.0,0.0,0.0,0.0,0.0,0.0,0.0,0.0,0.0,0.0,0.0,0.0,0.0,0.0,0.0,0.0,0.0,0.0,0.0,0.0,0.0,0.0,0.0,0.0,0.0,0.0,0.0,0.0,0.0,0.0,0.0,0.0,0.0,0.0,0.0,0.0,0.0,0.0,0.0,0.0,0.0,0.0,0.0,0.0,0.0,0.0,0.0,0.0,0.0,0.0,0.0,0.0,0.0,0.0,0.0,0.0,0.0,0.0,0.0,0.0,0.0,0.0,0.0,0.0,0.0,0.0,0.0,0.0,0.0,0.0,0.0,0.0,0.0,0.0,0.0,0.0,0.0,0.0,0.0,0.0,0.0,0.0,0.0,0.0,0.0,0.0,0.0,0.0,0.0,0.0,0.0,0.0,0.0,0.0,0.0,0.0,0.0,0.0,0.0,0.0,0.0,0.0,0.0,0.0,0.0,0.0,0.0,0.0,0.0,0.0,0.0,0.0,0.0,0.0,0.0,0.0,0.0,0.0,0.0,0.0,1.662,0.0,0.0,0.0,0.0,0.0,0.0,0.0,0.0,0.0,0.0,0.0,0.0,0.0,0.0,0.0,0.0,0.0,0.0,0.0,0.0,0.0,0.0,0.0,0.0,0.0,0.0,0.0,0.0,0.0,0.0,0.0,0.0,0.0,0.0,0.0,0.0,0.0,0.81,0.81,0.81,0.81,0.81,0.81,0.9461,1.1974,0.0,0.0,0.0,0.0,0.0,0.0,0.0,0.0,0.0,0.0,0.0,0.0,0.0,0.0,0.0,0.0,0.0,0.0,0.0,0.0,0.0,0.0,0.0,0.0,0.0,0.0,0.0,0.0,0.0,0.0,0.0,0.0,0.0,0.0,0.0,0.0,0.0,0.0,0.0,0.0,0.0,0.0,0.0,0.0,0.0,0.0,0.0,0.0,0.0,0.0,0.0,0.0,0.0,0.0,0.0,0.0,0.0,0.0,0.0,0.0,0.0,0.0,0.0,0.0,0.0,0.0,0.0,0.0,0.0,0.0,0.0,1.7292,0.0,0.0,0.0,0.0,0.0,0.0,0.0,0.0,0.0,0.0,0.0,0.0,0.0,0.0,0.0,0.0,0.0,0.0,0.0,0.0,0.0,0.0,0.0,0.7988,0.7988,0.7988,0.7789,0.8131,0.923,0.8047,0.7779,0.8833,0.6792,0.5658,0.5658,0.4556,0.3989,0.3989,0.3989,0.3989,0.3989,0.3989,0.6324,1.0531,1.1005,0.0,0.0,0.0,0.0,0.0,0.0,0.0,0.0,0.0,0.0,0.0,0.0,0.0,0.0,0.0,0.0,0.0,0.0,0.0,0.0,0.0,0.0,0.0,0.0,0.0,0.0,0.0,0.0,0.0,0.0,0.0,0.0,0.0,0.0,0.0,0.0,0.0,0.0,0.0,0.0,0.0,0.0,0.0,0.0,0.0,0.0,0.0,0.0,0.0,0.0,0.0,0.0,0.0,0.0,0.0,0.0,0.0,0.0,0.0,0.0,0.0,0.0,0.0,0.8912,0.8912,0.8912,0.9154,0.9939,1.1319,1.5171,1.6988,1.712,1.5902,0.0,0.0,0.0,0.0,0.0,0.0,0.0,0.0,0.0,0.0,0.0,0.0,0.0,0.0,0.0,0.0,0.0,0.0,0.0,0.0,0.0,0.7988,0.7988,0.7988,0.6936,0.6326,0.6526,0.5268,0.461,0.4781,0.446,0.426,0.426,0.4089,0.3989,0.3989,0.3989,0.3989,0.3989,0.3989,0.4364,0.5134,0.7465,0.8509,0.8657,0.0,0.0,0.0,0.0,0.0,0.0,0.0,0.0,0.0,0.0,0.0,0.0,0.0,0.0,0.0,0.0,0.0,0.0,0.0,0.0,0.0,0.0,0.0,0.0,0.0,0.0,0.0,0.0,0.0,0.0,0.0,0.0,0.0,0.0,0.0,0.0,0.0,0.0,0.0,0.0,0.0,0.6228,0.4944,0.0,0.0,0.0,0.0,0.0,0.0,0.0,0.0,0.0,0.0,0.0,0.0,0.0,0.3519,0.5055,0.6339,0.7626,0.8912,0.8912,0.8912,0.894,1.0241,1.0918,1.1183,1.3048,0.0,1.5663,1.5476,0.0,0.0,0.0,0.0,0.0,0.0,0.0,0.0,0.0,0.0,0.0,0.0,0.0,0.0,0.0,0.0,0.0,0.0,0.0,0.0,0.0,0.7988,0.7988,0.7988,0.7459,0.6805,0.6057,0.4743,0.3667,0.2914,0.2163,0.1762,0.1762,0.1762,0.1762,0.1762,0.1762,0.1762,0.1762,0.1762,0.1762,0.1836,0.376,0.5055,0.5827,0.6963,0.0,0.0,0.0,0.0,0.0,0.0,0.0,0.0,0.0,0.0,0.0,0.0,0.0,0.0,0.0,0.0,0.0,0.0,0.0,0.0,0.0,0.0,0.0,0.0,0.0,0.0,0.0,0.0,0.0,0.0,0.0,0.0,0.0,0.0,0.0,0.0,0.0,0.0,0.0,0.3463,0.2989,0.3185,0.1145,-0.0531,0.0,0.0,0.0,0.0,0.0,0.0,0.0,0.0,0.0,0.1203,0.1872,0.2933,0.4498,0.5977,0.7038,0.7676,0.8491,0.8912,0.8912,0.9561,0.9864,0.9891,1.0535,1.1647,1.2994,1.2994,1.348,1.4073,0.0,0.0,0.0,0.0,1.4529,1.6684,0.0,0.0,0.0,0.0,0.0,0.0,0.0,0.0,0.0,0.0,0.0,0.0,0.7484,0.7789,0.7988,0.7988,0.7385,0.6551,0.5552,0.3917,0.254,0.1536,0.053,0.0,0.0,0.0,0.0,0.0,0.0,0.0,0.0,0.0,0.0,0.005,0.1033,0.2238,0.3516,0.3864,0.4568,0.0,0.0,0.0,0.0,0.0,0.0,0.0,0.0,0.0,0.0,0.0,0.0,0.0,0.0,0.0,0.0,0.0,0.0,0.0,0.0,0.0,0.0,0.0,0.0,0.0,0.0,0.0,0.0,0.0,0.0,0.0,0.0,0.0,0.0,0.0,0.0,0.0,0.0,0.1259,0.084,0.1564,-0.0307,-0.179,0.0,0.0,0.0,0.0,0.0,0.0,-0.0028,-0.0364,0.0112,0.1594,0.2012,0.2738,0.3913,0.5389,0.6339,0.67,0.782,0.8546,0.8912,0.8912,0.8912,0.8912,0.8912,0.9533,1.057,1.0945,1.1755,1.2507,1.0323,1.121,1.3534,1.1755,1.3399,1.6393,0.0,0.0,0.0,0.0,0.0,0.0,0.0,0.0,0.0,0.0,0.0,0.6107,0.6107,0.7235,0.7988,0.7988,0.5672,0.4168,0.4114,0.1662,0.0177,0.0101,0.0025,0.0,0.0,0.0,0.0,0.0,0.0,0.0,0.0,0.0,0.0,0.0,0.0076,0.0857,0.2188,0.3466,0.4042,0.4089,0.0,0.0,0.0,0.0,0.0,0.0,0.0,0.0,0.0,0.0,0.0,0.0,0.0,0.0,0.0,0.0,0.0,0.0,0.0,0.0,0.0,0.0,0.0,0.0,0.0,0.0,0.0,0.0,0.0,0.0,0.0,0.0,0.0,0.0,0.0,0.0,0.0,0.0,0.0,0.0279,-0.0028,0.0,0.0,0.0,0.0,-0.0112,-0.1343,-0.1482,-0.0084,-0.1315,-0.1426,0.0056,0.1482,0.2235,0.2319,0.3857,0.5306,0.67,0.6783,0.7537,0.8912,0.8912,0.8912,0.8912,0.8912,0.894,0.9127,1.0515,1.1137,1.1183,1.1055,1.0268,0.9375,1.0644,1.2136,1.3696,0.0,0.0,0.0,0.0,0.0,0.0,0.0,0.0,0.4718,0.4718,0.5477,0.5677,0.4793,0.5902,0.6351,0.5497,0.4543,0.3642,0.2764,0.1813,0.0907,0.0025,0.0,0.0,0.0,0.0,0.0,0.0,0.0,0.0,0.0,0.0,0.0,0.0,0.0,0.0278,0.0757,0.1235,0.1912,0.2714,0.2714,0.324,0.0,0.0,0.0,0.0,0.0,0.0,0.0,0.0,0.0,0.0,0.0,0.0,0.0,0.0,0.0,0.0,0.0,0.0,0.0,0.0,0.0,0.0,0.0,0.0,0.0,0.0,0.0,0.0,0.0,0.0,0.0,0.0,0.0,0.0,0.0,0.0,0.0,0.0056,-0.0839,0.0,-0.2152,-0.1733,-0.1426,-0.1426,-0.1036,-0.056,-0.0028,-0.0504,-0.0532,-0.0028,0.0504,0.0784,0.0784,0.3243,0.4777,0.5306,0.7204,0.838,0.8912,0.8912,0.8912,0.8912,0.8912,0.8912,0.894,0.9458,1.0241,1.1,1.0049,1.0515,1.1565,1.0186,1.1783,1.4583,0.0,0.0,0.0,0.0,0.0,0.0,0.0,0.0,0.3491,0.3942,0.4768,0.4997,0.4092,0.5197,0.5452,0.4117,0.3591,0.2939,0.2063,0.1586,0.0932,0.005,0.0,0.0,0.0,0.0,0.0,0.0,0.0,0.0,0.0,0.0,0.0,0.0,0.0,0.0,0.0,0.0,0.0504,0.1335,0.1335,0.1861,0.2636,0.0,0.0,0.0,0.0,0.0,0.0,0.0,0.0,0.0,0.0,0.0,0.0,0.0,0.0,0.0,0.0,0.0,0.0,0.0,0.0,0.0,0.0,0.0,0.0,0.0,0.0,0.0,0.0,0.0,0.0,0.0,0.0,0.0,0.0,0.0,-0.0196,-0.0672,-0.1175,-0.165,-0.2152,-0.1762,-0.1454,-0.1454,-0.056,0.0,0.0,0.0,0.0,0.0,0.0,0.0,0.0,0.1986,0.3494,0.4526,0.6478,0.7931,0.8912,0.8912,0.8912,0.8912,0.8912,0.8912,0.8912,0.8912,0.9478,1.0268,0.9292,1.0076,1.1647,1.0186,1.1783,1.469,0.0,0.0,0.0,0.0,0.0,0.0,0.0,0.2864,0.249,0.3817,0.3989,0.3989,0.3989,0.5147,0.5397,0.4067,0.2714,0.1937,0.1937,0.0732,0.0,0.0,0.0,0.0,0.0,0.0,0.0,0.0,0.0,0.0,0.0,0.0,0.0,0.0,0.0,0.0,0.0,0.0,0.0,0.0,0.0,0.0,0.0,0.0,0.0,0.0,0.0,0.0,0.0,0.0,0.0,0.0,0.0,0.0,0.0,0.0,0.0,0.0,0.0,0.0,0.0,0.0,0.0,0.0,0.0,0.0,0.0,0.0,0.0,0.0,0.0,0.0,0.0,0.0,0.0,0.0,0.2208,0.0924,-0.0532,-0.1956,-0.0868,-0.056,-0.1984,-0.084,0.0,0.0,0.0,0.0,0.0,0.0,0.0,0.0,0.0,0.0028,0.0056,0.0112,0.1623,0.4582,0.4609,0.6144,0.8912,0.8912,0.8912,0.8912,0.8912,0.8912,0.8912,0.8912,0.8912,0.8912,0.8912,0.894,0.9127,1.0515,1.2,1.3696,0.0,0.0,0.0,0.0,0.0,0.0,0.4067,0.2864,0.249,0.3817,0.3989,0.3989,0.3989,0.4318,0.4017,0.2663,0.1335,0.0555,0.0555,0.0202,0.0,0.0,0.0,0.0,0.0,0.0,0.0,0.0,0.0,0.0,0.0,0.0,0.0,0.0,0.0,0.0,0.0,0.0,0.0,0.0,0.0,0.0,0.0,0.0,0.0,0.0,0.0,0.0,0.0,0.0,0.0,0.0,0.0,0.0,0.0,0.0,0.0,0.0,0.0,0.0,0.0,0.0,0.0,0.0,0.0,0.0,0.0,0.0,0.0,0.0,0.0,0.0,0.0,0.0,0.3857,0.3463,0.2347,0.0924,-0.014,-0.056,-0.0252,-0.0168,-0.056,-0.0224,0.0,0.0,0.0,0.0,0.0,0.0,0.0,0.0,0.0,0.0504,0.1594,0.2712,0.4219,0.6116,0.7177,0.8125,0.8912,0.8912,0.8912,0.8912,0.8912,0.8912,0.8912,0.8912,0.8912,0.8912,0.8912,0.9561,1.0406,0.9754,1.1109,1.3561,0.0,0.0,0.0,0.0,0.0,0.0,0.4092,0.3341,0.3316,0.4668,0.4847,0.4847,0.4847,0.4847,0.4293,0.2964,0.1611,0.0832,0.0832,0.0303,0.0,0.0,0.0,0.0,0.0,0.0,0.0,0.0,0.0,0.0,0.0,0.0,0.0,0.0,0.0,0.0,0.0,0.0,0.0,0.0,0.0,0.0,0.0,0.0,0.0,0.0,0.0,0.0,0.0,0.0,0.0,0.0,0.0,0.0,0.0,0.0,0.0,0.0,0.0,0.0,0.0,0.0,0.0,0.0,0.0,0.0,0.0,0.0,0.0,0.0,0.0,0.0,0.0,0.0,0.4498,0.4191,0.3296,0.1874,0.07,0.0084,0.0,0.0,0.0,0.0,0.0,0.0,0.0,0.0,0.0,0.0588,0.0924,0.0924,0.1539,0.2293,0.3157,0.4052,0.525,0.67,0.7565,0.8291,0.8912,0.8912,0.8912,0.0,0.8912,0.8912,0.8912,0.8912,0.8912,0.0,0.0,0.0,0.0,0.0,1.2588,1.5236,0.0,0.0,0.0,0.0,0.0,0.0,0.4696,0.4369,0.4771,0.6118,0.6143,0.6118,0.6268,0.6143,0.5585,0.4394,0.3027,0.2244,0.2238,0.1109,0.0454,0.0454,0.0454,0.0378,0.0227,0.0227,0.0151,0.0,0.0,0.0,0.0,0.0,0.0,0.0,0.0,0.0,0.0,0.0,0.0,0.0,0.0,0.0,0.0,0.0,0.0,0.0,0.0,0.0101,0.0228,0.0051,0.0,0.0,0.0,0.0,0.0,0.0,0.0,0.0,0.0,0.0,0.0,0.0,0.0,0.0,0.0,0.0,0.0,0.0,0.0,0.0,0.0,0.0,0.0,0.0,0.4665,0.4888,0.4554,0.3463,0.2152,0.0672,0.0504,0.0504,0.0504,0.0504,0.0504,0.0504,0.0336,0.0252,0.0252,0.0,0.0,0.0,0.0,0.4582,0.4749,0.4749,0.55,0.6955,0.6955,0.7626,0.8912,0.8912,0.8912,0.8912,0.8912,0.8912,0.8912,0.8912,0.8989,0.9154,0.932,0.9292,0.9506,1.2453,1.5156,1.7345,0.0,0.0,0.0,0.0,0.0,0.0,0.7657,0.6714,0.6505,0.7845,0.7084,0.6824,0.7897,0.7058,0.6297,0.6031,0.4634,0.3726,0.362,0.3366,0.3215,0.3215,0.3215,0.2714,0.1637,0.1611,0.1084,0.0,0.0,0.0,0.0,0.0,0.0,0.0,0.0,0.0,0.0,0.0,0.0,0.0,0.0,0.0,0.0,0.0,0.0,0.0,0.0,0.0774,0.1601,0.0394,0.161,0.3461,0.2511,0.0,0.0,0.0,0.0,0.0,0.0,0.0,0.0,0.0,0.0,0.0,0.0,0.0,0.0,0.0,0.0,0.0,0.0,0.0,0.0,0.285,0.5691,0.7232,0.4832,0.5278,0.5278,0.3801,0.3634,0.3634,0.3634,0.3634,0.3634,0.3634,0.2489,0.1762,0.1762,0.204,0.2208,0.2208,0.3687,0.5083,0.6255,0.6283,0.701,0.8463,0.0,0.0,0.8912,0.8912,0.8912,0.8912,0.8912,0.8912,0.8912,0.8912,0.9588,1.0781,1.1973,1.1728,1.1027,1.3938,1.5343,1.5823,0.0,0.0,0.0,0.0,0.0,0.0,0.8505,0.7928,0.7737,0.84,0.7921,0.7764,0.8426,0.7895,0.7501,0.7501,0.6176,0.5028,0.0,0.4258,0.4258,0.4258,0.4258,0.3882,0.3109,0.3109,0.2741,0.2012,0.2012,0.2012,0.2012,0.2012,0.2012,0.2012,0.2012,0.2048,0.2092,0.2092,0.2154,0.2251,0.2251,0.1786,0.1009,0.0283,0.0,0.0,0.0,0.0946,0.2075,0.1353,0.2619,0.4488,0.4461,0.4462,0.4501,0.0,0.0,0.0,0.0,0.0,0.0,0.0,0.0,0.0,0.0,0.0,0.0,0.0,0.0,0.2489,0.3212,0.0,0.5361,0.4578,0.6334,0.7288,0.581,0.6228,0.6144,0.4665,0.4498,0.4498,0.4498,0.4498,0.4498,0.4498,0.3801,0.3352,0.3352,0.4049,0.4439,0.4439,0.5917,0.7066,0.7792,0.7792,0.818,0.8912,0.8912,0.8912,0.8912,0.8912,0.9292,0.9994,0.9994,1.0433,1.1109,1.1109,1.1538,1.2344,1.3777,1.3911,1.3426,1.4877,1.5876,1.6499,0.0,0.0,0.0,0.0,0.0,0.0,0.0,0.8574,0.8574,0.8574,0.8574,0.8574,0.8574,0.8574,0.856,0.8526,0.7537,0.6463,0.0,0.5277,0.5277,0.5277,0.5277,0.5081,0.4645,0.4645,0.4457,0.4087,0.4087,0.4087,0.4087,0.4087,0.4087,0.4087,0.4087,0.4147,0.4257,0.4257,0.4344,0.451,0.451,0.3751,0.2506,0.1317,0.0686,0.048,0.0775,0.1818,0.3017,0.2735,0.3844,0.55,0.6426,0.6074,0.5532,0.6422,0.5667,0.0,0.0,0.0,0.0,0.0,0.0,0.0,0.0,0.0,0.3352,0.4303,0.4498,0.486,0.6061,0.6505,0.6616,0.6311,0.6755,0.7038,0.6727,0.6955,0.6672,0.55,0.5361,0.5361,0.5361,0.5361,0.5361,0.5361,0.5083,0.4916,0.4916,0.6061,0.67,0.67,0.8125,0.8912,0.8912,0.8912,0.9044,0.932,0.932,0.9478,0.9754,0.9754,1.0406,1.1538,1.1538,1.2191,1.3291,1.3291,1.3453,1.3831,1.4957,1.5583,1.5823,1.5823,1.6578,1.7608,0.0,0.0,0.0,0.0,0.0,0.0,0.0,0.0,0.8858,0.8858,0.8858,0.8858,0.8858,0.8858,0.8804,0.8696,0.8548,0.0,0.8065,0.8059,0.8059,0.8059,0.8059,0.7489,0.6264,0.6238,0.565,0.4455,0.4455,0.4455,0.4455,0.4455,0.4455,0.4455,0.4455,0.4462,0.4469,0.4469,0.4476,0.451,0.451,0.4393,0.4236,0.4067,0.3144,0.2132,0.3512,0.494,0.5985,0.4671,0.6088,0.8217,0.7072,0.7498,0.818,0.7038,0.0,0.4498,0.4498,0.5333,0.6478,0.762,0.7903,0.7593,0.0,0.0,0.5862,0.4721,0.4498,0.4554,0.4721,0.581,0.6283,0.4972,0.6955,0.8208,0.6894,0.782,0.8602,0.8436,0.8408,0.8408,0.8408,0.8408,0.8408,0.8408,0.7204,0.645,0.645,0.6616,0.67,0.67,0.8125,0.8912,0.8912,0.8912,0.9561,1.0836,1.0836,1.1538,1.2805,1.2805,1.2886,1.3048,1.3048,1.3156,1.3291,1.3291,1.4046,1.5171,1.5331,1.6195,1.7345,1.7345,1.745,1.7608,0.0,0.0,0.0,0.0,0.0,0.0,0.0,0.0,0.0,0.8912,0.8912,0.8912,0.8912,0.8912,0.8885,0.8825,0.8818,0.0,0.8723,0.8723,0.8723,0.8723,0.8723,0.8433,0.7808,0.7781,0.7473,0.6837,0.6837,0.6837,0.6837,0.6837,0.6837,0.6837,0.6837,0.6876,0.6941,0.6941,0.6985,0.7051,0.7051,0.6533,0.5886,0.6738,0.6133,0.4791,0.4577,0.5446,0.0,0.0,0.7177,0.8802,0.818,0.8408,0.8768,0.8152,0.7537,0.0,0.6005,0.6228,0.6644,0.0,0.6339,0.6394,0.6644,0.67,0.6755,0.701,0.7066,0.7066,0.7066,0.7565,0.7792,0.0,0.8097,0.8685,0.8069,0.8519,0.8912,0.8912,0.8912,0.8912,0.8912,0.8912,0.8912,0.8912,0.8325,0.7986,0.7986,0.7986,0.7986,0.7986,0.9416,1.0186,1.0186,1.1027,1.1783,1.2371,1.2371,1.2697,1.3291,1.3291,1.375,1.4556,1.5423,1.5796,1.5796,1.5796,1.6142,1.6684,1.6684,1.7067,1.7608,1.7608,1.7608,1.7608,0.0,0.0,0.0,0.0,0.0,0.0,0.0,0.0,0.0,0.0,1.0104,1.0104,1.0104,1.0104,1.0104,1.0104,1.0104,0.0,0.0,1.0104,1.0104,1.0104,1.0104,1.0069,0.9973,0.9973,0.9911,0.9814,0.9814,0.9814,0.9814,0.9814,0.9814,0.9814,0.9814,0.9644,0.936,0.936,0.9187,0.8912,0.8912,0.8269,0.7426,0.8491,0.8235,0.7177,0.6089,0.6394,0.0,0.0,0.8014,0.8912,0.8912,0.8912,0.8912,0.8912,0.8602,0.8069,0.6982,0.0,0.0,0.5889,0.5727,0.6005,0.7066,0.7315,0.762,0.8685,0.8912,0.8912,0.8912,0.8912,0.8912,0.8912,0.8912,0.8912,0.8912,0.8912,0.8912,0.8912,0.8912,0.8912,0.8912,0.8912,0.8912,0.8912,0.8912,0.9071,0.9478,0.9127,0.9265,1.0076,1.0754,1.1301,1.1701,1.2778,1.348,1.3884,1.3884,1.41,1.4475,1.4475,1.5037,1.6062,1.7147,1.7608,1.7622,1.7675,1.7716,1.7716,1.7796,1.7862,1.7862,1.7862,1.7782,1.7716,0.0,0.0,0.0,0.0,0.0,0.0,0.0,0.0,0.0,0.0,0.0,0.0,0.0,1.3156,1.3156,1.3156,1.3156,1.3156,1.3156,1.3156,1.3156,1.3156,1.3156,1.3156,1.3146,1.3146,1.3173,1.3136,1.3136,1.3136,1.3136,1.3136,1.3136,1.3136,1.3136,1.2362,1.1019,1.1019,1.0206,0.8912,0.8912,0.8885,0.883,0.8885,0.8885,0.883,0.8774,0.0,0.0,0.0,0.8857,0.8912,0.8912,0.8912,0.0,0.8912,0.7875,0.6755,0.67,0.0,0.7038,0.8436,0.8768,0.8768,0.883,0.883,0.8857,0.8885,0.8912,0.8912,0.8912,0.8912,0.8912,0.8912,0.8912,0.8912,0.8912,0.8912,0.8912,0.8912,0.8912,0.8912,0.0,0.8912,0.8912,0.8912,0.8912,0.9533,1.0973,0.9671,1.0213,1.3075,1.181,1.1783,1.321,1.3264,1.3992,1.5331,1.5331,1.6088,1.7477,1.7477,1.7503,1.7529,1.7582,1.7608,1.7609,1.7876,1.7982,1.8009,1.8357,1.8464,1.8464,1.8464,1.8277,1.8022,0.0,0.0,0.0,0.0,0.0,0.0,0.0,0.0,0.0,0.0,0.0,0.0,0.0,0.0,0.0,0.0,1.3291,1.3291,1.3291,1.3291,1.3291,1.3291,1.3291,1.3291,1.3291,1.3291,1.3291,1.3291,1.3291,1.3291,1.3291,1.3291,1.3291,1.3291,1.3291,1.3021,1.2507,1.151,1.0809,1.0268,0.9292,0.8912,0.8912,0.8912,0.8912,0.8912,0.0,0.0,0.0,0.8912,0.8912,0.8912,0.8912,0.0,0.0,0.8912,0.8546,0.8152,0.8152,0.8152,0.8269,0.8768,0.8912,0.8912,0.8912,0.8912,0.8912,0.8912,0.8912,0.8912,0.8912,0.8912,0.8912,0.8912,0.8912,0.8912,0.8912,0.8912,0.9265,1.0241,1.0351,0.0,0.0,0.0,0.0,1.0296,1.0351,1.1,1.248,1.2082,1.2272,1.3264,1.3723,1.418,1.469,1.5663,1.6393,1.6843,1.6843,1.7198,1.7862,1.7862,1.7996,1.821,1.821,1.821,1.8196,1.8303,1.8343,1.8426,1.9537,1.9948,2.0114,2.1292,2.169,2.1445,0.0,0.0,0.0,0.0,0.0,0.0,0.0,0.0,0.0,0.0,0.0,0.0,0.0,0.0,0.0,0.0,0.0,1.4824,0.0,0.0,1.4824,1.4824,1.4824,1.4824,1.4824,1.4824,1.4824,1.4824,1.4824,1.4824,1.4824,1.4824,1.4824,1.4824,1.4824,1.4529,1.3992,1.3048,1.2344,1.181,1.0836,1.046,1.0406,0.9891,0.9699,0.0,0.0,0.0,0.0,0.8912,0.8912,0.8912,0.8912,0.8912,0.8912,0.8912,0.8912,0.8912,0.8912,0.8912,0.8912,0.8912,0.8912,0.8912,0.8912,0.8912,0.8912,0.8912,0.8912,0.8912,0.8912,0.8912,0.8912,0.8912,0.8912,0.9071,0.9616,0.9699,1.0241,1.1701,1.1892,1.2263,0.0,0.0,0.0,1.181,1.1892,1.2507,1.3965,1.3561,1.3777,1.4797,1.5198,1.5663,1.6168,1.712,1.7635,1.7756,1.7862,1.8009,1.8183,1.8183,1.8303,1.849,1.849,1.8809,1.9236,1.882,1.9292,2.0301,2.0803,2.1328,2.1963,2.3119,2.3886,2.4125,0.0,0.0,0.0,0.0,0.0,0.0,0.0,0.0,0.0,0.0,0.0,0.0,0.0,0.0,0.0,0.0,0.0,0.0,0.0,0.0,0.0,1.7608,1.7608,1.7608,1.7608,1.7608,1.7608,1.7608,1.7608,1.7608,1.7608,1.7608,1.7608,1.7608,1.7608,1.6817,1.5503,1.5438,1.4636,1.3399,1.3318,1.3291,1.3156,1.1755,0.0,0.0,0.0,0.0,0.0,0.0,0.0,0.0,0.0,0.0,0.8912,0.8912,0.8912,0.8912,0.8912,0.8912,0.8912,0.8912,0.8912,0.8912,0.8989,0.8968,0.894,0.9099,0.9071,0.9044,0.0,0.0,0.9127,0.9127,0.9127,0.9616,1.1027,1.1219,1.1755,0.0,0.0,0.0,0.0,0.0,0.0,1.3555,0.0,1.4019,1.545,1.4261,1.4781,1.7529,1.6246,1.6205,1.7622,1.7662,1.7769,1.8022,1.8357,1.8504,1.8517,1.8517,1.8517,1.8558,1.8558,1.9388,2.0662,1.95,2.0775,2.3305,2.224,2.2702,2.3933,2.3989,2.4958,2.5991,0.0,0.0,0.0,0.0,0.0,0.0,0.0,0.0,0.0,0.0,0.0,0.0,0.0,0.0,0.0,0.0,0.0,0.0,0.0,0.0,0.0,0.0,0.0,0.0,0.0,0.0,0.0,0.0,0.0,1.7608,1.7608,1.7608,1.7608,1.7608,1.7608,1.7397,1.6962,1.5876,1.5198,1.477,0.0,1.3291,1.3264,0.0,0.0,0.0,0.0,0.0,0.0,0.0,0.0,0.0,0.0,0.8912,0.8912,0.0,0.0,0.8912,0.8912,0.8912,0.8912,0.8912,0.8912,0.9182,1.0296,0.9699,0.9533,1.1728,1.1292,1.0863,0.0,0.0,0.0,1.2191,1.2191,0.0,1.2697,1.2751,0.0,1.469,0.0,1.5316,1.6393,1.6499,0.0,0.0,1.5594,1.5503,1.6962,1.6684,1.6932,1.7862,1.754,1.7644,1.8263,1.8263,1.8303,1.8384,1.845,1.8597,1.8811,1.8811,1.8931,1.9174,1.9174,2.0018,2.1347,2.104,2.2015,2.3773,2.462,2.5178,2.5663,2.6744,2.7403,2.7672,0.0,0.0,0.0,0.0,0.0,0.0,0.0,0.0,0.0,0.0,0.0,0.0,0.0,0.0,0.0,0.0,0.0,0.0,0.0,0.0,0.0,0.0,0.0,0.0,0.0,0.0,0.0,0.0,0.0,0.0,0.0,1.7608,1.7608,1.7608,1.7608,1.7608,1.7556,1.6711,0.0,0.0,0.0,0.0,0.0,0.0,0.0,0.0,0.0,0.0,0.0,0.0,0.0,0.8912,0.8912,0.8912,0.8912,0.8912,0.0,0.8912,0.8912,0.8912,0.8912,0.8912,0.8912,0.9292,1.0754,1.0453,1.0515,1.2832,1.2642,0.0,1.3156,0.0,0.0,0.0,0.0,0.0,1.4126,1.4207,1.4743,0.0,1.6478,0.0,1.7702,1.7903,1.805,0.0,1.7188,1.6965,1.7942,1.7983,1.8063,1.8209,1.8209,1.8317,1.849,1.8624,1.8677,1.8677,1.8811,1.8958,1.9147,1.9805,2.0202,2.04,0.0,2.2181,2.3526,2.2842,2.3822,2.5817,2.6216,2.6756,2.745,2.8497,2.8875,2.8875,0.0,0.0,0.0,0.0,0.0,0.0,0.0,0.0,0.0,0.0,0.0,0.0,0.0,0.0,0.0,0.0,0.0,0.0,0.0,0.0,0.0,0.0,0.0,0.0,0.0,0.0,0.0,0.0,0.0,0.0,0.0,0.0,0.0,0.0,0.0,0.0,0.0,0.0,0.0,0.0,0.0,0.0,0.0,0.0,0.0,0.0,0.0,0.0,0.0,0.0,1.1456,0.9182,0.9182,0.9044,0.8912,0.8912,0.8912,0.8912,0.8912,0.9044,0.9182,0.9182,0.9348,0.9864,1.1347,1.1538,1.1864,1.3534,0.0,1.3642,1.3831,1.3857,1.3857,1.3857,0.0,1.4288,1.553,1.5713,1.623,1.7503,1.7889,1.8076,1.8076,1.8343,1.8504,1.8544,1.8276,1.8236,1.8477,1.849,1.8504,1.8544,1.8584,1.8611,1.8611,1.9049,1.9255,1.9255,1.9743,1.9982,2.004,2.1316,2.1913,2.2072,2.3328,0.0,2.618,2.4808,2.5933,2.8388,2.7456,2.7882,2.9043,2.9461,2.9598,2.9598,0.0,0.0,0.0,0.0,0.0,0.0,0.0,0.0,0.0,0.0,1.7608,1.7608,0.0,0.0,0.0,0.0,0.0,0.0,0.0,0.0,0.0,0.0,0.0,0.0,0.0,0.0,0.0,0.0,0.0,0.0,0.0,0.0,0.0,0.0,0.0,0.0,0.0,0.0,0.0,0.0,0.0,0.0,0.0,0.0,0.0,0.0,0.0,0.0,0.0,0.0,1.2163,1.0726,1.0726,0.9891,0.8912,0.8912,0.8912,0.8912,0.8912,0.9781,1.0726,1.0726,1.1647,1.2913,1.4341,1.375,0.0,0.0,1.5876,1.5423,1.6631,1.6856,1.6856,1.6856,0.0,0.0,0.0,0.0,1.7633,0.0,0.0,0.0,0.0,0.0,0.0,0.0,0.0,1.8663,1.8504,1.849,1.8597,1.881,1.9092,1.9241,1.9241,2.0516,2.1142,2.1142,2.2433,2.3039,2.3039,2.3291,2.3622,2.4012,2.4267,0.0,2.7066,2.6811,2.7762,2.9355,2.9164,2.9258,2.95,2.9579,2.9598,2.9598,0.0,0.0,0.0,0.0,0.0,0.0,0.0,1.7608,1.7608,1.7608,1.7608,1.7608,1.7608,1.7608,1.7608,0.0,0.0,0.0,0.0,0.0,0.0,0.0,0.0,0.0,0.0,0.0,0.0,0.0,0.0,0.0,0.0,0.0,0.0,0.0,0.0,0.0,0.0,0.0,0.0,0.0,0.0,0.0,0.0,0.0,0.0,0.0,0.0,0.0,0.0,0.0,1.4556,1.321,1.248,1.1755,1.1191,1.1191,1.1191,1.1191,1.1191,1.1701,1.2245,1.2245,1.2778,1.3669,1.5064,0.0,0.0,0.0,1.7041,1.6764,1.7477,1.7608,0.0,0.0,0.0,0.0,0.0,0.0,0.0,0.0,0.0,0.0,0.0,0.0,0.0,0.0,0.0,1.9092,1.8986,1.8973,1.904,1.9145,1.9321,1.9401,1.9401,2.0097,2.0946,2.1911,2.2627,2.3492,2.4497,2.5264,2.5752,2.6011,2.6806,0.0,2.8493,2.8493,2.8934,2.9618,2.9833,2.9931,2.995,3.0204,3.0282,3.0282,0.0,0.0,0.0,0.0,0.0,0.0,0.0,1.7608,1.7608,1.7608,1.7608,1.7608,1.7608,1.7608,1.7608,0.0,0.0,0.0,0.0,0.0,0.0,0.0,0.0,0.0,0.0,0.0,0.0,0.0,0.0,0.0,0.0,0.0,0.0,0.0,0.0,0.0,0.0,0.0,0.0,0.0,0.0,0.0,0.0,0.0,0.0,0.0,0.0,0.0,0.0,0.0,1.6817,1.5689,1.4556,1.3804,1.3291,1.3291,1.3291,1.3291,1.3291,1.3507,1.375,1.375,1.3992,1.4502,1.5636,1.5876,0.0,0.0,1.7608,1.7608,1.7608,0.0,1.7635,0.0,1.7849,0.0,0.0,0.0,0.0,0.0,0.0,0.0,0.0,0.0,0.0,0.0,0.0,0.0,1.9401,1.9455,1.9495,1.9495,1.9885,2.0101,2.0101,2.0742,2.1829,2.3286,2.3633,2.4585,2.6082,2.7264,2.7832,2.7981,2.9209,0.0,0.0,2.9872,2.9872,2.9911,3.0215,3.0351,3.0391,3.0762,3.0898,3.0898,0.0,0.0,0.0,0.0,0.0,0.0,0.0,1.7608,1.7608,1.7608,1.7608,1.7608,1.7608,1.7608,1.7608,0.0,0.0,0.0,0.0,0.0,0.0,0.0,0.0,0.0,0.0,0.0,0.0,0.0,0.0,0.0,0.0,0.0,0.0,0.0,0.0,0.0,0.0,0.0,0.0,0.0,0.0,0.0,0.0,0.0,0.0,0.0,0.0,0.0,0.0,0.0,0.0,1.7397,1.7252,1.5423,1.3291,1.3291,0.0,0.0,1.3291,1.4234,1.5198,1.5198,1.6195,1.7226,1.7358,0.0,0.0,1.7582,1.7608,1.7608,1.7608,1.7608,0.0,0.0,0.0,1.8116,0.0,0.0,0.0,0.0,0.0,0.0,0.0,0.0,0.0,0.0,0.0,0.0,1.9415,1.9613,1.976,1.976,2.1477,2.2394,2.2394,2.516,2.6661,2.6868,2.8249,2.9008,2.9187,2.9327,2.9597,2.9937,3.008,0.0,0.0,3.0762,3.0762,3.0781,3.082,3.082,3.084,3.0879,3.0898,3.0898,0.0,0.0,0.0,0.0,0.0,0.0,1.7608,1.7608,1.7608,1.7608,1.7608,1.7608,1.7608,1.7608,1.7608,1.7608,0.0,0.0,0.0,0.0,0.0,0.0,0.0,0.0,0.0,0.0,0.0,0.0,0.0,0.0,0.0,0.0,0.0,0.0,0.0,0.0,0.0,0.0,0.0,0.0,0.0,0.0,0.0,0.0,0.0,0.0,0.0,0.0,0.0,0.0,0.0,0.0,1.7608,1.6803,0.0,0.0,1.5876,1.5876,1.5876,1.6313,1.6711,1.6711,1.7173,1.7608,1.7608,0.0,1.7608,1.7608,1.7608,1.7608,1.7608,1.7729,1.7876,0.0,0.0,0.0,1.8703,0.0,0.0,0.0,0.0,0.0,0.0,0.0,0.0,0.0,0.0,0.0,2.1347,2.1492,2.1979,2.2951,2.372,2.4151,2.4151,2.5377,2.6568,2.7712,2.8335,2.925,3.04,3.04,3.0478,3.0605,3.0605,0.0,0.0,3.0898,3.0898,3.0898,3.0898,3.0898,3.0898,3.0898,3.0898,3.0898,0.0,0.0,0.0,0.0,0.0,1.7608,1.7608,1.7608,1.7608,1.7608,1.7608,1.7608,1.7608,1.7608,1.7608,1.7608,1.7608,0.0,0.0,0.0,0.0,0.0,0.0,0.0,0.0,0.0,0.0,1.7608,1.7608,1.7608,0.0,0.0,0.0,0.0,0.0,0.0,0.0,0.0,0.0,0.0,0.0,0.0,0.0,0.0,0.0,0.0,0.0,0.0,0.0,0.0,0.0,0.0,0.0,0.0,0.0,0.0,1.7608,1.7608,1.7608,1.7608,1.7608,1.7608,1.7608,1.7608,0.0,1.7608,1.7609,1.7702,1.7716,1.7742,1.7862,1.8036,1.8183,1.8235,0.0,1.893,1.9038,1.9267,0.0,0.0,0.0,0.0,0.0,0.0,0.0,0.0,0.0,0.0,2.4293,2.4382,2.466,2.5206,2.5775,2.6077,2.6077,2.6591,2.749,2.8867,2.8867,2.956,3.0898,3.0898,3.0898,3.0898,3.0898,0.0,0.0,3.0898,3.0898,3.0898,3.0898,3.0898,3.0898,3.1035,3.1074,3.1094,0.0,0.0,0.0,0.0,0.0,0.0,1.7608,1.7608,1.7608,1.7608,1.7608,1.7608,1.7608,1.7608,1.7608,1.7608,1.7608,0.0,0.0,0.0,0.0,0.0,0.0,0.0,0.0,0.0,0.0,1.7608,1.7608,1.7608,1.7608,1.7608,1.7608,0.0,0.0,0.0,0.0,0.0,0.0,0.0,0.0,0.0,1.7608,0.0,0.0,0.0,0.0,0.0,0.0,0.0,0.0,0.0,0.0,1.7608,0.0,0.0,1.7608,1.7608,1.7608,1.7608,1.7608,1.7608,1.7608,1.7608,0.0,1.7608,1.7662,1.7956,1.7995,1.8103,1.8424,1.8477,1.8584,1.8836,1.889,0.0,1.9348,1.9388,0.0,0.0,0.0,0.0,0.0,0.0,0.0,0.0,0.0,0.0,2.8241,2.8349,2.7468,2.5559,2.7344,2.8379,2.8379,3.0001,3.085,3.0879,3.0879,3.0879,3.0898,3.0898,3.0898,0.0,0.0,0.0,0.0,3.0898,3.0898,3.0898,3.0898,3.0898,3.0937,3.1367,3.1474,3.1562,0.0,0.0,0.0,0.0,0.0,0.0,0.0,1.7608,1.7608,1.7608,1.7608,1.7608,1.7608,1.7608,1.7608,1.7608,1.7608,0.0,0.0,0.0,0.0,0.0,0.0,0.0,0.0,0.0,1.7608,1.7608,1.7608,1.7608,1.7608,1.7608,1.7608,1.7608,1.7608,0.0,0.0,0.0,0.0,0.0,0.0,1.7876,1.7889,0.0,0.0,0.0,0.0,0.0,0.0,0.0,0.0,0.0,0.0,0.0,0.0,1.8237,1.7903,1.7608,1.7608,1.7729,1.7876,1.7876,1.805,1.8237,1.8237,1.8237,1.8237,1.833,1.8343,1.8384,1.8477,1.8651,1.8783,1.8876,1.9092,1.9332,0.0,0.0,0.0,0.0,0.0,0.0,0.0,0.0,0.0,0.0,0.0,0.0,2.8259,2.8397,2.8639,2.9149,2.9798,3.0109,3.0109,3.0645,3.0898,3.0898,3.0898,3.0898,3.0898,3.0898,3.0898,0.0,0.0,0.0,0.0,3.167,3.1788,3.1788,3.1788,3.1788,3.1807,3.1914,3.1983,3.2022,0.0,0.0,0.0,0.0,0.0,0.0,0.0,1.7608,1.7608,1.7608,1.7608,1.7608,1.7608,1.7608,1.7608,1.7608,1.7608,0.0,0.0,0.0,0.0,0.0,0.0,0.0,0.0,1.7608,1.7608,1.7608,1.7608,1.7608,1.7608,1.7608,1.7608,1.7608,1.7608,0.0,0.0,0.0,0.0,0.0,1.8103,1.8183,1.8209,0.0,0.0,0.0,0.0,0.0,0.0,0.0,0.0,0.0,0.0,0.0,0.0,0.0,1.8223,1.7956,0.0,1.8063,1.8183,1.8183,1.8357,1.849,1.849,1.849,1.8517,1.8637,1.8651,1.8691,1.8826,1.8971,1.9092,1.9092,1.9345,1.9629,0.0,0.0,0.0,0.0,0.0,0.0,0.0,0.0,0.0,0.0,0.0,0.0,2.9246,2.9335,2.9871,3.1084,3.0976,3.0898,3.0898,3.0898,3.0976,3.1133,3.1133,3.1211,3.1397,3.1397,3.1397,0.0,0.0,0.0,0.0,3.2081,3.2198,3.2198,3.2198,3.2198,3.2218,3.2374,3.2433,3.2452,0.0,0.0,0.0,0.0,0.0,0.0,0.0,1.7608,1.7608,1.7608,1.7608,1.7608,1.7608,1.7608,1.7608,1.7608,0.0,0.0,0.0,0.0,0.0,0.0,0.0,0.0,0.0,1.7608,1.7608,1.7608,1.7608,1.7608,1.7608,1.7608,1.7608,1.7608,1.7635,0.0,0.0,0.0,0.0,0.0,1.8517,1.8517,0.0,0.0,0.0,0.0,0.0,0.0,0.0,0.0,0.0,0.0,0.0,0.0,0.0,0.0,0.0,0.0,0.0,1.8544,1.8517,1.8517,1.8544,1.8557,1.8557,1.8557,0.0,1.8876,1.893,1.9038,1.9348,1.9415,1.9428,1.9428,1.9639,1.984,0.0,2.0197,0.0,0.0,0.0,0.0,0.0,0.0,0.0,0.0,0.0,0.0,3.0937,3.0957,3.1152,3.1562,3.1191,3.0976,3.0976,3.0976,3.1172,3.1562,3.1562,3.1777,3.2198,3.2198,3.2198,0.0,0.0,0.0,0.0,3.2276,3.2296,3.2296,3.2296,3.2296,3.2335,3.2695,3.2832,3.2891,0.0,0.0,0.0,0.0,0.0,0.0,0.0,0.0,0.0,0.0,1.7608,1.7608,1.7608,1.7608,1.7608,0.0,0.0,0.0,0.0,0.0,0.0,0.0,0.0,0.0,0.0,1.7608,1.7608,1.7608,1.7608,1.7608,1.7608,1.7608,1.7608,1.7622,1.7809,0.0,0.0,0.0,0.0,0.0,1.8731,1.8824,0.0,0.0,0.0,0.0,1.9187,1.9187,0.0,0.0,0.0,0.0,0.0,0.0,0.0,0.0,1.9187,1.9187,1.9187,0.0,1.8824,1.8824,1.8998,1.9187,0.0,1.9187,0.0,0.0,0.0,1.9321,1.9388,1.9575,1.9693,1.9693,1.9947,2.0214,2.0441,0.0,0.0,0.0,0.0,0.0,0.0,0.0,0.0,0.0,0.0,3.0058,3.1278,3.168,3.1944,3.2042,3.1944,3.1905,3.1905,3.1905,3.1944,3.2042,3.2042,3.2101,3.2198,3.2198,3.2198,0.0,0.0,0.0,3.2676,3.2988,3.3125,3.3125,3.3125,3.3125,3.3144,3.3211,3.3281,3.325,0.0,0.0,0.0,0.0,0.0,0.0,0.0,0.0,0.0,0.0,0.0,0.0,0.0,0.0,0.0,0.0,0.0,0.0,0.0,0.0,0.0,0.0,0.0,0.0,1.7608,1.7608,1.7608,1.7608,1.7608,1.7649,1.7769,1.7769,1.7862,1.8009,1.8143,0.0,0.0,0.0,0.0,1.8933,1.9065,0.0,0.0,0.0,0.0,0.0,1.9401,1.9401,0.0,1.9401,1.9401,1.9401,0.0,0.0,0.0,0.0,1.9401,1.9401,1.9401,1.9281,1.9132,1.9132,1.9281,1.9401,1.9401,0.0,0.0,0.0,0.0,1.9559,1.9559,1.98,1.997,1.997,2.0862,0.0,0.0,0.0,0.0,0.0,0.0,0.0,0.0,0.0,0.0,0.0,0.0,3.0903,3.1786,3.2061,3.2296,3.2472,3.2492,3.2394,3.2198,3.2198,3.2296,3.2492,3.2492,3.2559,3.2734,3.2734,3.2734,0.0,0.0,0.0,3.3105,3.3289,3.3386,3.3386,3.3386,3.3386,3.3386,3.3386,3.3386,3.3386,0.0,0.0,0.0,0.0,0.0,0.0,0.0,0.0,0.0,0.0,0.0,0.0,0.0,0.0,0.0,0.0,0.0,0.0,0.0,0.0,0.0,0.0,0.0,1.7608,1.7608,1.7622,1.7649,1.7649,1.7702,1.7849,1.8089,1.8089,1.8249,1.8557,1.8557,1.8718,0.0,0.0,0.0,1.9401,1.9401,0.0,0.0,0.0,0.0,0.0,0.0,0.0,0.0,1.9401,1.9401,1.9401,1.9401,0.0,0.0,0.0,0.0,0.0,1.9401,1.9428,1.9455,1.9401,1.9401,1.9401,1.9455,0.0,0.0,0.0,0.0,0.0,0.0,2.0244,0.0,0.0,0.0,0.0,2.356,2.2796,0.0,0.0,0.0,0.0,0.0,0.0,0.0,0.0,0.0,3.2296,3.2296,3.2355,3.255,3.2871,3.2891,3.2715,3.2394,3.2394,3.2539,3.2891,3.2891,3.3086,3.3386,3.3386,3.3386,0.0,0.0,0.0,3.3386,3.3386,3.3386,3.3386,3.3386,3.3386,3.3386,3.3386,3.3386,3.3449,0.0,0.0,0.0,0.0,0.0,0.0,0.0,0.0,0.0,0.0,0.0,0.0,0.0,0.0,0.0,0.0,0.0,0.0,0.0,0.0,0.0,0.0,1.7608,1.7608,1.7608,1.7809,1.7942,1.7942,1.8223,1.837,1.8424,1.8424,1.8584,1.8836,1.8836,1.9025,1.9334,0.0,0.0,1.9401,1.9401,0.0,0.0,0.0,0.0,0.0,0.0,0.0,0.0,1.9401,1.9401,1.9401,1.9401,0.0,0.0,0.0,0.0,0.0,1.9401,1.9575,1.9679,1.9455,1.9401,1.9468,1.9679,0.0,0.0,0.0,0.0,0.0,0.0,2.1362,2.1064,0.0,0.0,2.3545,0.0,0.0,0.0,0.0,0.0,0.0,0.0,0.0,0.0,0.0,0.0,3.2695,3.2695,3.3027,3.323,3.332,3.332,3.3269,3.3223,3.3223,3.3262,3.332,3.332,3.3328,3.3386,3.3386,3.3386,0.0,0.0,3.3386,3.3386,3.3386,3.3386,3.3386,3.3386,3.3386,3.3386,3.3386,3.3386,3.3607,0.0,0.0,0.0,0.0,0.0,0.0,0.0,0.0,0.0,0.0,0.0,0.0,0.0,0.0,0.0,0.0,0.0,0.0,0.0,0.0,0.0,1.7608,1.7742,1.7836,1.7836,1.7942,1.8103,1.8263,1.8424,1.8571,1.8731,1.8891,1.9067,1.9158,1.9158,1.9267,1.9401,1.9401,1.9401,1.9401,0.0,0.0,0.0,0.0,0.0,0.0,0.0,0.0,0.0,0.0,1.9401,1.9401,1.9401,0.0,0.0,0.0,0.0,0.0,1.9589,1.9693,1.9813,1.9826,1.984,1.9867,2.0,0.0,0.0,0.0,0.0,0.0,0.0,0.0,2.1724,2.4268,0.0,0.0,0.0,0.0,0.0,0.0,0.0,0.0,0.0,0.0,0.0,0.0,0.0,0.0,3.3125,3.3289,3.3386,3.3386,3.3386,3.3386,3.3386,3.3386,3.3386,3.3386,3.3386,3.3386,3.3386,3.3386,3.3386,3.3386,0.0,3.3386,3.3386,3.3386,3.3386,3.3386,3.3386,3.3386,3.3386,3.3386,3.3386,3.3513,0.0,0.0,0.0,0.0,0.0,0.0,0.0,0.0,0.0,0.0,0.0,0.0,0.0,0.0,0.0,0.0,0.0,0.0,0.0,0.0,1.7689,1.7689,1.7956,1.8089,1.8009,1.8156,1.8329,1.8597,1.8664,1.8811,1.9025,1.9294,1.9401,1.9401,1.9401,1.9401,1.9401,1.9401,1.9401,1.9401,0.0,0.0,0.0,0.0,0.0,0.0,0.0,0.0,0.0,0.0,0.0,0.0,0.0,0.0,0.0,1.9481,1.9495,1.9562,1.9826,1.9947,2.0054,2.0281,2.025,2.0224,2.029,0.0,0.0,0.0,0.0,0.0,0.0,2.1929,0.0,2.5749,2.6815,0.0,0.0,0.0,0.0,0.0,0.0,0.0,0.0,0.0,0.0,0.0,0.0,0.0,3.3386,3.3386,3.3386,3.3386,3.3386,3.3386,3.3386,3.3386,3.3386,3.3386,3.3386,3.3386,3.3386,3.3386,3.3386,3.3386,3.3386,3.3386,3.3386,3.3386,3.3386,3.3386,3.3386,3.3386,3.3386,3.3386,3.3386,3.3513,0.0,0.0,0.0,0.0,0.0,0.0,0.0,0.0,0.0,0.0,0.0,0.0,0.0,0.0,0.0,0.0,0.0,0.0,0.0,0.0,1.7955,1.7955,1.8303,1.8317,1.8023,1.8543,1.885,1.8863,1.9172,1.9348,1.9361,1.9388,1.9401,1.9401,1.9401,1.9401,1.9401,1.9401,1.9401,1.9401,1.9401,0.0,0.0,0.0,0.0,0.0,0.0,0.0,0.0,0.0,0.0,0.0,0.0,0.0,1.9455,1.9693,1.9773,1.9826,2.009,2.0401,2.0646,2.0672,2.0441,0.0,2.0575,2.0672,0.0,0.0,0.0,0.0,0.0,2.4937,2.6279,2.6527,2.8213,0.0,0.0,0.0,0.0,0.0,0.0,0.0,0.0,0.0,0.0,0.0,0.0,0.0,3.3386,3.3386,3.3386,3.3386,3.3386,3.3386,3.3386,3.3386,3.3386,3.3386,3.3386,3.3386,3.3386,3.3386,3.3386,3.3386,3.3386,3.3386,3.3386,3.3386,3.3386,3.3386,3.3386,3.3386,3.3386,3.3386,3.3386,3.3839,0.0,0.0,0.0,0.0,0.0,0.0,0.0,0.0,0.0,0.0,0.0,0.0,0.0,0.0,0.0,0.0,0.0,0.0,0.0,0.0,1.8303,1.8303,1.8583,1.8704,1.8556,1.8783,1.8983,1.9199,1.9348,1.9401,1.9401,1.9401,1.9401,1.9401,1.9401,1.9401,1.9401,1.9401,1.9401,1.9401,1.9401,1.9401,0.0,0.0,0.0,0.0,0.0,0.0,0.0,0.0,1.9401,1.9428,1.9615,1.9639,1.9693,1.9987,2.0037,2.0134,2.0428,2.0588,2.0753,2.0895,0.0,0.0,0.0,0.0,0.0,0.0,0.0,0.0,0.0,0.0,2.6924,2.6924,2.9569,0.0,0.0,0.0,0.0,0.0,0.0,0.0,0.0,0.0,0.0,0.0,0.0,0.0,3.3386,3.3386,3.3386,3.3386,3.3386,3.3386,3.3386,3.3386,3.3386,3.3386,3.3386,3.3386,3.3386,3.3386,3.3386,3.3386,3.3386,3.3386,3.3386,3.3386,3.3386,3.3386,3.3386,3.3386,3.3386,3.3386,3.3386,3.3576,0.0,0.0,0.0,0.0,0.0,0.0,0.0,0.0,0.0,0.0,0.0,0.0,0.0,0.0,0.0,0.0,0.0,0.0,1.8477,1.8584,1.8624,1.8624,1.8905,1.9065,1.9065,1.9065,1.9158,1.9401,1.9401,1.9401,1.9401,1.9401,1.9401,1.9401,1.9401,1.9401,1.9401,1.9401,1.9401,1.9401,1.9401,1.9401,0.0,0.0,0.0,0.0,0.0,0.0,0.0,0.0,1.9535,1.9589,1.984,1.9933,2.0,2.025,2.0374,2.0441,2.0735,2.0846,2.0855,0.0,0.0,0.0,0.0,0.0,0.0,0.0,0.0,0.0,0.0,0.0,0.0,0.0,0.0,0.0,0.0,0.0,0.0,0.0,0.0,0.0,0.0,0.0,0.0,0.0,0.0,0.0,0.0,3.3386,3.3386,3.3386,3.3386,3.3386,3.3386,3.3386,3.3386,3.3386,3.3386,3.3386,3.3386,3.3386,3.3386,3.3386,3.3386,3.3386,3.3386,3.3386,3.3386,3.3386,3.3386,3.3386,3.3386,3.3386,3.3713,3.4227,0.0,0.0,0.0,0.0,0.0,0.0,0.0,0.0,0.0,0.0,0.0,0.0,0.0,0.0,0.0,0.0,0.0,0.0,1.8504,1.8771,1.8903,1.8903,1.9212,1.9401,1.9401,1.9401,1.9401,1.9401,1.9401,1.9401,1.9401,1.9401,1.9401,1.9401,1.9401,1.9401,1.9401,1.9401,1.9401,1.9401,1.9401,1.9401,1.9401,0.0,0.0,0.0,0.0,0.0,0.0,0.0,1.98,1.9853,2.0117,2.021,2.0264,2.0601,2.0712,2.0748,2.1029,2.1109,2.1109,0.0,0.0,0.0,0.0,0.0,0.0,0.0,0.0,0.0,0.0,0.0,0.0,0.0,0.0,0.0,0.0,0.0,0.0,0.0,0.0,0.0,0.0,0.0,0.0,0.0,0.0,0.0,0.0,3.3386,3.3386,3.3386,3.3386,3.3386,3.3386,3.3386,3.3386,3.3386,3.3386,3.3386,3.3386,3.3386,3.3386,3.3386,3.3386,3.3386,3.3386,3.3386,3.3386,3.3386,3.3386,3.3386,3.3386,3.3386,3.4414,3.602,0.0,0.0,0.0,0.0,0.0,0.0,0.0,0.0,0.0,0.0,0.0,0.0,0.0,0.0,0.0,0.0,0.0,0.0,1.912,1.9214,1.9267,1.9267,1.9348,1.9401,1.9401,1.9401,1.9401,1.9401,1.9401,1.9401,1.9401,1.9401,1.9401,1.9401,1.9401,1.9401,1.9401,1.9401,1.9401,1.9401,1.9401,1.9401,1.9401,0.0,0.0,0.0,0.0,0.0,0.0,0.0,0.0,0.0,2.0454,2.0548,2.0601,2.0895,2.0975,2.1002,2.1082,2.1109,0.0,2.1109,0.0,0.0,0.0,0.0,0.0,0.0,0.0,0.0,0.0,0.0,0.0,0.0,0.0,0.0,0.0,0.0,0.0,0.0,0.0,0.0,0.0,0.0,0.0,0.0,0.0,0.0,0.0,3.3386,3.3386,3.3386,3.3386,3.3386,3.3386,3.3386,3.3386,3.3386,3.3386,3.3386,3.3386,3.3386,3.3386,3.3386,3.3386,3.3386,3.3386,3.3386,3.3386,3.3386,3.3386,3.3386,3.3386,3.3386,3.3682,3.4164,0.0,0.0,0.0,0.0,0.0,0.0,0.0,0.0,0.0,0.0,0.0,0.0,0.0,0.0,0.0,0.0,0.0,0.0,0.0,0.0,1.9401,1.9401,1.9401,1.9401,1.9401,1.9401,1.9401,1.9401,1.9401,1.9401,1.9401,1.9401,1.9401,1.9401,0.0,1.9401,1.9401,1.9401,1.9401,1.9401,1.9401,1.9401,1.9401,0.0,0.0,0.0,0.0,0.0,0.0,0.0,0.0,0.0,2.0748,2.0855,2.0882,2.1056,2.1109,2.1109,2.1109,2.1109,0.0,2.1256,2.1448,2.1649,2.1877,0.0,0.0,0.0,0.0,0.0,0.0,0.0,0.0,0.0,0.0,0.0,0.0,0.0,0.0,0.0,0.0,0.0,0.0,0.0,0.0,0.0,0.0,0.0,0.0,3.3386,3.3386,3.3386,3.3386,3.3386,3.3386,3.3386,3.3386,3.3386,3.3386,3.3386,3.3386,3.3386,3.3386,3.3386,3.3386,3.3386,3.3386,3.3386,3.3386,3.3386,3.3386,3.3386,3.3386,3.3386,3.3808,3.4352,0.0,0.0,0.0,0.0,0.0,0.0,0.0,0.0,0.0,0.0,0.0,0.0,0.0,0.0,0.0,0.0,0.0,0.0,0.0,0.0,1.9401,1.9401,1.9401,1.9401,1.9401,1.9428,1.9441,1.9441,1.9415,1.9415,1.9441,1.9441,1.9455,1.9481,0.0,1.9481,1.9481,1.9481,1.9481,1.9481,1.9481,1.9481,1.9508,1.9733,0.0,0.0,0.0,0.0,0.0,0.0,0.0,0.0,2.1029,2.1109,2.1109,2.1109,2.1109,2.1122,2.1149,2.1149,2.1216,2.1555,2.1649,0.0,2.2525,2.268,2.3217,2.5018,0.0,2.8952,0.0,0.0,0.0,0.0,0.0,0.0,0.0,0.0,0.0,0.0,0.0,0.0,0.0,0.0,0.0,0.0,0.0,0.0,0.0,3.3386,3.3386,3.3386,3.3386,3.3386,3.3386,3.3386,3.3386,3.3386,3.3386,3.3386,3.3386,3.3386,3.3386,3.3386,3.3386,3.3386,3.3386,3.3386,3.3386,3.3386,3.3386,3.3386,3.3386,3.3386,3.4352,3.5591,0.0,0.0,0.0,0.0,0.0,0.0,0.0,0.0,0.0,0.0,0.0,0.0,0.0,0.0,0.0,0.0,0.0,0.0,0.0,0.0,1.9401,1.9401,1.9401,1.9401,1.9401,1.9615,1.9706,1.9706,1.9508,1.9508,0.0,0.0,0.0,2.001,0.0,2.001,2.001,2.001,2.001,2.001,2.001,2.001,2.0024,2.009,2.0104,0.0,0.0,0.0,0.0,0.0,0.0,0.0,2.1096,2.1109,2.1109,2.1109,2.1109,2.1162,2.1422,2.1489,0.0,0.0,2.2071,2.2679,2.4434,2.4843,2.5346,2.7159,2.8999,3.0771,0.0,0.0,0.0,0.0,0.0,0.0,0.0,0.0,0.0,0.0,0.0,0.0,0.0,0.0,0.0,0.0,0.0,0.0,3.3386,3.3386,3.3386,3.3386,3.3386,3.3386,3.3386,3.3386,3.3386,0.0,3.3386,3.3386,3.3386,3.3386,3.3386,3.3386,3.3386,3.3386,3.3386,3.3386,3.3386,3.3386,3.3386,3.3386,3.3386,3.3386,3.3619,3.3933,0.0,0.0,0.0,0.0,0.0,0.0,0.0,0.0,0.0,0.0,0.0,0.0,0.0,0.0,0.0,0.0,0.0,0.0,0.0,0.0,0.0,1.9401,1.9401,1.9468,1.9602,1.972,1.9867,1.997,1.9853,0.0,0.0,0.0,0.0,2.0197,0.0,2.0197,2.0197,2.0197,2.0197,2.0197,2.0197,2.0197,2.0224,2.0388,2.0441,2.0481,2.0775,0.0,0.0,0.0,0.0,0.0,0.0,0.0,2.1109,2.1109,2.1203,2.1395,2.1542,0.0,0.0,2.2124,0.0,2.4185,2.5237,2.6172,2.7304,2.9083,3.0157,3.1336,0.0,0.0,0.0,0.0,0.0,0.0,0.0,0.0,0.0,0.0,0.0,0.0,0.0,0.0,0.0,0.0,0.0,3.3386,3.3386,3.3386,3.3386,3.3386,3.3386,3.3386,3.3386,3.3386,3.3386,3.3386,3.3386,3.3386,3.3386,3.3386,3.3386,3.3386,3.3386,3.3386,3.3386,3.3386,3.3386,3.3386,3.3386,3.3386,3.3386,3.3386,3.3902,3.455,0.0,0.0,0.0,0.0,0.0,0.0,0.0,0.0,0.0,0.0,0.0,0.0,0.0,0.0,0.0,0.0,0.0,0.0,0.0,0.0,0.0,0.0,1.9468,1.9573,1.9867,1.992,2.0067,2.0277,0.0,0.0,0.0,0.0,0.0,2.0357,0.0,2.0357,2.0357,2.0357,2.0357,2.0357,2.0357,2.0357,2.0384,0.0,0.0,2.0806,2.1029,2.1109,2.1109,2.1109,0.0,0.0,0.0,0.0,2.1122,2.1176,2.1395,2.1609,2.1703,2.1943,2.2291,2.2787,2.4233,0.0,2.6273,2.7569,2.9148,3.0868,3.0997,3.1336,0.0,0.0,0.0,0.0,0.0,0.0,0.0,0.0,0.0,0.0,0.0,0.0,0.0,0.0,0.0,0.0,0.0,3.3386,3.3386,3.3386,3.3386,3.3386,3.3386,3.3386,3.3386,3.3386,3.3386,3.3386,3.3386,3.3386,3.3386,3.3386,3.3386,3.3386,3.3386,3.3386,3.3386,3.3386,3.3386,3.3386,3.3386,3.3386,3.3418,3.3713,3.4674,3.5837,0.0,0.0,0.0,0.0,0.0,0.0,0.0,0.0,0.0,0.0,0.0,0.0,0.0,0.0,0.0,0.0,0.0,0.0,0.0,0.0,0.0,1.9733,1.9746,1.988,2.0144,2.0428,2.0605,0.0,0.0,0.0,0.0,0.0,0.0,2.0989,0.0,0.0,2.0989,2.0989,2.0989,2.0989,2.0989,2.0989,2.0989,0.0,0.0,0.0,0.0,2.1109,2.1109,2.1109,2.1109,0.0,0.0,0.0,2.1162,2.1448,2.1555,2.1689,2.2164,0.0,2.3147,0.0,2.5286,2.6306,0.0,0.0,3.095,0.0,3.1867,3.1336,0.0,0.0,0.0,0.0,0.0,0.0,0.0,0.0,0.0,0.0,0.0,0.0,0.0,0.0,0.0,0.0,3.3386,3.3386,3.3386,3.3386,3.3386,3.3386,3.3386,3.3386,3.3386,3.3386,3.3386,3.3386,3.3386,3.3386,3.3386,3.3386,3.3386,3.3386,3.3386,3.3386,3.3386,3.3386,3.3386,3.3386,3.3386,3.3386,3.3576,3.4964,3.5622,3.599,0.0,0.0,0.0,0.0,0.0,0.0,0.0,0.0,0.0,0.0,0.0,0.0,0.0,0.0,0.0,0.0,0.0,0.0,0.0,0.0,0.0,2.001,2.001,2.0187,2.0468,2.0615,2.0762,0.0,0.0,0.0,0.0,2.0975,2.0989,0.0,0.0,0.0,0.0,0.0,0.0,0.0,0.0,0.0,0.0,0.0,0.0,0.0,0.0,0.0,0.0,2.1109,2.1109,2.1109,2.1109,0.0,0.0,0.0,2.181,2.2356,2.3769,2.4251,2.4791,0.0,2.7751,2.8869,3.0448,0.0,3.246,3.326,3.2797,3.2492,3.326,0.0,0.0,0.0,0.0,0.0,0.0,0.0,0.0,0.0,0.0,0.0,0.0,0.0,0.0,0.0,3.3386,3.3386,3.3386,3.3386,3.3386,3.3386,3.3386,3.3386,3.3386,3.3386,3.3386,3.3386,3.3386,3.3386,3.3386,3.3386,3.3386,3.3386,3.3386,3.3386,3.3386,3.3386,3.3386,3.3386,3.3386,3.3386,3.3481,3.4195,3.521,3.6288,0.0,0.0,0.0,0.0,0.0,0.0,0.0,0.0,0.0,0.0,0.0,0.0,0.0,0.0,0.0,0.0,0.0,0.0,0.0,0.0,0.0,2.0317,2.0347,2.0481,2.0775,2.0788,0.0,0.0,0.0,0.0,2.1109,2.1109,2.1109,0.0,2.1109,0.0,0.0,0.0,0.0,0.0,0.0,0.0,0.0,0.0,0.0,0.0,0.0,0.0,0.0,0.0,0.0,0.0,0.0,2.1408,0.0,0.0,0.0,2.3529,0.0,0.0,2.6606,2.8427,2.9832,3.09,0.0,0.0,3.3386,0.0,3.3386,3.3386,3.3386,0.0,0.0,0.0,0.0,0.0,0.0,0.0,0.0,0.0,0.0,0.0,0.0,0.0,0.0,0.0,3.3386,3.3386,3.3386,3.3386,3.3386,3.3386,3.3386,3.3386,3.3386,3.3386,3.3386,3.3386,3.3386,3.3445,3.3594,3.3594,3.3652,3.373,3.3516,3.3386,3.3406,3.3535,3.3594,3.3594,3.3679,3.3718,3.3782,3.4207,3.5306,3.6771,0.0,0.0,0.0,0.0,0.0,0.0,0.0,0.0,0.0,0.0,0.0,0.0,0.0,0.0,2.0157,2.0157,0.0,0.0,0.0,0.0,0.0,2.0672,2.0686,0.0,2.1082,2.1082,0.0,0.0,0.0,0.0,2.1109,2.1109,2.1109,2.1109,2.1109,2.1109,2.1109,0.0,0.0,0.0,0.0,0.0,0.0,0.0,0.0,0.0,0.0,0.0,0.0,0.0,0.0,0.0,0.0,0.0,0.0,0.0,0.0,0.0,0.0,2.6739,0.0,3.0222,3.0739,3.124,0.0,0.0,0.0,3.3386,3.3386,3.3386,3.3386,0.0,0.0,0.0,0.0,0.0,0.0,0.0,0.0,0.0,0.0,0.0,0.0,0.0,0.0,0.0,3.3386,3.3386,3.3386,3.3386,3.3386,3.3386,3.3386,3.3386,3.3386,3.3386,3.3386,3.3386,3.3386,3.3633,3.4075,3.4075,3.429,3.459,3.3769,3.3386,3.3425,3.3867,3.4075,3.4114,3.4473,3.4629,3.4825,3.6371,3.6979,3.752,0.0,0.0,0.0,0.0,0.0,0.0,0.0,0.0,0.0,0.0,0.0,0.0,0.0,2.0144,2.0197,2.0197,2.0401,0.0,0.0,0.0,0.0,2.0949,2.0949,2.1002,2.1109,0.0,0.0,0.0,0.0,2.1109,2.1109,2.1109,2.1109,2.1109,2.1109,2.1109,2.1109,2.1109,0.0,0.0,0.0,0.0,0.0,0.0,0.0,0.0,0.0,0.0,0.0,0.0,0.0,0.0,0.0,0.0,0.0,0.0,0.0,0.0,0.0,0.0,0.0,3.2027,3.246,3.2619,3.326,3.3386,3.3386,3.3386,3.3386,3.3386,3.3386,0.0,0.0,0.0,0.0,0.0,0.0,0.0,0.0,0.0,0.0,0.0,0.0,0.0,0.0,0.0,0.0,3.3386,3.3386,3.3386,3.3386,3.3386,3.3386,3.3386,3.3386,3.3386,3.3555,3.3848,3.3848,3.4062,3.4473,3.4473,3.4551,3.4687,3.4375,3.4238,3.4258,3.4414,3.4473,3.4492,3.4648,3.4707,3.4753,3.5353,3.5749,3.6173,0.0,0.0,0.0,0.0,0.0,0.0,0.0,0.0,0.0,0.0,0.0,0.0,0.0,0.0,2.049,2.049,2.0708,2.0909,2.1096,2.1109,2.1109,2.1109,2.1109,2.1109,0.0,0.0,0.0,0.0,0.0,0.0,0.0,0.0,2.1109,2.1109,2.1109,0.0,0.0,0.0,0.0,2.1122,0.0,0.0,2.1269,0.0,0.0,0.0,0.0,0.0,0.0,0.0,0.0,0.0,0.0,0.0,0.0,0.0,0.0,0.0,2.9977,0.0,0.0,0.0,3.3386,3.3386,3.3386,0.0,3.3386,3.3386,3.3386,3.3386,3.3386,3.3386,0.0,0.0,0.0,0.0,0.0,0.0,0.0,0.0,0.0,0.0,0.0,0.0,0.0,0.0,0.0,0.0,3.3386,3.3386,3.3386,3.3386,3.3386,3.3496,3.3633,3.3633,3.3848,3.431,3.431,3.4512,3.4922,3.4922,3.5019,3.5137,3.5137,3.498,3.4707,3.4863,3.4922,3.4941,3.5098,3.5137,3.5137,3.5137,3.5332,3.5706,0.0,0.0,0.0,0.0,0.0,0.0,0.0,0.0,0.0,0.0,0.0,0.0,0.0,0.0,0.0,2.1046,2.1077,2.1109,2.1109,2.1109,2.1109,2.1109,0.0,0.0,0.0,0.0,0.0,0.0,0.0,0.0,0.0,0.0,2.1136,0.0,2.1136,2.1136,2.1136,0.0,2.1122,2.1162,0.0,2.1596,2.1622,0.0,0.0,0.0,2.1991,2.2004,0.0,0.0,0.0,0.0,0.0,0.0,0.0,0.0,0.0,0.0,0.0,0.0,0.0,0.0,0.0,0.0,3.3386,0.0,3.3386,3.3386,3.3386,3.3386,3.3386,3.3386,0.0,0.0,0.0,0.0,0.0,0.0,0.0,0.0,0.0,0.0,0.0,0.0,0.0,0.0,3.3386,3.3386,3.3386,3.3386,3.3406,3.3406,3.3406,3.3652,3.4114,3.4114,3.4329,3.4726,3.4726,3.4961,3.541,3.541,3.5625,3.5982,3.5982,3.5527,3.4766,3.5234,3.541,3.5449,3.5859,3.5982,3.5982,3.5982,3.6016,3.6302,0.0,0.0,0.0,0.0,0.0,0.0,0.0,0.0,0.0,0.0,0.0,0.0,0.0,0.0,2.0589,1.9323,2.0367,2.1109,2.1109,2.1109,2.1109,2.1109,2.1109,2.1109,0.0,0.0,0.0,0.0,0.0,0.0,0.0,0.0,0.0,0.0,2.175,2.175,2.1737,2.1555,0.0,0.0,2.1863,2.1903,0.0,0.0,0.0,0.0,0.0,2.2298,0.0,0.0,2.2653,2.2903,0.0,0.0,0.0,0.0,0.0,0.0,3.2205,0.0,0.0,0.0,0.0,0.0,0.0,0.0,3.3386,3.3386,3.3386,3.3386,3.3386,3.3386,3.3386,0.0,0.0,0.0,0.0,0.0,0.0,0.0,0.0,0.0,0.0,0.0,0.0,0.0,3.3386,3.3386,3.3386,3.3386,3.3574,3.3887,3.3887,3.4101,3.4531,3.4531,3.4746,3.5195,3.5195,3.543,3.5806,3.5806,3.5884,3.5982,3.5982,3.5845,3.5664,3.5801,3.5806,3.5859,3.5976,3.5982,3.5982,3.5982,3.6789,3.7955,0.0,0.0,0.0,0.0,0.0,0.0,0.0,0.0,0.0,0.0,0.0,0.0,0.0,0.0,0.0,1.961,2.0526,2.1109,2.1109,2.1109,2.1109,2.1109,2.1109,2.1109,2.1109,0.0,0.0,0.0,0.0,0.0,0.0,0.0,0.0,0.0,0.0,0.0,0.0,0.0,0.0,0.0,2.2124,0.0,0.0,2.2331,2.2385,0.0,0.0,0.0,2.2632,2.284,2.3393,0.0,0.0,0.0,0.0,0.0,0.0,0.0,0.0,0.0,0.0,0.0,0.0,0.0,3.3386,3.3386,3.3386,0.0,3.3386,3.3386,3.3386,3.3386,3.3386,3.3386,0.0,0.0,0.0,0.0,0.0,0.0,0.0,0.0,0.0,3.3386,3.3386,3.3386,3.3386,3.3386,3.3386,3.3594,3.3809,3.4095,3.4271,3.4551,3.498,3.498,3.5215,3.5664,3.5664,3.5781,3.5982,3.5982,3.5982,3.5982,3.5982,3.5982,3.5982,3.5982,3.5982,3.5982,3.5982,3.6437,3.7092,3.7092,3.8188,3.966,0.0,0.0,0.0,1.0514,1.0629,1.0684,0.0,0.0,0.0,0.0,0.0,0.0,0.0,0.0,0.0,0.0,2.0982,2.1109,2.1109,2.1136,2.1162,2.1162,2.1189,2.1203,2.1203,2.1502,0.0,0.0,0.0,0.0,0.0,0.0,0.0,0.0,0.0,0.0,0.0,0.0,0.0,2.2111,2.2365,2.2472,0.0,0.0,2.2893,0.0,2.2893,2.2893,2.2928,2.3133,2.4229,0.0,0.0,0.0,0.0,0.0,3.1111,0.0,0.0,0.0,0.0,0.0,0.0,0.0,3.3386,3.3386,3.3386,0.0,3.3386,3.3386,3.3386,3.3386,3.3386,3.3386,0.0,0.0,0.0,0.0,0.0,0.0,0.0,0.0,3.3386,3.3386,3.3386,3.3386,3.3386,3.3406,3.3464,3.3867,3.4153,3.4251,3.459,3.5,3.5449,3.5469,3.5644,3.5982,3.5982,3.5982,3.5982,3.5982,3.5982,3.5982,3.5982,3.5982,3.5982,3.5982,3.5982,3.5982,3.5982,3.6958,3.832,3.832,3.942,4.0924,0.0,0.0,0.0,1.0677,1.0671,1.0684,0.0,0.0,0.0,0.0,0.0,0.0,0.0,0.0,0.0,0.0,2.0291,2.1109,2.1109,2.1336,2.1502,2.1502,2.1729,2.1817,2.1817,2.1903,2.193,2.193,0.0,0.0,0.0,0.0,0.0,0.0,0.0,0.0,0.0,0.0,0.0,2.2733,2.2786,0.0,2.2813,2.288,2.2893,2.2893,2.2893,2.2893,2.3099,0.0,2.5214,2.6072,0.0,0.0,0.0,0.0,0.0,0.0,0.0,0.0,0.0,0.0,0.0,0.0,3.3386,3.3386,3.3386,0.0,3.3386,3.3386,3.3386,3.3386,3.3386,3.3386,3.3386,0.0,0.0,0.0,0.0,0.0,0.0,0.0,3.3386,3.3386,3.3386,3.3386,3.3386,3.3574,3.3926,3.4055,3.4427,3.5117,3.5215,3.5469,3.5898,3.5864,3.5903,3.5982,3.5982,3.5982,3.5982,3.5982,3.5982,3.5982,3.5982,3.5982,3.5982,3.5982,3.5982,3.5982,3.5982,3.6219,3.6505,3.6505,3.7608,3.9125,0.0,0.0,0.0,0.0,1.0684,1.0684,1.0684,0.0,0.0,0.0,0.0,0.0,0.0,0.0,0.0,0.0,0.0,0.0,0.0,2.1716,2.1796,2.1796,2.1943,2.1991,2.1991,2.2124,2.2205,2.2205,0.0,0.0,0.0,0.0,0.0,0.0,0.0,0.0,0.0,0.0,2.2893,2.2893,2.2893,0.0,2.2893,2.2893,2.2893,2.2893,2.2893,2.2893,2.329,2.5953,2.6839,0.0,0.0,3.2091,3.2269,0.0,3.3386,3.3386,0.0,0.0,0.0,3.3386,0.0,0.0,0.0,3.3386,3.3386,3.3386,3.3386,3.3386,3.3386,3.3386,3.3386,3.3386,3.3386,3.3386,0.0,0.0,0.0,0.0,0.0,0.0,3.3386,3.3386,3.3386,3.3386,3.3633,3.3848,3.4095,3.4525,3.4941,3.5391,3.5605,3.5801,3.5982,3.5982,3.5982,3.5982,3.5982,3.5982,3.5982,3.5982,3.5982,3.5982,3.5982,3.5982,3.5982,3.5982,3.5982,3.5982,3.5982,3.6539,3.7307,3.7307,3.8927,4.1126,0.0,0.0,0.0,0.0,1.0711,1.0732,1.0732,0.0,0.0,0.0,0.0,0.0,0.0,0.0,0.0,0.0,0.0,0.0,0.0,0.0,2.2071,2.2071,2.2124,2.2151,2.2151,2.2378,2.2498,2.2498,0.0,0.0,0.0,0.0,0.0,0.0,0.0,0.0,0.0,0.0,0.0,2.2893,0.0,2.2893,2.2893,2.2893,2.2893,2.2893,2.2893,2.3133,2.389,2.7105,0.0,2.9246,3.2397,3.3386,0.0,0.0,0.0,0.0,0.0,0.0,0.0,0.0,0.0,3.3386,0.0,0.0,0.0,3.3386,3.3386,0.0,0.0,0.0,0.0,0.0,0.0,0.0,0.0,3.3386,0.0,0.0,0.0,0.0,3.3386,3.3386,3.3425,3.3535,3.3899,3.4173,3.4349,3.5,3.543,3.5508,3.584,3.5982,3.5982,3.5982,3.5982,3.5982,3.5982,3.5982,3.5982,3.5982,3.5982,3.5982,3.5982,3.5982,3.5982,3.5982,3.5982,3.5982,3.5982,3.6856,3.8088,3.8088,4.0051,4.2675,1.0684,1.0684,0.0,0.0,1.0799,1.0887,1.0887,0.0,0.0,0.0,0.0,0.0,0.0,0.0,0.0,0.0,0.0,0.0,2.1991,0.0,0.0,2.2331,2.2653,2.28,2.28,2.2827,2.284,2.284,2.288,0.0,0.0,0.0,0.0,0.0,2.2893,0.0,0.0,0.0,2.2893,0.0,2.2893,2.2893,0.0,2.2893,2.2893,2.2893,2.2893,2.389,2.5517,0.0,2.9213,3.0836,0.0,3.3386,0.0,0.0,0.0,0.0,0.0,0.0,0.0,0.0,3.3386,0.0,0.0,0.0,3.3386,3.3386,0.0,0.0,0.0,0.0,0.0,0.0,0.0,0.0,3.3386,3.3386,3.3386,3.3386,0.0,0.0,0.0,3.3386,3.3574,3.3997,3.4075,3.4446,3.5195,3.5332,3.5566,3.5937,3.5962,3.5982,3.5982,3.5982,3.5982,3.5982,3.5982,3.5982,3.5982,3.5982,3.5982,3.5982,3.5982,3.5982,3.5982,3.5982,3.5982,3.5982,3.5982,3.6118,3.6321,3.6321,3.7508,3.896,0.0,0.0,0.0,0.0,1.0874,1.0941,1.1063,0.0,0.0,0.0,0.0,0.0,0.0,0.0,0.0,0.0,0.0,2.1357,0.0,0.0,0.0,0.0,2.2827,2.2893,2.2893,2.2893,2.2893,2.2893,2.2893,2.2893,0.0,0.0,0.0,0.0,2.2893,0.0,2.2893,0.0,0.0,0.0,0.0,0.0,0.0,2.2893,2.3529,2.4419,2.4419,2.5551,2.7337,0.0,3.0189,0.0,0.0,0.0,0.0,0.0,0.0,0.0,0.0,0.0,0.0,0.0,0.0,0.0,0.0,0.0,3.3386,0.0,0.0,0.0,0.0,0.0,0.0,0.0,3.3386,0.0,0.0,0.0,3.3386,0.0,0.0,0.0,0.0,0.0,0.0,0.0,3.4329,3.4707,3.5351,3.5625,3.584,3.5982,3.5982,3.5982,3.5982,3.5982,3.5982,3.5982,3.5982,3.5982,3.5982,3.5982,3.5982,3.5982,3.5982,3.5982,3.5982,3.5982,3.5982,3.5982,3.5982,3.5982,3.5982,3.5982,3.7092,3.8498,0.0,0.0,0.0,0.0,0.0,0.0,0.0,0.0,0.0,0.0,0.0,0.0,1.2359,1.4503,0.0,0.0,0.0,2.1459,0.0,0.0,2.2893,0.0,0.0,0.0,0.0,2.2893,2.2893,2.2893,2.2893,2.2893,0.0,0.0,0.0,0.0,0.0,2.2893,2.2893,0.0,0.0,2.2893,2.2893,2.2893,2.2962,2.3427,2.4385,2.5551,2.6039,2.7404,2.9115,3.0384,3.1125,0.0,3.2987,0.0,0.0,0.0,0.0,0.0,3.3386,0.0,0.0,0.0,0.0,0.0,0.0,0.0,0.0,0.0,0.0,0.0,0.0,0.0,0.0,0.0,0.0,3.3386,0.0,0.0,0.0,0.0,0.0,0.0,0.0,0.0,0.0,3.4231,3.4531,3.4961,3.5527,3.5859,3.5982,3.5982,3.5982,3.5982,3.5982,3.5982,3.5982,3.5982,3.5982,3.5982,3.5982,3.5982,3.5982,3.5982,3.5982,3.5982,3.5982,3.5982,3.5982,3.5982,3.5982,3.5982,3.5982,3.5982,3.7408,3.9256,0.0,1.0873,0.0,0.0,0.0,0.0,0.0,0.0,0.0,0.0,0.0,0.0,0.0,0.0,0.0,0.0,0.0,2.2825,2.2893,0.0,2.2893,0.0,0.0,2.2893,0.0,0.0,2.2893,2.2893,2.2893,2.2893,0.0,0.0,0.0,0.0,0.0,2.2893,2.2893,2.2893,2.2893,2.2893,2.2893,2.2893,2.3099,0.0,2.545,2.5752,2.747,0.0,0.0,3.0771,3.1931,0.0,0.0,0.0,0.0,0.0,0.0,0.0,0.0,0.0,0.0,3.3386,0.0,0.0,0.0,0.0,3.3386,0.0,0.0,0.0,0.0,0.0,0.0,0.0,0.0,0.0,0.0,0.0,0.0,0.0,0.0,0.0,0.0,0.0,3.3769,3.4609,3.4687,3.5078,3.5923,3.5982,3.5982,3.5982,3.5982,3.5982,3.5982,3.5982,3.5982,3.5982,3.5982,3.5982,3.5982,3.5982,3.5982,3.5982,3.5982,3.5982,3.5982,3.5982,3.5982,3.5982,3.5982,3.5982,3.5982,3.5982,3.8154,4.0892,0.0,0.0,0.0,0.0,0.0,0.0,0.0,1.1584,0.0,0.0,0.0,0.0,0.0,0.0,2.0097,0.0,0.0,2.2893,2.2893,2.2893,0.0,0.0,0.0,2.2893,0.0,0.0,0.0,0.0,0.0,0.0,0.0,0.0,0.0,0.0,0.0,2.2893,0.0,0.0,0.0,0.0,0.0,2.2893,2.2962,0.0,0.0,2.737,2.7966,3.0077,0.0,3.2524,3.2924,3.3386,3.3386,3.3386,3.3386,3.3386,3.3386,0.0,0.0,0.0,3.3386,3.3386,0.0,0.0,0.0,0.0,0.0,0.0,0.0,0.0,0.0,0.0,0.0,0.0,0.0,0.0,0.0,0.0,0.0,0.0,0.0,0.0,0.0,0.0,0.0,3.4668,3.498,3.541,3.5962,3.5982,3.5982,3.5982,3.5982,3.5982,3.5982,3.5982,3.5982,3.5982,3.5982,3.5982,3.5982,3.5982,3.5982,3.5982,3.5982,3.5982,3.5982,3.5982,3.5982,3.5982,3.5982,3.5982,3.5982,3.5982,3.6755,3.7822,1.1281,0.0,0.0,0.0,0.0,0.0,0.0,0.0,0.0,0.0,1.4991,0.0,1.7072,0.0,2.0097,0.0,2.1803,2.2893,2.2893,2.2893,0.0,2.2893,2.2893,0.0,0.0,0.0,0.0,0.0,0.0,2.2893,0.0,0.0,0.0,0.0,0.0,2.2893,2.2893,0.0,2.2893,0.0,0.0,2.3822,0.0,0.0,2.6221,2.8361,0.0,3.1483,3.3386,3.3386,3.3386,3.3386,3.3386,3.3386,3.3386,3.3386,3.3386,3.3386,3.3386,3.3386,0.0,3.3386,3.3386,0.0,3.3386,0.0,0.0,0.0,0.0,0.0,0.0,0.0,0.0,0.0,0.0,0.0,0.0,3.3386,0.0,0.0,0.0,0.0,0.0,0.0,3.4141,3.4883,3.5078,3.541,0.0,0.0,3.5982,3.5982,3.5982,3.5982,3.5982,3.5982,3.5982,3.5982,3.5982,3.5982,3.5982,3.5982,3.5982,3.5982,3.5982,3.5982,3.5982,3.5982,3.5982,3.5982,3.5982,3.5982,3.5982,3.5982,3.6755,3.8088,0.0,0.0,0.0,0.0,1.1525,0.0,0.0,0.0,1.4432,0.0,1.6192,1.7388,1.7458,1.9147,2.0236,2.0236,2.1872,0.0,2.2893,2.2893,0.0,0.0,2.2893,2.2893,2.2893,0.0,0.0,0.0,0.0,0.0,0.0,0.0,0.0,0.0,2.2893,0.0,2.2893,2.2893,2.2962,2.3154,2.4824,2.5551,2.5838,2.7635,2.8328,2.8755,3.2078,3.3323,3.3386,3.3386,3.3386,3.3386,3.3386,3.3386,3.3386,3.3386,3.3386,3.3386,3.3386,3.3386,3.3386,3.3386,0.0,0.0,0.0,0.0,3.3386,0.0,0.0,0.0,0.0,0.0,0.0,0.0,0.0,0.0,0.0,0.0,0.0,0.0,0.0,0.0,0.0,3.3711,3.3972,3.5273,3.498,3.5137,0.0,0.0,3.5982,3.5982,3.5982,3.5982,3.5982,3.5982,3.5982,3.5982,3.5982,3.5982,3.5982,3.5982,3.5982,3.5982,3.5982,3.5982,3.5982,3.5982,3.5982,3.5982,3.5982,3.605,3.6118,3.6118,3.8221,4.1309,1.1558,1.1592,1.1606,0.0,1.1592,1.1584,0.0,0.0,0.0,0.0,1.8159,1.9877,2.1274,2.1872,2.2194,2.2194,2.2619,0.0,0.0,0.0,0.0,2.2893,2.2893,2.2893,2.2893,2.2893,0.0,2.2893,0.0,0.0,2.2893,0.0,0.0,0.0,0.0,0.0,2.2893,2.2893,2.3665,2.4892,2.5315,2.6306,0.0,0.0,3.0125,3.0254,3.1143,3.2301,3.3386,3.3386,3.3386,3.3386,3.3386,3.3386,3.3386,3.3386,3.3386,3.3386,3.3386,3.3386,3.3386,3.3386,3.3386,3.3386,0.0,0.0,0.0,0.0,0.0,0.0,0.0,0.0,0.0,0.0,0.0,0.0,0.0,0.0,0.0,3.3386,0.0,0.0,3.3613,3.4062,3.4512,3.4844,3.5371,0.0,0.0,0.0,0.0,3.5982,3.5982,3.5982,3.5982,3.5982,3.5982,3.5982,3.5982,3.5982,3.5982,3.5982,3.5982,3.5982,3.5982,3.5982,3.5982,3.5982,3.5982,3.5982,3.5982,3.6789,3.7921,3.7921,3.8498,3.9497,1.1584,0.0,0.0,1.1584,0.0,0.0,1.271,0.0,0.0,1.6932,1.8903,0.0,2.1562,2.24,2.2893,2.2893,2.2893,0.0,2.2893,0.0,0.0,2.2893,2.2893,2.2893,2.2893,2.2893,0.0,2.2893,0.0,0.0,2.2893,0.0,0.0,0.0,0.0,2.2893,0.0,2.2893,2.3461,2.4486,2.6054,0.0,0.0,3.0983,3.1931,3.1931,3.1931,3.2556,3.3386,3.3386,3.3386,3.3386,3.3386,3.3386,3.3386,3.3386,3.3386,3.3386,3.3386,3.3386,3.3386,3.3386,3.3386,3.3386,3.3386,3.3386,3.3386,0.0,0.0,0.0,0.0,0.0,0.0,0.0,0.0,0.0,0.0,0.0,0.0,0.0,3.3633,0.0,3.3711,3.4316,3.4785,3.498,3.5469,0.0,0.0,0.0,0.0,3.5982,3.5982,3.5982,3.5982,3.5982,3.5982,3.5982,3.5982,3.5982,3.5982,3.5982,3.5982,3.5982,3.5982,3.5982,3.5982,3.5982,3.6437,3.7206,3.7988,3.9021,4.0181,4.0943,4.107,4.1011,0.0,0.0,0.0,0.0,0.0,0.0,0.0,1.4787,0.0,1.7318,0.0,2.0479,2.0479,2.1919,2.2893,2.2893,0.0,2.2893,2.2893,2.2893,2.2893,2.2893,2.2893,2.2893,2.2893,2.2893,0.0,0.0,0.0,0.0,0.0,0.0,0.0,0.0,0.0,0.0,0.0,2.3133,2.3393,2.389,2.7205,2.8689,2.9213,3.2237,3.3386,3.3386,3.3386,3.3386,3.3386,3.3386,3.3386,3.3386,3.3386,3.3386,3.3386,3.3386,3.3386,3.3386,3.3386,3.3386,3.3386,3.3386,3.3386,3.3386,3.3386,3.3386,3.3386,3.3386,3.3386,3.3386,0.0,0.0,0.0,0.0,0.0,0.0,0.0,0.0,0.0,0.0,0.0,0.0,3.4153,3.4473,3.4883,3.5351,0.0,0.0,0.0,0.0,0.0,3.5982,3.5982,3.5982,3.5982,0.0,3.5982,3.5982,3.5982,3.5982,3.5982,3.5982,3.5982,3.5982,3.5982,3.6118,3.6336,3.6336,3.7415,3.921,4.0948,4.1972,4.2662,4.4388,4.4695,4.4328,0.0,0.0,0.0,0.0,0.0,1.4539,1.6404,1.6721,1.7388,1.9356,2.1252,2.24,2.24,2.2688,2.2893,2.2893,2.2893,0.0,0.0,0.0,0.0,2.2893,2.2893,2.2893,2.2893,2.2893,2.2893,0.0,0.0,0.0,0.0,0.0,0.0,0.0,0.0,0.0,2.2996,2.4419,0.0,2.7437,2.954,3.1208,3.2575,3.3165,3.3386,3.3386,3.3386,3.3386,3.3386,3.3386,3.3386,3.3386,3.3386,3.3386,3.3386,3.3386,3.3386,3.3386,3.3386,3.3386,3.3386,3.3386,3.3386,3.3386,3.3386,3.3386,3.3386,3.3386,3.3386,3.3386,3.3386,0.0,0.0,0.0,0.0,0.0,0.0,0.0,0.0,0.0,0.0,0.0,0.0,0.0,0.0,0.0,0.0,0.0,0.0,0.0,0.0,0.0,3.5982,0.0,0.0,0.0,3.5982,3.5982,3.5982,3.5982,3.5982,3.5982,3.5982,3.5982,3.5982,3.6823,3.8154,3.8154,3.9436,4.1558,4.327,4.43,4.5005,4.6707,4.7246,4.7172,0.0,0.0,0.0,0.0,0.0,0.0,0.0,1.8694,0.0,1.9982,2.0894,2.1459,2.1459,2.2332,2.2893,2.2893,2.2893,2.2893,2.2893,2.2893,2.2893,2.2893,2.2893,0.0,2.2893,2.2893,2.2893,2.2893,0.0,0.0,0.0,0.0,0.0,0.0,0.0,2.3393,0.0,0.0,0.0,2.8361,3.0092,3.1304,3.2155,3.3051,3.3386,3.3386,3.3386,3.3574,3.373,3.3464,3.3386,3.3386,3.3386,3.3386,3.3445,3.3691,3.375,3.3809,3.4023,3.4082,3.4082,3.4082,3.4082,3.4082,3.4082,3.4082,3.4082,3.4082,3.4082,3.4082,3.4082,3.4082,0.0,0.0,0.0,0.0,0.0,0.0,0.0,0.0,0.0,0.0,0.0,0.0,0.0,0.0,0.0,3.5982,0.0,0.0,0.0,0.0,0.0,0.0,0.0,0.0,0.0,3.5982,3.5982,3.5982,3.5982,3.5982,3.5982,3.5982,3.5982,3.6471,3.7327,3.847,4.0241,4.2476,4.4191,4.5798,4.7241,4.8051,4.8535,4.8736,0.0,1.218,0.0,0.0,1.5345,0.0,1.9634,2.0444,2.0686,2.0686,2.0686,2.0686,2.0686,2.2022,2.2893,2.2893,2.2893,2.2893,2.2893,2.2893,2.2893,2.2893,2.2893,2.2893,2.2893,2.2893,2.2893,0.0,0.0,0.0,0.0,0.0,0.0,0.0,0.0,0.0,0.0,0.0,2.7454,2.8886,3.0642,3.1423,3.1658,3.3027,3.3613,3.3691,3.3691,3.3906,3.416,3.3809,3.3691,3.3691,3.3691,3.3691,3.3769,3.4134,3.4231,3.431,3.4609,3.4707,3.4707,3.4707,3.4707,3.4707,3.4707,3.4707,3.4707,3.4707,3.4707,3.4707,3.4707,3.4707,0.0,0.0,0.0,0.0,0.0,0.0,0.0,0.0,0.0,0.0,0.0,0.0,0.0,0.0,0.0,3.5982,3.5982,3.5982,3.5982,0.0,0.0,3.5982,3.5982,0.0,3.5982,0.0,3.5982,3.5982,3.5982,3.5982,3.5982,3.6035,3.6113,3.6396,3.7006,3.947,4.1617,4.3491,4.5249,4.7179,4.8969,4.8969,4.9213,4.954,0.0,0.0,0.0,0.0,0.0,0.0,2.0051,2.1527,2.2654,2.2654,2.2654,2.2654,2.2654,2.2791,2.2893,2.2893,2.2893,2.2893,2.2893,2.2893,2.2893,2.2893,2.2893,2.2893,2.2893,2.2893,2.2893,0.0,0.0,0.0,0.0,0.0,0.0,0.0,0.0,0.0,0.0,2.9637,3.0416,3.0707,3.246,3.3429,3.3811,3.3972,3.4238,3.457,3.457,3.4609,3.4629,3.459,3.457,3.457,3.457,3.457,3.459,3.4629,3.4648,3.4648,3.4687,3.4707,3.4707,3.4707,3.4707,3.4707,3.4707,3.4707,3.4707,3.4707,3.4707,3.4707,3.4707,3.4707,3.4844,0.0,0.0,0.0,0.0,0.0,0.0,0.0,0.0,0.0,0.0,3.5923,0.0,0.0,3.5962,3.5982,3.5982,3.5982,3.5982,3.5982,0.0,3.5982,3.5982,3.5982,3.5982,3.5982,3.5982,3.5982,3.5982,3.5982,3.5982,3.6001,3.6445,3.7766,3.9822,4.3241,4.506,4.5859,4.7745,4.8885,4.9515,4.9515,4.9565,4.959,0.0,0.0,0.0,0.0,0.0,0.0,0.0,2.24,2.2893,2.2893,2.2893,2.2893,2.2893,2.2893,2.2893,2.2893,2.2893,2.2893,2.2893,2.2893,2.2893,2.2893,2.2893,2.2893,2.2893,2.2893,2.2893,0.0,0.0,0.0,0.0,0.0,0.0,0.0,0.0,2.6506,2.8312,3.0324,3.1768,3.2859,3.3805,3.4297,3.4453,3.4453,3.4551,3.4707,3.4707,3.4883,3.5117,3.5117,3.4922,3.4707,3.4707,3.4707,3.4746,3.5039,3.5117,3.5176,3.543,3.5488,3.5488,3.5488,3.5488,3.5488,3.5488,3.5488,3.5488,3.5488,3.5488,3.5488,3.5488,3.5488,3.5547,0.0,0.0,0.0,0.0,0.0,0.0,0.0,0.0,0.0,0.0,0.0,0.0,0.0,0.0,3.5982,3.5982,3.5982,0.0,3.5982,0.0,3.5982,3.5982,3.5982,3.5982,3.5982,3.5982,3.5982,3.5982,3.5982,3.6745,3.8071,3.8521,3.9962,4.2085,4.3531,4.505,4.6546,4.7294,4.8435,4.959,4.959,4.959,4.959,1.5875,0.0,1.8659,0.0,2.0928,2.1355,2.2688,2.2893,2.2893,2.2893,2.2893,2.2893,2.2893,2.2893,2.2893,2.2893,2.2893,2.2893,2.2893,2.2893,2.2893,2.2893,2.2893,0.0,2.2893,2.2893,2.2893,2.2893,2.2893,0.0,0.0,0.0,0.0,0.0,2.5922,2.7846,3.02,3.1735,3.3114,3.431,3.459,3.4785,3.4902,3.4902,3.498,3.5098,3.5098,3.5293,3.5586,3.5586,3.5371,3.5098,3.5098,3.5098,3.5156,3.5488,3.5586,3.5644,3.5903,3.5982,3.5982,3.5982,3.5982,3.5982,3.5982,3.5982,3.5982,3.5982,3.5982,3.5982,3.5982,3.5982,3.5982,3.5982,0.0,0.0,0.0,0.0,0.0,0.0,0.0,3.5982,3.5982,3.5982,0.0,0.0,0.0,3.5982,3.5982,0.0,0.0,0.0,0.0,0.0,0.0,3.5982,3.5982,3.5982,3.5982,3.5982,3.6016,3.6711,3.8322,4.0602,4.0945,4.2015,4.3646,4.4187,4.5368,4.6832,4.741,4.8445,4.959,4.959,4.959,4.959,1.9286,2.0051,2.0652,2.2551,2.2859,2.2859,2.2893,2.2893,2.2893,2.2893,2.2893,2.2893,2.2893,2.2893,2.2893,2.2893,2.2893,2.2893,2.2893,2.2893,2.2893,0.0,0.0,2.2893,2.2893,2.2893,2.2893,2.2893,0.0,0.0,2.2893,0.0,2.4984,2.8725,2.8759,3.0952,3.4622,3.4655,3.4655,3.4687,3.4707,3.498,3.5391,3.5391,3.5644,3.5962,3.5962,3.5982,3.5982,3.5982,3.5982,3.5962,3.5962,3.5962,3.5996,3.5982,3.5982,3.5982,3.5982,3.5982,3.5982,3.5982,3.5982,3.5982,3.5982,3.5982,3.5982,3.5982,3.5982,3.5982,3.5982,3.5982,3.5982,3.5982,0.0,0.0,0.0,0.0,0.0,0.0,3.5982,3.5982,3.5982,3.5982,0.0,0.0,0.0,0.0,0.0,0.0,0.0,3.5982,3.5982,0.0,3.5982,3.5982,3.5982,3.5982,3.5982,3.5982,3.6069,3.8328,4.0801,4.3354,4.3354,4.3645,4.4231,4.603,4.6765,4.6965,4.886,4.959,4.959,4.959,4.959,4.959,1.9843,2.1148,2.2194,2.2791,2.2893,2.2893,2.2893,2.2893,2.2893,2.2893,2.2893,2.2893,2.2893,2.2893,2.2893,0.0,2.2893,2.2893,0.0,2.2893,2.2893,2.2893,2.2893,2.2893,2.2893,2.3073,2.318,2.318,0.0,0.0,0.0,2.4833,2.6096,2.7395,2.9919,3.1771,3.3018,3.4522,3.5176,3.5195,3.5488,3.5684,3.582,3.582,3.5898,3.5982,3.5982,3.5982,3.5982,3.5982,3.5982,3.5982,3.5982,3.5982,3.5982,3.5982,3.5982,3.5982,3.5982,3.5982,3.5982,3.5982,3.5982,3.5982,3.5982,3.5982,3.5982,3.5982,3.5982,3.5982,3.5982,3.5982,3.5982,3.5982,3.5982,0.0,0.0,0.0,0.0,0.0,3.5982,3.5982,0.0,3.5982,0.0,0.0,0.0,0.0,0.0,0.0,0.0,0.0,3.5982,0.0,3.5982,3.5982,3.5982,3.5982,3.5982,3.6172,3.6519,3.7798,4.0208,4.341,4.3747,4.5386,4.7863,4.8477,4.8705,4.8763,4.9396,4.959,4.959,4.959,4.959,4.959,2.0859,2.2091,2.2893,2.2893,2.2893,2.2893,2.2893,2.2893,2.2934,2.302,2.3033,2.3108,2.3228,2.3241,0.0,2.3046,2.3033,2.3086,2.3228,2.3241,2.3241,2.3241,2.3241,2.3241,2.3241,0.0,0.0,2.3487,2.371,2.4145,2.4897,2.6049,2.742,2.8986,3.1298,3.2777,3.367,3.5051,3.5625,3.5644,3.5918,3.5982,3.5982,3.5982,3.5982,3.5982,3.5982,3.5982,3.5982,3.5982,3.5982,3.5982,3.5982,3.5982,3.5982,3.5982,3.5982,3.5982,3.5982,3.5982,3.5982,3.5982,3.5982,3.5982,3.5982,3.5982,3.5982,3.5982,3.5982,3.5982,3.5982,3.5982,3.5982,3.5982,3.5982,3.5982,3.5982,0.0,0.0,0.0,0.0,0.0,0.0,3.5982,3.5982,0.0,0.0,0.0,0.0,0.0,0.0,3.5982,3.5982,0.0,3.5982,3.5982,3.5982,3.5982,3.6191,3.73,3.9275,3.9743,4.2067,4.5751,4.6047,4.7467,4.959,4.959,4.959,4.959,4.959,4.959,4.959,4.959,4.959,4.959,2.2194,2.2893,2.2907,0.0,2.2934,0.0,2.296,2.296,2.3067,2.3292,2.3319,2.346,2.3777,2.3803,2.3661,2.3372,0.0,0.0,0.0,2.3803,2.3803,2.3803,2.3803,2.3803,2.3803,2.383,2.3843,2.387,2.387,2.4754,2.6459,2.6738,2.8897,3.2543,3.2816,3.4078,3.5982,3.5982,3.5982,3.5982,3.5982,3.5982,3.5982,3.5982,3.5982,3.5982,3.5982,3.5982,3.5982,3.5982,3.5982,3.5982,3.5982,3.5982,3.5982,3.5982,3.5982,3.5982,3.5982,3.5982,3.5982,3.5982,3.5982,3.5982,3.5982,3.5982,3.5982,3.5982,3.5982,3.5982,3.5982,3.5982,3.5982,3.5982,3.5982,3.5982,3.5982,0.0,0.0,0.0,0.0,0.0,0.0,3.5982,3.5982,0.0,0.0,0.0,0.0,0.0,3.5982,3.5982,3.5982,3.5982,3.5982,3.5982,3.6069,3.6225,3.673,3.9275,4.35,4.3467,4.5642,4.9429,4.9429,4.9493,4.959,4.959,4.959,4.959,4.959,4.959,4.959,4.959,4.959,4.959,0.0,0.0,2.2974,2.318,2.322,2.33,2.3549,2.3589,2.3616,2.3661,2.3661,2.3688,2.3803,2.3803,2.387,2.3981,2.3794,2.3736,2.3803,2.3803,2.3803,2.3803,2.3803,2.3803,2.3803,2.3981,2.4209,2.4399,2.4399,2.4642,2.5125,2.8059,2.9954,3.1004,3.3906,3.5491,3.5982,3.5982,3.5982,3.5982,3.5982,3.5982,3.5982,3.5982,3.5982,3.5982,3.5982,3.5982,3.5982,3.5982,3.5982,3.5982,3.5982,3.5982,3.5982,3.5982,3.5982,3.5982,3.5982,3.5982,3.5982,3.5982,3.5982,3.5982,3.5982,3.5982,3.5982,3.5982,3.5982,3.5982,3.5982,3.5982,3.5982,3.5982,3.5982,3.5982,3.5982,3.5982,0.0,0.0,3.5982,3.5982,3.5982,3.5982,3.5982,0.0,0.0,0.0,0.0,3.5982,3.5982,3.5982,3.5982,3.5982,3.5982,3.5982,3.6867,3.8626,3.9378,4.1031,4.3444,4.3792,4.5206,4.7452,4.7452,4.8281,4.959,4.959,4.959,4.959,4.959,4.959,4.959,4.959,4.959,4.959,2.29,2.3215,2.3362,2.35,2.3527,2.3581,2.3777,2.3803,2.3857,2.3991,2.3968,2.4022,2.4155,2.4168,2.4222,2.4382,2.4142,2.4022,2.4155,2.4168,2.4168,2.4168,2.4168,2.4168,2.4168,2.4329,2.4439,2.4599,2.4599,2.5492,2.7258,2.9313,3.1228,3.3013,3.5089,3.5982,3.5982,3.5982,3.5982,3.5982,3.5982,3.5982,3.5982,3.5982,3.5982,3.5982,3.5982,3.5982,3.5982,3.5982,3.5982,3.5982,3.5982,3.5982,3.5982,3.5982,3.5982,3.5982,3.5982,3.5982,3.5982,3.5982,3.5982,3.5982,3.5982,3.5982,3.5982,3.5982,3.5982,3.5982,3.5982,3.5982,3.5982,3.5982,3.5982,3.5982,3.5982,3.5982,0.0,3.5982,3.5982,3.5982,3.5982,3.5982,3.5982,3.5982,0.0,0.0,3.5982,3.5982,3.5982,3.5982,3.5982,3.6113,3.6309,3.7357,3.8583,4.0022,4.1298,4.2991,4.494,4.5217,4.6355,4.8093,4.8093,4.864,4.959,4.959,4.959,4.959,4.959,4.959,4.959,4.959,4.959,4.959,2.3065,2.3594,2.3817,2.387,2.387,2.3884,2.3888,2.3937,2.3995,2.4235,2.4262,2.4369,2.4572,2.4599,2.4599,2.4599,2.4372,2.4369,2.4586,2.4599,2.4599,2.4599,2.4599,2.4599,2.4599,2.4599,2.4599,2.4599,2.4881,2.6707,2.9884,3.0451,3.2473,3.5587,3.5879,3.5982,3.5982,3.5982,3.5982,3.5982,3.5982,3.5982,3.5982,3.5982,3.5982,3.5982,3.5982,3.5982,3.5982,3.5982,3.5982,3.5982,3.5982,3.5982,3.5982,3.5982,3.5982,3.5982,3.5982,3.5982,3.5982,3.5982,3.5982,3.5982,3.5982,3.5982,3.5982,3.5982,3.5982,3.5982,3.5982,3.5982,3.5982,3.5982,3.5982,3.5982,3.5982,0.0,3.5982,3.5982,3.5982,3.5982,3.5982,3.5982,3.5982,3.5982,3.5982,3.5982,0.0,3.5982,3.6021,3.6113,3.6113,3.6465,3.7188,3.9467,4.0908,4.1534,4.3173,4.5075,4.7221,4.7221,4.8093,4.959,4.959,4.959,4.959,4.959,4.959,4.959,4.959,4.959,4.959,4.959,4.959,4.959,2.3665,2.3777,2.3884,2.4102,2.4142,2.4222,2.4426,2.4466,2.4479,2.4532,2.4532,2.4546,2.4599,2.4599,2.4599,2.4599,2.4559,2.4559,2.4599,2.4599,2.4599,2.4599,2.4599,2.4599,2.4599,2.4599,2.4599,2.4599,2.6247,2.736,2.7996,3.1245,3.3066,3.3709,3.5314,3.5982,3.5982,3.5982,3.5982,3.5982,3.5982,3.5982,3.5982,3.5982,3.5982,3.5982,3.5982,3.5982,3.5982,3.5982,3.5982,3.5982,3.5982,3.5982,3.5982,3.5982,3.5982,3.5982,3.5982,3.5982,3.5982,3.5982,3.5982,3.5982,3.5982,3.5982,3.5982,3.5982,3.5982,3.5982,3.5982,3.5982,3.5982,3.5982,3.5982,3.5982,3.5982,0.0,3.5982,3.5982,3.5982,3.5982,3.5982,3.5982,3.5982,3.5982,3.5982,3.5982,3.5982,3.5982,3.6191,3.6597,3.6597,3.7534,3.9556,4.177,4.3724,4.5347,4.5969,4.7281,4.9177,4.9177,4.9307,4.959,4.959,4.959,4.959,4.959,4.959,4.959,4.959,4.959,4.959,4.959,4.959,4.959,2.4008,2.4128,2.4275,2.4372,2.4436,2.4439,2.4572,2.4599,2.4599,2.4599,2.4599,2.4599,2.4599,2.4599,2.4599,2.4599,2.4599,2.4599,2.4599,2.4599,2.4599,2.4599,2.4599,2.4599,2.4599,2.4599,2.5102,2.6137,2.707,2.8573,3.0626,3.2386,3.3743,3.4727,3.5621,3.5982,3.5982,3.5982,3.5982,3.5982,3.5982,3.5982,3.5982,3.5982,3.5982,3.5982,3.5982,3.5982,3.5982,3.5982,3.5982,3.5982,3.5982,3.5982,3.5982,3.5982,3.5982,3.5982,3.5982,3.5982,3.5982,3.5982,3.5982,3.5982,3.5982,3.5982,3.5982,3.5982,3.5982,3.5982,3.5982,3.5982,3.5982,3.5982,3.5982,0.0,0.0,3.5982,3.5982,3.5982,3.5982,3.5982,3.5982,3.5982,3.5982,3.5982,3.5982,3.6113,3.6348,3.6367,3.6562,3.6992,3.8202,3.9841,4.1859,4.4119,4.5679,4.6532,4.7741,4.8763,4.959,4.959,4.959,4.959,4.959,4.959,4.959,4.959,4.959,4.959,4.959,4.959,4.959,4.959,4.959,4.959,2.4302,2.4452,2.4599,2.4599,2.4599,2.4599,2.4599,2.4599,2.4599,2.4599,2.4599,2.4599,2.4599,2.4599,2.4599,2.4599,2.4599,2.4599,2.4599,2.4599,2.4599,2.4599,2.4599,2.4599,2.4599,2.5028,2.6005,2.7505,2.8393,3.0343,3.3205,3.3674,3.4624,3.5982,3.5982,3.5982,3.5982,3.5982,3.5982,3.5982,3.5982,3.5982,3.5982,3.5982,3.5982,3.5982,3.5982,3.5982,3.5982,3.5982,3.5982,3.5982,3.5982,3.5982,3.5982,3.5982,3.5982,3.5982,3.5982,3.5982,3.5982,3.5982,3.5982,3.5982,3.5982,3.5982,3.5982,3.5982,3.5982,3.5982,3.5982,3.5982,3.5982,3.5982,0.0,0.0,0.0,3.5982,3.5982,3.5982,3.5982,3.5982,3.5982,3.5982,3.6055,3.6152,3.6172,3.6367,3.6832,3.7248,3.8085,3.9336,4.0638,4.2264,4.4175,4.6343,4.7476,4.7476,4.8893,4.959,4.959,4.959,4.959,4.959,4.959,4.959,4.959,4.959,4.959,4.959,4.959,4.959,4.959,4.959,4.959,4.959,2.4572,2.4586,2.4599,2.4599,2.4599,2.4599,2.4599,2.4599,2.4599,2.4599,2.4599,2.4599,2.4599,2.4599,2.4599,2.4599,2.4599,2.4599,2.4599,2.4599,2.4599,2.4599,2.4599,2.4599,2.4599,2.6357,2.736,2.7505,3.1051,3.2927,3.324,3.4986,3.5879,3.5982,3.5982,3.5982,3.5982,3.5982,3.5982,3.5982,3.5982,3.5982,3.5982,3.5982,3.5982,3.5982,3.5982,3.5982,3.5982,3.5982,3.5982,3.5982,3.5982,3.5982,3.5982,3.5982,3.5982,3.5982,3.5982,3.5982,3.5982,3.5982,3.5982,3.5982,3.5982,3.5982,3.5982,3.5982,3.5982,3.5982,3.5982,3.5982,3.5982,3.5982,0.0,0.0,3.5982,3.5982,3.5982,3.5982,3.5982,3.5982,3.5982,3.5982,3.6191,3.6636,3.6656,3.6851,3.7226,3.8895,4.1608,4.5442,4.4061,4.4345,4.6528,4.8453,4.9371,4.9396,4.9525,4.959,4.959,4.959,4.959,4.959,4.959,4.959,4.959,4.959,4.959,4.959,4.959,4.959,4.959,4.959,4.959,4.959,2.4599,2.4599,2.4599,2.4599,2.4599,2.4599,2.4599,2.4599,2.4599,2.4599,2.4599,2.4599,2.4599,2.4599,2.4599,2.4599,2.4599,2.4599,2.4599,2.4599,2.4599,2.4599,2.4599,2.5175,2.6357,2.7106,2.868,3.1051,3.249,3.3812,3.4952,3.5655,3.5982,3.5982,3.5982,3.5982,3.5982,3.5982,3.5982,3.5982,3.5982,3.5982,3.5982,3.5982,3.5982,3.5982,3.5982,3.5982,3.5982,3.5982,3.5982,3.5982,3.5982,3.5982,3.5982,3.5982,3.5982,3.5982,3.5982,3.5982,3.5982,3.5982,3.5982,3.5982,3.5982,3.5982,3.5982,3.5982,3.5982,3.5982,3.5982,3.5982,3.5982,3.5982,0.0,3.5982,3.5982,3.5982,3.5982,3.5982,3.625,3.6426,3.6426,3.666,3.6875,3.7051,3.7051,3.7246,3.7656,3.9681,4.2598,4.6447,4.5916,4.6532,4.851,4.9242,4.959,4.959,4.959,4.959,4.959,4.959,4.959,4.959,4.959,4.959,4.959,4.959,4.959,4.959,4.959,4.959,4.959,4.959,4.959,4.959,2.4599,2.4599,2.4599,2.4599,2.4599,2.4599,2.4599,2.4599,2.4599,2.4599,2.4599,2.4599,2.4599,2.4599,2.4599,2.4599,2.4599,2.4599,2.4599,2.4599,2.4599,2.4599,2.5175,2.5859,2.6575,2.8357,3.0272,3.2281,3.3482,3.4746,3.5982,3.5982,3.5982,3.5982,3.5982,3.5982,3.5982,3.5982,3.5982,3.5982,3.5982,3.5982,3.5982,3.5982,3.5982,3.5982,3.5982,3.5982,3.5982,3.5982,3.5982,3.5982,3.5982,3.5982,3.5982,3.5982,3.5982,3.5982,3.5982,3.5982,3.5982,3.5982,3.5982,3.5982,3.5982,3.5982,3.5982,3.5982,3.5982,3.5982,3.5982,3.5982,3.5982,3.5982,3.5982,3.604,3.6211,3.623,3.6269,3.6406,3.668,3.691,3.691,3.7129,3.7344,3.748,3.75,3.8188,3.9759,4.1874,4.4448,4.7575,4.7674,4.8289,4.959,4.959,4.959,4.959,4.959,4.959,4.959,4.959,4.959,4.959,4.959,4.959,4.959,4.959,4.959,4.959,4.959,4.959,4.959,4.959,4.959,4.959,2.4599,2.4599,2.4599,2.4599,2.4599,2.4599,2.4599,2.4599,2.4599,2.4599,2.4599,2.4599,2.4599,2.4599,2.4599,2.4599,2.4599,2.4599,2.4599,2.4599,2.4599,2.4599,2.6466,2.6575,2.471,3.0255,3.2246,3.0345,3.4123,3.5982,3.5982,3.5982,3.5982,3.5982,3.5982,3.5982,3.5982,3.5982,3.5982,3.5982,3.5982,3.5982,3.5982,3.5982,3.5982,3.5982,3.5982,3.5982,3.5982,3.5982,3.5982,3.5982,3.5982,3.5982,3.5982,3.5982,3.5982,3.5982,3.5982,3.5982,3.5982,3.5982,3.5982,3.5982,3.5982,3.5982,3.5982,3.5982,3.5982,3.5982,3.5982,3.5982,3.6035,3.6035,3.6035,3.6172,3.6656,3.6714,3.6871,3.7246,3.7305,3.7305,3.7305,3.7305,3.748,3.7891,3.793,3.9723,4.3899,4.5828,4.7674,4.9525,4.959,4.959,4.959,4.959,4.959,4.959,4.959,4.959,4.959,4.959,4.959,4.959,4.959,4.959,4.959,4.959,4.959,4.959,4.959,4.959,4.959,4.959,4.959,4.959,2.4599,2.4599,2.4599,2.4599,2.4599,2.4599,2.4599,2.4599,2.4599,2.4599,2.4599,2.4599,2.4599,2.4599,2.4599,2.4599,2.4599,2.4599,2.4599,2.4599,2.4599,2.4599,2.5175,2.6452,2.8541,3.0274,3.2193,3.4296,3.5451,3.5982,3.5982,3.5982,3.5982,3.5982,3.5982,3.5982,3.5982,3.5982,3.5982,3.5982,3.5982,3.5982,3.5982,3.5982,3.5982,3.5982,3.5982,3.5982,3.5982,3.5982,3.5982,3.5982,3.5982,3.5982,3.5982,3.5982,3.5982,3.5982,3.5982,3.5982,3.5982,3.5982,3.5982,3.5982,3.5982,3.5982,3.5982,3.5982,3.5982,3.5982,3.5982,3.6269,3.6484,3.6484,3.6719,3.6953,3.709,3.7109,3.7148,3.7285,3.7559,3.7734,3.7734,3.8008,3.8242,3.8379,3.958,4.1965,4.5771,4.6498,4.7674,4.9525,4.959,4.959,4.959,4.959,4.959,4.959,4.959,4.959,4.959,4.959,4.959,4.959,4.959,4.959,4.959,4.959,4.959,4.959,4.959,4.959,4.959,4.959,4.959,4.959,2.4599,2.4599,2.4599,2.4599,2.4599,2.4599,2.4599,2.4599,2.4599,2.4599,2.4599,2.4599,2.4599,2.4599,2.4599,2.4599,2.4599,2.4599,2.4599,2.4599,2.4599,2.4599,2.5359,2.6816,2.9151,3.0664,3.2595,3.4883,3.5621,3.5982,3.5982,3.5982,3.5982,3.5982,3.5982,3.5982,3.5982,3.5982,3.5982,3.5982,3.5982,3.5982,3.5982,3.5982,3.5982,3.5982,3.5982,3.5982,3.5982,3.5982,3.5982,3.5982,3.5982,3.5982,3.5982,3.5982,3.5982,3.5982,3.5982,3.5982,3.5982,3.5982,3.5982,3.5982,3.5982,3.5982,3.5982,3.5982,3.6152,3.6289,3.6289,3.6621,3.6949,3.6949,3.7129,3.7363,3.7519,3.7539,3.7617,3.7793,3.8027,3.8184,3.8184,3.8418,3.8882,3.9622,4.1382,4.3715,4.6632,4.7509,4.8445,4.9558,4.959,4.959,4.959,4.959,4.959,4.959,4.959,4.959,4.959,4.959,4.959,4.959,4.959,4.959,4.959,4.959,4.959,4.959,4.959,4.959,4.959,4.959,4.959,4.959,2.4599,2.4599,2.4599,2.4599,2.4599,2.4599,2.4599,2.4599,2.4599,2.4599,2.4599,2.4599,2.4599,2.4599,2.4599,2.4599,2.4599,2.4599,2.4599,2.4747,2.4844,2.4844,2.6707,2.7816,2.7996,3.1438,3.3274,3.3448,3.5158,3.5982,3.5982,3.5982,3.5982,3.5982,3.5982,3.5982,3.5982,3.5982,3.5982,3.5982,3.5982,3.5982,3.5982,3.5982,3.5982,3.5982,3.5982,3.5982,3.5982,3.5982,3.5982,3.5982,3.5982,3.5982,3.5982,3.5982,3.5982,3.5982,3.5982,3.5982,3.6001,3.604,3.604,3.604,3.6001,3.6021,3.604,3.604,3.6426,3.6753,3.6753,3.707,3.7344,3.7344,3.7383,3.7539,3.793,3.7952,3.8125,3.8571,3.8611,3.8611,3.8611,3.8611,3.9405,4.1397,4.3149,4.4948,4.6955,4.8673,4.959,4.959,4.959,4.959,4.959,4.959,4.959,4.959,4.959,4.959,4.959,4.959,4.959,4.959,4.959,4.959,4.959,4.959,4.959,4.959,4.959,4.959,4.959,4.959,4.959,4.959,2.4599,2.4599,2.4599,2.4599,2.4599,2.4599,2.4599,2.4599,2.4599,2.4599,2.4599,2.4599,2.4599,2.4599,2.4599,2.4599,2.4599,2.4599,2.4599,2.6042,2.6852,2.6852,2.8701,3.0432,3.193,3.2787,3.3916,3.5382,3.5811,3.5982,3.5982,3.5982,3.5982,3.5982,3.5982,3.5982,3.5982,3.5982,3.5982,3.5982,3.5982,3.5982,3.5982,3.5982,3.5982,3.5982,3.5982,3.5982,3.5982,3.5982,3.5982,3.5982,3.5982,3.5982,3.5982,3.5982,3.5982,3.5982,3.5982,3.5982,3.6094,3.6445,3.6558,3.6445,3.6094,3.6289,3.6558,3.6558,3.6875,3.7168,3.7168,3.75,3.7793,3.7793,3.8086,3.8376,3.8418,3.8437,3.8513,3.8591,3.8611,3.8611,3.8611,3.8611,3.9962,4.3253,4.3875,4.5548,4.8828,4.9396,4.959,4.959,4.959,4.959,4.959,4.959,4.959,4.959,4.959,4.959,4.959,4.959,4.959,4.959,4.959,4.959,4.959,4.959,4.959,4.959,4.959,4.959,4.959,4.959,4.959,4.959,2.4599,2.4599,2.4599,2.4599,2.4599,2.4599,2.4599,2.4599,2.4599,2.4599,2.4599,2.4599,2.4599,2.4599,2.4599,2.4599,2.4599,2.4991,2.5932,2.6925,2.7888,2.8808,3.068,3.2176,3.317,3.4089,3.5021,3.5982,3.5982,3.5982,3.5982,3.5982,3.5982,3.5982,3.5982,3.5982,3.5982,3.5982,3.5982,3.5982,3.5982,3.5982,3.5982,3.5982,3.5982,3.5982,3.5982,3.5982,3.5982,3.5982,3.5982,3.5982,3.5982,3.5982,3.5982,3.5982,3.5982,3.604,3.6269,3.6328,3.6426,3.6855,3.7007,3.6914,3.668,3.6816,3.7007,3.7007,3.7305,3.7598,3.7598,3.7949,3.8223,3.8223,3.8418,3.8611,3.8611,3.8611,3.8611,3.8611,3.8611,3.8611,3.8611,3.8611,4.0141,4.3841,4.4116,4.5716,4.9396,4.959,4.959,4.959,4.959,4.959,4.959,4.959,4.959,4.959,4.959,4.959,4.959,4.959,4.959,4.959,4.959,4.959,4.959,4.959,4.959,4.959,4.959,4.959,4.959,4.959,4.959,4.959,2.4599,2.4599,2.4599,2.4599,2.4599,2.4599,2.4599,2.4599,2.4599,2.4599,2.4599,2.4599,2.4599,2.4599,2.4599,2.4599,2.4881,2.5786,2.7397,2.8105,2.9167,3.0734,3.2665,3.3674,3.3674,3.5192,3.5982,3.5982,3.5982,3.5982,3.5982,3.5982,3.5982,3.5982,3.5982,3.5982,3.5982,3.5982,3.5982,3.5982,3.5982,3.5982,3.5982,3.5982,3.5982,3.5982,3.5982,3.5982,3.5982,3.5982,3.5982,3.5982,3.5982,3.6074,3.6133,3.6133,3.6191,3.6309,3.6714,3.6812,3.691,3.7305,3.7402,3.7422,3.75,3.7461,3.7402,3.7402,3.7734,3.8027,3.8027,3.834,3.8611,3.8611,3.8611,3.8611,3.8611,3.8611,3.8611,3.8611,3.8611,3.8611,3.8611,3.8611,4.0141,4.3841,4.4116,4.5716,4.9396,4.959,4.959,4.959,4.959,4.959,4.959,4.959,4.959,4.959,4.959,4.959,4.959,4.959,4.959,4.959,4.959,4.959,4.959,4.959,4.959,4.959,4.959,4.959,4.959,4.959,4.959,4.959,2.4599,2.4599,2.4599,2.4599,2.4599,2.4599,2.4599,2.4599,2.4599,2.4599,2.4599,2.4599,2.4599,2.4599,2.4599,2.4599,2.6137,2.7215,2.7469,3.0574,3.2525,3.2804,3.4624,3.5621,3.5621,3.5879,3.5982,3.5982,3.5982,3.5982,3.5982,3.5982,3.5982,3.5982,3.5982,3.5982,3.5982,3.5982,3.5982,3.5982,3.5982,3.5982,3.5982,3.5982,3.5982,3.5982,3.5982,3.5982,3.5982,3.5982,3.5982,3.5982,3.5982,3.6289,3.6616,3.6616,3.6836,3.7129,3.7187,3.7207,3.7324,3.7734,3.7796,3.7949,3.832,3.8105,3.7796,3.7796,3.8184,3.8532,3.8532,3.8571,3.8611,3.8611,3.8611,3.8611,3.8611,3.8611,3.8611,3.8611,3.8611,3.8611,3.8611,3.8611,4.0141,4.3841,4.4116,4.5716,4.9396,4.959,4.959,4.959,4.959,4.959,4.959,4.959,4.959,4.959,4.959,4.959,4.959,4.959,4.959,4.959,4.959,4.959,4.959,4.959,4.959,4.959,4.959,4.959,4.959,4.959,4.959,4.959,2.4599,2.4599,2.4599,2.4599,2.4599,2.4599,2.4599,2.4599,2.4599,2.4599,2.4599,2.4599,2.4599,2.4599,2.5028,2.6152,2.6997,2.8429,3.0555,3.2246,3.3674,3.4746,3.5553,3.5982,3.5982,3.5982,3.5982,3.5982,3.5982,3.5982,3.5982,3.5982,3.5982,3.5982,3.5982,3.5982,3.5982,3.5982,3.5982,3.5982,3.5982,3.5982,3.5982,3.5982,3.5982,3.5982,3.5982,3.5982,3.6055,3.6309,3.6387,3.6426,3.666,3.6875,3.7047,3.7047,3.7148,3.7344,3.7578,3.7656,3.7754,3.8184,3.8281,3.834,3.8535,3.8418,3.8281,3.8281,3.8474,3.8611,3.8611,3.8611,3.8611,3.8611,3.8611,3.8611,3.8611,3.8611,3.8611,3.8611,3.8611,3.8611,3.8611,3.9514,4.1205,4.391,4.505,4.6756,4.9461,4.959,4.959,4.959,4.959,4.959,4.959,4.959,4.959,4.959,4.959,4.959,4.959,4.959,4.959,4.959,4.959,4.959,4.959,4.959,4.959,4.959,4.959,4.959,4.959,4.959,4.959,4.959]},{"header":{"parameterUnit":"m.s-1","parameterCategory":1,"la1":30.6,"la2":28.766,"lo1":-90.7593,"lo2":-88.6598,"dy":0.0162,"dx":0.0183,"nx":116,"ny":114,"refTime":"2023-04-11T18:00:00:Z","depth":0,"parameterNumber":3,"parameterNumberName":"V-component_of_WINDS"},"data":[0.0,0.0,0.0,0.0,0.0,0.0,0.0,0.0,0.0,0.0,0.0,0.0,0.0,0.0,0.0,0.0,0.0,0.0,0.0,0.0,0.0,0.0,0.0,0.0,0.0,0.0,0.0,0.0,0.0,0.0,0.0,0.0,0.0,0.0,0.0,0.0,0.0,0.0,0.0,0.0,0.0,0.0,0.0,0.0,0.0,0.0,0.0,0.0,0.0,0.0,0.0,0.0,0.0,0.0,0.0,0.0,0.0,0.0,0.0,0.0,0.0,0.0,0.0,0.0,0.0,0.0,0.0,0.0,0.0,0.0,0.0,0.0,0.0,0.0,0.0,0.0,0.0,0.0,0.0,0.0,0.0,0.0,0.0,0.0,0.0,0.0,0.0,0.0,0.0,0.0,0.0,0.0,0.0,0.0,0.0,0.0,0.0,0.0,0.0,0.0,0.0,0.0,0.0,0.0,0.0,0.0,0.0,0.0,0.0,0.0,0.0,0.0,0.0,0.0,0.0,0.0,0.0,0.0,0.0,0.0,0.0,0.0,0.0,0.0,0.0,0.0,0.0,0.0,0.0,0.0,0.0,0.0,0.0,0.0,0.0,0.0,0.0,0.0,0.0,0.0,0.0,0.0,0.0,0.0,0.0,0.0,0.0,0.0,0.0,0.0,0.0,0.0,0.0,0.0,0.0,0.0,0.0,0.0,0.0,0.0,0.0,0.0,0.0,0.0,0.0,0.0,0.0,0.0,0.0,0.0,0.0,0.0,0.0,0.0,0.0,0.0,0.0,0.0,0.0,0.0,0.0,0.0,0.0,0.0,0.0,0.0,0.0,0.0,0.0,0.0,0.0,0.0,0.0,0.0,0.0,0.0,0.0,0.0,0.0,0.0,0.0,0.0,0.0,0.0,0.0,0.0,0.0,0.0,0.0,0.0,0.0,0.0,0.0,0.0,0.0,0.0,0.0,0.0,0.0,0.0,0.0,0.0,0.0,0.0,0.0,0.0,0.0,0.0,0.0,0.0,0.0,0.0,0.0,0.0,0.0,0.0,0.0,0.0,0.0,0.0,0.0,0.0,0.0,0.0,0.0,0.0,0.0,0.0,0.0,0.0,0.0,0.0,0.0,0.0,0.0,0.0,0.0,0.0,0.0,0.0,0.0,0.0,0.0,0.0,0.0,0.0,0.0,0.0,0.0,0.0,0.0,0.0,0.0,0.0,0.0,0.0,0.0,0.0,0.0,0.0,0.0,0.0,0.0,0.0,0.0,0.0,0.0,0.0,0.0,0.0,0.0,0.0,0.0,0.0,0.0,0.0,0.0,0.0,0.0,0.0,0.0,0.0,0.0,0.0,0.0,0.0,0.0,0.0,0.0,0.0,0.0,0.0,0.0,0.0,0.0,0.0,0.0,0.0,0.0,0.0,0.0,0.0,0.0,0.0,0.0,0.0,0.0,0.0,0.0,0.0,0.0,0.0,0.0,0.0,0.0,0.0,0.0,0.0,0.0,0.0,0.0,0.0,0.0,0.0,0.0,0.0,0.0,0.0,0.0,0.0,0.0,0.0,0.0,0.0,0.0,0.0,0.0,0.0,0.0,0.0,0.0,0.0,0.0,0.0,0.0,0.0,0.0,0.0,0.0,0.0,0.0,0.0,0.0,0.0,0.0,0.0,0.0,0.0,0.0,0.0,0.0,0.0,0.0,0.0,0.0,0.0,0.0,0.0,0.0,0.0,0.0,0.0,0.0,0.0,0.0,0.0,0.0,0.0,0.0,0.0,0.0,0.0,0.0,0.0,0.0,0.0,0.0,0.0,0.0,0.0,0.0,0.0,0.0,0.0,0.0,0.0,0.0,0.0,0.0,0.0,0.0,0.0,0.0,0.0,0.0,0.0,0.0,0.0,0.0,0.0,0.0,0.0,0.0,0.0,0.0,0.0,0.0,0.0,0.0,0.0,0.0,0.0,0.0,0.0,0.0,0.0,0.0,0.0,0.0,0.0,0.0,0.0,0.0,0.0,0.0,0.0,0.0,0.0,0.0,0.0,0.0,0.0,0.0,0.0,0.0,0.0,0.0,0.0,0.0,0.0,0.0,0.0,0.0,0.0,0.0,0.0,0.0,0.0,0.0,0.0,0.0,0.0,0.0,0.0,0.0,0.0,0.0,0.0,0.0,0.0,0.0,0.0,0.0,0.0,0.0,0.0,0.0,0.0,0.0,0.0,0.0,0.0,0.0,0.0,0.0,0.0,0.0,0.0,0.0,0.0,0.0,0.0,0.0,0.0,0.0,0.0,0.0,0.0,0.0,0.0,0.0,0.0,0.0,0.0,0.0,0.0,0.0,0.0,0.0,0.0,0.0,0.0,0.0,0.0,0.0,0.0,0.0,0.0,0.0,0.0,0.0,0.0,0.0,0.0,0.0,0.0,0.0,0.0,0.0,0.0,0.0,0.0,0.0,0.0,0.0,0.0,0.0,0.0,0.0,0.0,0.0,0.0,0.0,0.0,0.0,0.0,0.0,0.0,0.0,0.0,0.0,0.0,0.0,0.0,0.0,0.0,0.0,0.0,0.0,0.0,0.0,0.0,0.0,0.0,0.0,0.0,0.0,0.0,0.0,0.0,0.0,0.0,0.0,0.0,0.0,0.0,0.0,0.0,0.0,0.0,0.0,0.0,0.0,0.0,0.0,0.0,0.0,0.0,0.0,0.0,0.0,0.0,0.0,0.0,0.0,0.0,0.0,0.0,0.0,0.0,0.0,0.0,0.0,0.0,0.0,0.0,0.0,0.0,0.0,0.0,0.0,0.0,0.0,0.0,0.0,0.0,0.0,0.0,0.0,0.0,0.0,0.0,0.0,0.0,0.0,0.0,0.0,0.0,0.0,0.0,0.0,0.0,0.0,0.0,0.0,0.0,0.0,0.0,0.0,0.0,0.0,0.0,0.0,0.0,0.0,0.0,0.0,0.0,0.0,0.0,0.0,0.0,0.0,0.0,0.0,0.0,0.0,0.0,0.0,0.0,0.0,0.0,0.0,0.0,0.0,0.0,0.0,0.0,0.0,0.0,0.0,0.0,0.0,0.0,0.0,0.0,0.0,0.0,0.0,0.0,0.0,0.0,0.0,0.0,0.0,0.0,0.0,0.0,0.0,0.0,0.0,0.0,0.0,0.0,0.0,0.0,0.0,0.0,0.0,0.0,0.0,0.0,0.0,0.0,0.0,0.0,0.0,0.0,0.0,0.0,0.0,0.0,0.0,0.0,0.0,0.0,0.0,0.0,0.0,0.0,0.0,0.0,0.0,0.0,0.0,0.0,0.0,0.0,0.0,0.0,0.0,0.0,0.0,0.0,0.0,0.0,0.0,0.0,0.0,0.0,0.0,0.0,0.0,0.0,0.0,0.0,0.0,0.0,0.0,0.0,0.0,0.0,0.0,0.0,0.0,0.0,0.0,0.0,0.0,0.0,0.0,0.0,0.0,0.0,0.0,0.0,0.0,0.0,0.0,0.0,0.0,0.0,0.0,0.0,0.0,0.0,0.0,0.0,0.0,0.0,0.0,0.0,0.0,0.0,0.0,0.0,0.0,0.0,0.0,0.0,0.0,0.0,0.0,0.0,0.0,0.0,0.0,0.0,0.0,0.0,0.0,0.0,0.0,0.0,0.0,0.0,0.0,0.0,0.0,0.0,0.0,0.0,0.0,0.0,0.0,0.0,0.0,0.0,0.0,0.0,0.0,0.0,0.0,0.0,0.0,0.0,0.0,0.0,0.0,0.0,0.0,0.0,0.0,0.0,0.0,0.0,0.0,0.0,0.0,0.0,0.0,0.0,0.0,0.0,0.0,0.0,0.0,0.0,0.0,0.0,0.0,0.0,0.0,0.0,0.0,0.0,0.0,0.0,0.0,0.0,0.0,0.0,0.0,0.0,0.0,0.0,0.0,0.0,0.0,0.0,0.0,0.0,0.0,0.0,0.0,0.0,0.0,0.0,0.0,0.0,0.0,0.0,0.0,0.0,0.0,0.0,0.0,0.0,0.0,0.0,0.0,0.0,0.0,0.0,0.0,0.0,0.0,0.0,0.0,0.0,0.0,0.0,0.0,0.0,0.0,0.0,0.0,0.0,0.0,0.0,0.0,0.0,0.0,0.0,0.0,0.0,0.0,0.0,0.0,0.0,0.0,0.0,0.0,0.0,0.0,0.0,0.0,0.0,0.0,0.0,0.0,0.0,0.0,0.0,0.0,0.0,0.0,0.0,0.0,0.0,0.0,0.0,0.0,0.0,0.0,0.0,0.0,0.0,0.0,0.0,0.0,0.0,0.0,0.0,0.0,0.0,0.0,0.0,0.0,0.0,0.0,0.0,0.0,0.0,0.0,0.0,0.0,0.0,0.0,0.0,0.0,0.0,0.0,0.0,0.0,0.0,0.0,0.0,0.0,0.0,0.0,0.0,0.0,0.0,0.0,0.0,0.0,0.0,0.0,0.0,0.0,0.0,0.0,0.0,0.0,0.0,0.0,0.0,0.0,0.0,0.0,0.0,0.0,0.0,0.0,0.0,0.0,0.0,0.0,0.0,0.0,0.0,0.0,0.0,0.0,0.0,0.0,0.0,0.0,0.0,0.0,0.0,0.0,0.0,0.0,0.0,0.0,0.0,0.0,0.0,0.0,0.0,0.0,0.0,0.0,0.0,0.0,0.0,0.0,0.0,0.0,0.0,0.0,0.0,0.0,0.0,0.0,0.0,0.0,0.0,0.0,0.0,0.0,0.0,0.0,0.0,0.0,0.0,0.0,0.0,0.0,0.0,0.0,0.0,0.0,0.0,0.0,0.0,0.0,0.0,0.0,0.0,0.0,0.0,0.0,0.0,0.0,0.0,0.0,0.0,0.0,0.0,0.0,0.0,0.0,0.0,0.0,0.0,0.0,0.0,0.0,0.0,0.0,0.0,0.0,0.0,0.0,0.0,0.0,0.0,0.0,0.0,0.0,0.0,0.0,0.0,0.0,0.0,0.0,0.0,0.0,0.0,0.0,0.0,0.0,0.0,0.0,0.0,0.0,0.0,0.0,0.0,0.0,0.0,0.0,0.0,0.0,0.0,0.0,0.0,0.0,0.0,0.0,0.0,0.0,0.0,0.0,0.0,0.0,0.0,0.0,0.0,0.0,0.0,0.0,0.0,0.0,0.0,0.0,0.0,0.0,0.0,0.0,0.0,0.0,0.0,0.0,0.0,0.0,0.0,0.0,0.0,0.0,0.0,0.0,0.0,0.0,0.0,0.0,0.0,0.0,0.0,0.0,0.0,0.0,0.0,0.0,0.0,0.0,0.0,0.0,0.0,0.0,0.0,0.0,0.0,0.0,0.0,0.0,0.0,0.0,0.0,0.0,0.0,0.0,0.0,0.0,0.0,0.0,0.0,0.0,0.0,0.0,0.0,0.0,0.0,0.0,0.0,0.0,0.0,0.0,0.0,0.0,0.0,0.0,0.0,0.0,0.0,0.0,0.0,0.0,0.0,0.0,0.0,0.0,0.0,0.0,0.0,0.0,0.0,0.0,0.0,0.0,0.0,0.0,0.0,0.0,0.0,0.0,0.0,0.0,0.0,0.0,0.0,0.0,0.0,0.0,0.0,0.0,0.0,0.0,0.0,0.0,0.0,0.0,0.0,0.0,0.0,0.0,0.0,0.0,0.0,0.0,0.0,0.0,0.0,0.0,0.0,0.0,0.0,0.0,0.0,0.0,0.0,0.0,0.0,0.0,0.0,0.0,0.0,0.0,0.0,0.0,0.0,0.0,0.0,0.0,0.0,0.0,0.0,0.0,0.0,0.0,0.0,0.0,0.0,0.0,0.0,0.0,0.0,0.0,0.0,0.0,0.0,0.0,0.0,0.0,0.0,0.0,0.0,0.0,0.0,0.0,0.0,0.0,0.0,0.0,0.0,0.0,0.0,0.0,0.0,0.0,0.0,0.0,0.0,0.0,0.0,0.0,0.0,0.0,0.0,0.0,0.0,0.0,0.0,0.0,0.0,0.0,0.0,0.0,0.0,0.0,0.0,0.0,0.0,0.0,0.0,0.0,0.0,0.0,0.0,0.0,0.0,0.0,0.0,0.0,0.0,0.0,0.0,4.8439,0.0,0.0,0.0,0.0,0.0,0.0,0.0,0.0,0.0,0.0,0.0,0.0,0.0,0.0,0.0,0.0,0.0,0.0,0.0,0.0,0.0,0.0,0.0,0.0,0.0,0.0,0.0,0.0,0.0,0.0,0.0,0.0,0.0,0.0,0.0,0.0,0.0,4.5218,4.5218,4.5218,4.5218,4.5218,4.5218,4.4993,4.4592,0.0,0.0,0.0,0.0,0.0,0.0,0.0,0.0,0.0,0.0,0.0,0.0,0.0,0.0,0.0,0.0,0.0,0.0,0.0,0.0,0.0,0.0,0.0,0.0,0.0,0.0,0.0,0.0,0.0,0.0,0.0,0.0,0.0,0.0,0.0,0.0,0.0,0.0,0.0,0.0,0.0,0.0,0.0,0.0,0.0,0.0,0.0,0.0,0.0,0.0,0.0,0.0,0.0,0.0,0.0,0.0,0.0,0.0,0.0,0.0,0.0,0.0,0.0,0.0,0.0,0.0,0.0,0.0,0.0,0.0,0.0,4.8328,0.0,0.0,0.0,0.0,0.0,0.0,0.0,0.0,0.0,0.0,0.0,0.0,0.0,0.0,0.0,0.0,0.0,0.0,0.0,0.0,0.0,0.0,0.0,4.5594,4.5594,4.5594,4.5629,4.553,4.524,4.5346,4.5274,4.4921,4.5275,4.5469,4.5469,4.575,4.5882,4.5882,4.5882,4.5882,4.5882,4.5882,4.5539,4.4834,4.4761,0.0,0.0,0.0,0.0,0.0,0.0,0.0,0.0,0.0,0.0,0.0,0.0,0.0,0.0,0.0,0.0,0.0,0.0,0.0,0.0,0.0,0.0,0.0,0.0,0.0,0.0,0.0,0.0,0.0,0.0,0.0,0.0,0.0,0.0,0.0,0.0,0.0,0.0,0.0,0.0,0.0,0.0,0.0,0.0,0.0,0.0,0.0,0.0,0.0,0.0,0.0,0.0,0.0,0.0,0.0,0.0,0.0,0.0,0.0,0.0,0.0,0.0,0.0,5.0707,5.0707,5.0707,5.0624,5.0396,5.0024,4.8953,4.8477,4.843,4.8761,0.0,0.0,0.0,0.0,0.0,0.0,0.0,0.0,0.0,0.0,0.0,0.0,0.0,0.0,0.0,0.0,0.0,0.0,0.0,0.0,0.0,4.5594,4.5594,4.5594,4.5727,4.5736,4.5708,4.5792,4.5784,4.5727,4.5799,4.5818,4.5818,4.5873,4.5882,4.5882,4.5882,4.5882,4.5882,4.5882,4.5847,4.5728,4.5366,4.5222,4.5194,0.0,0.0,0.0,0.0,0.0,0.0,0.0,0.0,0.0,0.0,0.0,0.0,0.0,0.0,0.0,0.0,0.0,0.0,0.0,0.0,0.0,0.0,0.0,0.0,0.0,0.0,0.0,0.0,0.0,0.0,0.0,0.0,0.0,0.0,0.0,0.0,0.0,0.0,0.0,0.0,0.0,5.0949,5.105,0.0,0.0,0.0,0.0,0.0,0.0,0.0,0.0,0.0,0.0,0.0,0.0,0.0,5.1129,5.1039,5.0935,5.0837,5.0707,5.0707,5.0707,5.0702,5.0336,5.0153,5.0055,4.9561,0.0,4.8839,4.8898,0.0,0.0,0.0,0.0,0.0,0.0,0.0,0.0,0.0,0.0,0.0,0.0,0.0,0.0,0.0,0.0,0.0,0.0,0.0,0.0,0.0,4.5594,4.5594,4.5594,4.5644,4.5707,4.5812,4.5849,4.5948,4.6001,4.6082,4.6138,4.6138,4.6138,4.6138,4.6138,4.6138,4.6138,4.6138,4.6138,4.6138,4.6096,4.5862,4.5698,4.5606,4.5407,0.0,0.0,0.0,0.0,0.0,0.0,0.0,0.0,0.0,0.0,0.0,0.0,0.0,0.0,0.0,0.0,0.0,0.0,0.0,0.0,0.0,0.0,0.0,0.0,0.0,0.0,0.0,0.0,0.0,0.0,0.0,0.0,0.0,0.0,0.0,0.0,0.0,0.0,0.0,5.1133,5.1163,5.1151,5.1198,5.1208,0.0,0.0,0.0,0.0,0.0,0.0,0.0,0.0,0.0,5.1275,5.1216,5.1166,5.1091,5.0979,5.0883,5.079,5.074,5.0707,5.0707,5.0509,5.0451,5.0446,5.0235,4.9949,4.9575,4.9575,4.9445,4.928,0.0,0.0,0.0,0.0,4.9147,4.8541,0.0,0.0,0.0,0.0,0.0,0.0,0.0,0.0,0.0,0.0,0.0,0.0,4.564,4.5629,4.5594,4.5594,4.5657,4.5705,4.5837,4.5927,4.6063,4.6146,4.6247,4.6289,4.6289,4.6289,4.6289,4.6289,4.6289,4.6289,4.6289,4.6289,4.6289,4.6289,4.6199,4.6078,4.5959,4.5892,4.5867,0.0,0.0,0.0,0.0,0.0,0.0,0.0,0.0,0.0,0.0,0.0,0.0,0.0,0.0,0.0,0.0,0.0,0.0,0.0,0.0,0.0,0.0,0.0,0.0,0.0,0.0,0.0,0.0,0.0,0.0,0.0,0.0,0.0,0.0,0.0,0.0,0.0,0.0,5.1273,5.1321,5.1187,5.121,5.1258,0.0,0.0,0.0,0.0,0.0,0.0,5.1406,5.1366,5.1328,5.1264,5.121,5.1177,5.1139,5.1005,5.0935,5.0889,5.0808,5.073,5.0707,5.0707,5.0707,5.0707,5.0707,5.0514,5.0268,5.0147,4.9924,4.97,5.0319,5.0049,4.9431,4.9924,4.9467,4.864,0.0,0.0,0.0,0.0,0.0,0.0,0.0,0.0,0.0,0.0,0.0,4.5806,4.5806,4.568,4.5594,4.5594,4.5783,4.5905,4.587,4.6142,4.6289,4.6289,4.6289,4.6289,4.6289,4.6289,4.6289,4.6289,4.6289,4.6289,4.6289,4.6289,4.6289,4.6289,4.6289,4.6203,4.6081,4.5963,4.5916,4.5873,0.0,0.0,0.0,0.0,0.0,0.0,0.0,0.0,0.0,0.0,0.0,0.0,0.0,0.0,0.0,0.0,0.0,0.0,0.0,0.0,0.0,0.0,0.0,0.0,0.0,0.0,0.0,0.0,0.0,0.0,0.0,0.0,0.0,0.0,0.0,0.0,0.0,0.0,0.0,5.1093,5.1289,0.0,0.0,0.0,0.0,5.1406,5.1271,5.1268,5.1406,5.1272,5.1269,5.1406,5.1268,5.1201,5.1197,5.1144,5.1014,5.0889,5.0878,5.0811,5.0707,5.0707,5.0707,5.0707,5.0707,5.0702,5.0629,5.0279,5.0105,5.0055,5.0123,5.033,5.0584,5.0212,4.9832,4.9386,0.0,0.0,0.0,0.0,0.0,0.0,0.0,0.0,4.5852,4.5852,4.5846,4.5821,4.5844,4.5793,4.5733,4.5804,4.5869,4.595,4.6011,4.6136,4.6202,4.6289,4.6289,4.6289,4.6289,4.6289,4.6289,4.6289,4.6289,4.6289,4.6289,4.6289,4.6289,4.6289,4.6289,4.6288,4.6244,4.6194,4.6093,4.6014,4.6014,4.598,0.0,0.0,0.0,0.0,0.0,0.0,0.0,0.0,0.0,0.0,0.0,0.0,0.0,0.0,0.0,0.0,0.0,0.0,0.0,0.0,0.0,0.0,0.0,0.0,0.0,0.0,0.0,0.0,0.0,0.0,0.0,0.0,0.0,0.0,0.0,0.0,0.0,5.1289,5.1282,0.0,5.1205,5.1221,5.1269,5.1269,5.1318,5.1364,5.1406,5.1365,5.1364,5.1406,5.1365,5.1322,5.1322,5.1186,5.1066,5.1014,5.0859,5.0758,5.0707,5.0707,5.0707,5.0707,5.0707,5.0707,5.0702,5.0568,5.0336,5.0135,5.0375,5.0279,4.9968,5.0347,4.9917,4.9131,0.0,0.0,0.0,0.0,0.0,0.0,0.0,0.0,4.5961,4.5925,4.5846,4.5861,4.5912,4.5839,4.5849,4.5909,4.5954,4.6,4.6087,4.6145,4.6201,4.6289,4.6289,4.6289,4.6289,4.6289,4.6289,4.6289,4.6289,4.6289,4.6289,4.6289,4.6289,4.6289,4.6289,4.6289,4.6289,4.6289,4.6247,4.6152,4.6152,4.6095,4.5979,0.0,0.0,0.0,0.0,0.0,0.0,0.0,0.0,0.0,0.0,0.0,0.0,0.0,0.0,0.0,0.0,0.0,0.0,0.0,0.0,0.0,0.0,0.0,0.0,0.0,0.0,0.0,0.0,0.0,0.0,0.0,0.0,0.0,0.0,0.0,5.1367,5.1324,5.1275,5.1262,5.1205,5.1259,5.1268,5.1268,5.1364,5.1406,5.1406,5.1406,5.1406,5.1406,5.1406,5.1406,5.1406,5.125,5.117,5.1089,5.0918,5.0791,5.0707,5.0707,5.0707,5.0707,5.0707,5.0707,5.0707,5.0707,5.0525,5.033,5.0599,5.0369,4.9949,5.0347,4.9917,4.91,0.0,0.0,0.0,0.0,0.0,0.0,0.0,4.6005,4.6065,4.5935,4.5882,4.5882,4.5882,4.5845,4.5816,4.5914,4.6014,4.6092,4.6092,4.6244,4.6289,4.6289,4.6289,4.6289,4.6289,4.6289,4.6289,4.6289,4.6289,4.6289,4.6289,4.6289,4.6289,4.6289,4.6289,4.6289,4.6289,4.6289,4.6289,4.6289,4.6289,4.6289,4.6289,0.0,0.0,0.0,0.0,0.0,0.0,0.0,0.0,0.0,0.0,0.0,0.0,0.0,0.0,0.0,0.0,0.0,0.0,0.0,0.0,0.0,0.0,0.0,0.0,0.0,0.0,0.0,0.0,0.0,0.0,0.0,0.0,0.0,5.1202,5.132,5.1364,5.1213,5.1321,5.1364,5.1211,5.1321,5.1406,5.1406,5.1406,5.1406,5.1406,5.1406,5.1406,5.1406,5.1406,5.1406,5.1406,5.1406,5.1302,5.1084,5.1081,5.0959,5.0707,5.0707,5.0707,5.0707,5.0707,5.0707,5.0707,5.0707,5.0707,5.0707,5.0707,5.0702,5.0629,5.0279,4.9865,4.9386,0.0,0.0,0.0,0.0,0.0,0.0,4.5914,4.6005,4.6065,4.5935,4.5882,4.5882,4.5882,4.5891,4.5918,4.6017,4.6152,4.6247,4.6247,4.6289,4.6289,4.6289,4.6289,4.6289,4.6289,4.6289,4.6289,4.6289,4.6289,4.6289,4.6289,4.6289,4.6289,4.6289,4.6289,4.6289,4.6289,4.6289,4.6289,4.6289,4.6289,4.6289,4.6289,0.0,0.0,0.0,0.0,0.0,0.0,0.0,0.0,0.0,0.0,0.0,0.0,0.0,0.0,0.0,0.0,0.0,0.0,0.0,0.0,0.0,0.0,0.0,0.0,0.0,0.0,0.0,0.0,0.0,0.0,0.0,5.1144,5.1133,5.1196,5.132,5.1406,5.1364,5.1366,5.1406,5.1364,5.1367,5.1406,5.1406,5.1406,5.1406,5.1406,5.1406,5.1406,5.1406,5.1406,5.1365,5.1264,5.1217,5.1115,5.0962,5.0863,5.076,5.0707,5.0707,5.0707,5.0707,5.0707,5.0707,5.0707,5.0707,5.0707,5.0707,5.0707,5.0509,5.0302,5.0472,5.0111,4.9423,0.0,0.0,0.0,0.0,0.0,0.0,4.5912,4.5972,4.5974,4.5857,4.5877,4.5877,4.5877,4.5877,4.5893,4.5998,4.6144,4.6203,4.6203,4.6288,4.6289,4.6289,4.6289,4.6289,4.6289,4.6289,4.6289,4.6289,4.6289,4.6289,4.6289,4.6289,4.6289,4.6289,4.6289,4.6289,4.6289,4.6289,4.6289,4.6289,4.6289,4.6289,4.6289,4.6289,4.6289,4.6289,4.6289,4.6289,4.6289,4.6289,0.0,0.0,0.0,0.0,0.0,0.0,0.0,0.0,0.0,0.0,0.0,0.0,0.0,0.0,0.0,0.0,0.0,0.0,0.0,0.0,0.0,0.0,0.0,0.0,5.1091,5.1117,5.1144,5.1255,5.1323,5.1406,5.1406,5.1406,5.1406,5.1406,5.1406,5.1406,5.1406,5.1406,5.1406,5.1364,5.132,5.132,5.1305,5.1238,5.1153,5.1129,5.102,5.0889,5.0807,5.0733,5.0707,5.0707,5.0707,0.0,5.0707,5.0707,5.0707,5.0707,5.0707,0.0,0.0,0.0,0.0,0.0,4.968,4.8974,0.0,0.0,0.0,0.0,0.0,0.0,4.6129,4.6161,4.6121,4.608,4.6077,4.608,4.606,4.6077,4.6108,4.6158,4.619,4.6195,4.6078,4.6198,4.6248,4.6248,4.6248,4.6248,4.6288,4.6288,4.6289,4.6289,4.6289,4.6289,4.6289,4.6289,4.6289,4.6289,4.6289,4.6289,4.6289,4.6289,4.6289,4.6289,4.6289,4.6289,4.6289,4.6289,4.6289,4.6328,4.6406,4.6445,4.6445,4.6562,0.0,0.0,0.0,0.0,0.0,0.0,0.0,0.0,0.0,0.0,0.0,0.0,0.0,0.0,0.0,0.0,0.0,0.0,0.0,0.0,0.0,0.0,0.0,0.0,5.1076,5.1055,5.1086,5.1133,5.1205,5.1363,5.1365,5.1365,5.1365,5.1365,5.1365,5.1365,5.1366,5.1366,5.1366,0.0,0.0,0.0,0.0,5.1084,5.1069,5.1069,5.0993,5.0894,5.0894,5.0837,5.0707,5.0707,5.0707,5.0707,5.0707,5.0707,5.0707,5.0707,5.0654,5.0624,5.0594,5.0599,5.052,4.9714,4.8999,4.8392,0.0,0.0,0.0,0.0,0.0,0.0,4.767,4.7773,4.7801,4.7679,4.7759,4.7796,4.7671,4.7762,4.7829,4.7824,4.7313,4.6687,4.599,4.5971,4.5981,4.5981,4.5981,4.6014,4.6143,4.6144,4.6198,4.6289,4.6289,4.6289,4.6289,4.6289,4.6289,4.6289,4.6289,4.6289,4.6289,4.6289,4.6289,4.6289,4.6289,4.6289,4.6289,4.6289,4.6289,4.6406,4.7109,4.7298,4.7317,4.8123,4.8372,4.8353,4.8411,0.0,0.0,0.0,0.0,0.0,0.0,0.0,0.0,0.0,0.0,0.0,0.0,0.0,0.0,0.0,0.0,0.0,0.0,0.0,0.0,5.1171,5.0933,5.0855,5.1061,5.1017,5.1017,5.1148,5.116,5.116,5.116,5.116,5.116,5.116,5.1229,5.1259,5.1259,5.1209,5.1202,5.1202,5.1117,5.1036,5.0945,5.0942,5.0886,5.0744,0.0,0.0,5.0707,5.0707,5.0707,5.0707,5.0707,5.0707,5.0707,5.0707,5.0504,5.0183,4.9872,4.993,5.0129,4.9318,4.894,4.8787,0.0,0.0,0.0,0.0,0.0,0.0,4.8082,4.818,4.8172,4.81,4.8142,4.8167,4.8095,4.8146,4.8209,4.8209,4.7924,4.7587,0.0,4.7191,4.7191,4.7191,4.7191,4.7027,4.6654,4.6654,4.6482,4.6089,4.6089,4.6089,4.6089,4.6089,4.6089,4.6089,4.6089,4.6322,4.675,4.675,4.6982,4.7407,4.7407,4.7427,4.745,4.7108,4.7226,4.7656,4.8086,4.8155,4.8119,4.8614,4.8953,4.9131,4.9134,4.9447,4.9875,0.0,0.0,0.0,0.0,0.0,0.0,0.0,0.0,0.0,0.0,0.0,0.0,0.0,0.0,5.1229,5.1149,0.0,5.1008,5.1045,5.0896,5.0847,5.0998,5.0949,5.0959,5.1076,5.1091,5.1091,5.1091,5.1091,5.1091,5.1091,5.1148,5.114,5.114,5.109,5.1057,5.1057,5.0946,5.0879,5.0812,5.0812,5.0751,5.0707,5.0707,5.0707,5.0707,5.0707,5.0599,5.0386,5.0386,5.0296,5.0111,5.0111,4.9974,4.9741,4.9363,4.9326,4.946,4.9043,4.877,4.8604,0.0,0.0,0.0,0.0,0.0,0.0,0.0,4.8625,4.8625,4.8625,4.8625,4.8625,4.8625,4.8625,4.8548,4.8355,4.844,4.8477,0.0,4.8424,4.8424,4.8424,4.8424,4.8092,4.7429,4.7429,4.7094,4.6422,4.6422,4.6422,4.6422,4.6422,4.6422,4.6422,4.6422,4.6809,4.7466,4.7466,4.785,4.8502,4.8502,4.8684,4.8842,4.8263,4.8354,4.8865,4.9017,4.899,4.8891,4.9103,4.9538,4.9972,4.9861,5.0377,5.1029,5.0925,5.0975,0.0,0.0,0.0,0.0,0.0,0.0,0.0,0.0,0.0,5.114,5.1108,5.1091,5.1058,5.0969,5.0914,5.09,5.0939,5.0882,5.0883,5.0885,5.0894,5.0893,5.0993,5.1008,5.1008,5.1008,5.1008,5.1008,5.1008,5.1036,5.1053,5.1053,5.0969,5.0889,5.0889,5.076,5.0707,5.0707,5.0707,5.0644,5.0594,5.0594,5.0525,5.0472,5.0472,5.0302,4.9974,4.9974,4.9819,4.9496,4.9496,4.9453,4.9348,4.9019,4.8864,4.8787,4.8787,4.8577,4.8296,0.0,0.0,0.0,0.0,0.0,0.0,0.0,0.0,5.0399,5.0399,5.0399,5.0399,5.0399,5.0399,5.0091,4.9317,4.9264,0.0,4.8197,4.8158,4.8158,4.8158,4.8158,4.8132,4.8188,4.8192,4.8185,4.8193,4.8193,4.8193,4.8193,4.8193,4.8193,4.8193,4.8193,4.8271,4.8348,4.8348,4.8426,4.8502,4.8502,4.8983,4.9663,4.9599,4.9196,4.8821,4.9446,4.9598,4.964,5.0527,5.073,5.0626,5.072,5.0738,5.0751,5.0883,0.0,5.1091,5.1091,5.1011,5.0918,5.0799,5.0795,5.0803,0.0,0.0,5.0953,5.1071,5.1091,5.1086,5.1071,5.0998,5.0942,5.1047,5.0894,5.0747,5.0863,5.0808,5.0721,5.0749,5.0753,5.0753,5.0753,5.0753,5.0753,5.0753,5.0859,5.0921,5.0921,5.09,5.0889,5.0889,5.076,5.0707,5.0707,5.0707,5.0509,5.0171,5.0171,4.9974,4.9624,4.9624,4.9603,4.9561,4.9561,4.9532,4.9496,4.9496,4.9288,4.8953,4.8903,4.8665,4.8392,4.8392,4.8354,4.8296,0.0,0.0,0.0,0.0,0.0,0.0,0.0,0.0,0.0,5.0707,5.0707,5.0707,5.0707,5.0707,5.0553,5.0207,5.0168,0.0,4.963,4.963,4.963,4.963,4.963,4.9402,4.8951,4.8956,4.8727,4.8268,4.8268,4.8268,4.8268,4.8268,4.8268,4.8268,4.8268,4.8539,4.9003,4.9003,4.9312,4.9776,4.9776,5.0044,5.0439,5.0332,5.0173,5.0044,5.0418,5.0488,0.0,0.0,5.0863,5.0726,5.0751,5.0753,5.0693,5.0756,5.0811,0.0,5.0976,5.0949,5.0896,0.0,5.0935,5.0928,5.0896,5.0889,5.0882,5.0886,5.0879,5.0879,5.0879,5.0807,5.0812,0.0,5.0764,5.0707,5.0769,5.0735,5.0707,5.0707,5.0707,5.0707,5.0707,5.0707,5.0707,5.0707,5.0767,5.0782,5.0782,5.0782,5.0782,5.0782,5.0497,5.0347,5.0347,5.0129,4.9917,4.9734,4.9734,4.9652,4.9496,4.9496,4.9371,4.9139,4.8915,4.8796,4.8796,4.8796,4.8683,4.8541,4.8541,4.8449,4.8296,4.8296,4.8296,4.8296,0.0,0.0,0.0,0.0,0.0,0.0,0.0,0.0,0.0,0.0,5.0364,5.0364,5.0364,5.0364,5.0364,5.0364,5.0364,0.0,0.0,5.0364,5.0364,5.0364,5.0364,5.0052,4.9434,4.9434,4.9127,4.8509,4.8509,4.8509,4.8509,4.8509,4.8509,4.8509,4.8509,4.8902,4.9593,4.9593,5.0023,5.0707,5.0707,5.0776,5.0827,5.074,5.0742,5.0863,5.0966,5.0928,0.0,0.0,5.0778,5.0707,5.0707,5.0707,5.0707,5.0707,5.0721,5.0769,5.089,0.0,0.0,5.095,5.1008,5.0976,5.0879,5.0844,5.0799,5.0707,5.0707,5.0707,5.0707,5.0707,5.0707,5.0707,5.0707,5.0707,5.0707,5.0707,5.0707,5.0707,5.0707,5.0707,5.0707,5.0707,5.0707,5.0707,5.0707,5.0639,5.0525,5.0629,5.0604,5.0369,5.0189,5.0069,4.9936,4.9631,4.9445,4.9333,4.9333,4.9272,4.9163,4.9163,4.8994,4.8709,4.8421,4.8296,4.8333,4.8563,4.8673,4.8673,4.8893,4.8994,4.8994,4.8994,4.8857,4.8673,0.0,0.0,0.0,0.0,0.0,0.0,0.0,0.0,0.0,0.0,0.0,0.0,0.0,4.9532,4.9532,4.9532,4.9532,4.9532,4.9532,4.9532,4.9532,4.9532,4.9532,4.9532,4.9495,4.9495,4.9487,4.9457,4.9457,4.9457,4.9457,4.9457,4.9457,4.9457,4.9457,4.9696,5.0091,5.0091,5.0303,5.0707,5.0707,5.0712,5.0721,5.0712,5.0712,5.0721,5.0731,0.0,0.0,0.0,5.0717,5.0707,5.0707,5.0707,0.0,5.0707,5.0799,5.0882,5.0889,0.0,5.0883,5.0749,5.0693,5.0693,5.0721,5.0721,5.0717,5.0712,5.0707,5.0707,5.0707,5.0707,5.0707,5.0707,5.0707,5.0707,5.0707,5.0707,5.0707,5.0707,5.0707,5.0707,0.0,5.0707,5.0707,5.0707,5.0707,5.0514,5.0141,5.0488,5.0341,4.9554,4.9911,4.9917,4.9518,4.9504,4.9303,4.8903,4.8903,4.87,4.8344,4.8344,4.8335,4.8325,4.8306,4.8296,4.8379,4.9197,4.9574,4.9647,5.0435,5.0729,5.0729,5.0729,5.0215,4.9684,0.0,0.0,0.0,0.0,0.0,0.0,0.0,0.0,0.0,0.0,0.0,0.0,0.0,0.0,0.0,0.0,4.9496,4.9496,4.9496,4.9496,4.9496,4.9496,4.9496,4.9496,4.9496,4.9496,4.9496,4.9496,4.9496,4.9496,4.9496,4.9496,4.9496,4.9496,4.9496,4.9568,4.97,4.9981,5.0177,5.033,5.0599,5.0707,5.0707,5.0707,5.0707,5.0707,0.0,0.0,0.0,5.0707,5.0707,5.0707,5.0707,0.0,0.0,5.0707,5.073,5.0756,5.0756,5.0756,5.0776,5.0693,5.0707,5.0707,5.0707,5.0707,5.0707,5.0707,5.0707,5.0707,5.0707,5.0707,5.0707,5.0707,5.0707,5.0707,5.0707,5.0707,5.0604,5.0336,5.0313,0.0,0.0,0.0,0.0,5.0325,5.0313,5.0135,4.9707,4.9846,4.9799,4.9504,4.9378,4.9249,4.91,4.8839,4.864,4.8486,4.8486,4.8734,4.916,4.916,4.9444,4.9948,4.9948,4.9948,4.9994,5.0288,5.0398,5.0368,5.0157,5.0079,5.0097,5.016,5.0032,4.984,0.0,0.0,0.0,0.0,0.0,0.0,0.0,0.0,0.0,0.0,0.0,0.0,0.0,0.0,0.0,0.0,0.0,4.9059,0.0,0.0,4.9059,4.9059,4.9059,4.9059,4.9059,4.9059,4.9059,4.9059,4.9059,4.9059,4.9059,4.9059,4.9059,4.9059,4.9059,4.9147,4.9303,4.9561,4.9741,4.9911,5.0171,5.0291,5.0302,5.0446,5.0483,0.0,0.0,0.0,0.0,5.0707,5.0707,5.0707,5.0707,5.0707,5.0707,5.0707,5.0707,5.0707,5.0707,5.0707,5.0707,5.0707,5.0707,5.0707,5.0707,5.0707,5.0707,5.0707,5.0707,5.0707,5.0707,5.0707,5.0707,5.0707,5.0707,5.0639,5.0499,5.0483,5.0336,4.9936,4.9891,4.9761,0.0,0.0,0.0,4.9911,4.9891,4.97,4.9311,4.9423,4.9363,4.9067,4.8945,4.8839,4.8674,4.843,4.8453,4.8783,4.9077,4.9481,5.0041,5.0041,5.0288,5.0802,5.0802,5.0643,5.0441,5.1014,5.0921,5.0485,5.0534,5.0399,5.0211,5.0292,5.0149,4.9947,0.0,0.0,0.0,0.0,0.0,0.0,0.0,0.0,0.0,0.0,0.0,0.0,0.0,0.0,0.0,0.0,0.0,0.0,0.0,0.0,0.0,4.8296,4.8296,4.8296,4.8296,4.8296,4.8296,4.8296,4.8296,4.8296,4.8296,4.8296,4.8296,4.8296,4.8296,4.8495,4.889,4.8869,4.9116,4.9467,4.9489,4.9496,4.9532,4.9924,0.0,0.0,0.0,0.0,0.0,0.0,0.0,0.0,0.0,0.0,5.0707,5.0707,5.0707,5.0707,5.0707,5.0707,5.0707,5.0707,5.0707,5.0707,5.0654,5.0697,5.0702,5.0634,5.0639,5.0644,0.0,0.0,5.0629,5.0629,5.0629,5.0499,5.0129,5.0087,4.9924,0.0,0.0,0.0,0.0,0.0,0.0,4.9506,0.0,4.9295,4.8907,4.9226,4.9113,4.8408,4.873,4.8785,4.8416,4.8443,4.882,4.9684,5.0435,5.0839,5.0875,5.0875,5.0875,5.0902,5.0902,5.0508,4.9958,5.1385,5.1178,5.012,5.1454,5.1593,5.1034,5.1008,5.054,5.0061,0.0,0.0,0.0,0.0,0.0,0.0,0.0,0.0,0.0,0.0,0.0,0.0,0.0,0.0,0.0,0.0,0.0,0.0,0.0,0.0,0.0,0.0,0.0,0.0,0.0,0.0,0.0,0.0,0.0,4.8296,4.8296,4.8296,4.8296,4.8296,4.8296,4.8373,4.8486,4.877,4.8945,4.9075,0.0,4.9496,4.9504,0.0,0.0,0.0,0.0,0.0,0.0,0.0,0.0,0.0,0.0,5.0707,5.0707,0.0,0.0,5.0707,5.0707,5.0707,5.0707,5.0707,5.0707,5.0619,5.0325,5.0483,5.0514,4.993,5.003,5.0165,0.0,0.0,0.0,4.9819,4.9819,0.0,4.9652,4.9638,0.0,4.91,0.0,4.8949,4.864,4.8604,0.0,0.0,4.9271,4.889,4.8486,4.8541,4.8827,4.9243,4.9359,4.9653,5.0178,5.0178,5.0288,5.0508,5.0692,5.1096,5.1683,5.1683,5.2013,5.259,5.259,5.2149,5.1535,5.1914,5.1551,5.0764,5.0619,5.0431,5.023,4.9707,4.9436,4.9286,0.0,0.0,0.0,0.0,0.0,0.0,0.0,0.0,0.0,0.0,0.0,0.0,0.0,0.0,0.0,0.0,0.0,0.0,0.0,0.0,0.0,0.0,0.0,0.0,0.0,0.0,0.0,0.0,0.0,0.0,0.0,4.8296,4.8296,4.8296,4.8296,4.8296,4.8316,4.8532,0.0,0.0,0.0,0.0,0.0,0.0,0.0,0.0,0.0,0.0,0.0,0.0,0.0,5.0707,5.0707,5.0707,5.0707,5.0707,0.0,5.0707,5.0707,5.0707,5.0707,5.0707,5.0707,5.0599,5.0189,5.0252,5.0279,4.9617,4.9666,0.0,4.9532,0.0,0.0,0.0,0.0,0.0,4.9265,4.9241,4.9083,0.0,4.8982,0.0,4.8886,4.9187,4.9591,0.0,4.9565,4.927,4.938,4.9407,4.9627,5.0115,5.0115,5.0325,5.0802,5.1169,5.1316,5.1316,5.1683,5.2087,5.2517,5.2189,5.2287,5.2714,0.0,5.1862,5.118,5.1531,5.1086,5.0195,5.0428,5.0321,5.0035,4.9986,4.995,4.995,0.0,0.0,0.0,0.0,0.0,0.0,0.0,0.0,0.0,0.0,0.0,0.0,0.0,0.0,0.0,0.0,0.0,0.0,0.0,0.0,0.0,0.0,0.0,0.0,0.0,0.0,0.0,0.0,0.0,0.0,0.0,0.0,0.0,0.0,0.0,0.0,0.0,0.0,0.0,0.0,0.0,0.0,0.0,0.0,0.0,0.0,0.0,0.0,0.0,0.0,4.9993,5.0619,5.0619,5.0644,5.0707,5.0707,5.0707,5.0707,5.0707,5.0644,5.0619,5.0619,5.0589,5.0451,5.0018,4.9974,4.9898,4.9431,0.0,4.9401,4.9348,4.9341,4.9341,4.9341,0.0,4.9218,4.8881,4.8905,4.8859,4.8501,4.9233,4.9747,4.9747,5.0398,5.0839,5.0949,5.0298,5.0188,5.0765,5.0802,5.0839,5.0949,5.1059,5.1132,5.1132,5.1721,5.2019,5.2019,5.263,5.2915,5.2893,5.2266,5.2018,5.2078,5.1485,0.0,5.0359,5.1005,5.0487,4.9419,5.0699,5.0823,5.0304,5.0964,5.1201,5.1201,0.0,0.0,0.0,0.0,0.0,0.0,0.0,0.0,0.0,0.0,4.8296,4.8296,0.0,0.0,0.0,0.0,0.0,0.0,0.0,0.0,0.0,0.0,0.0,0.0,0.0,0.0,0.0,0.0,0.0,0.0,0.0,0.0,0.0,0.0,0.0,0.0,0.0,0.0,0.0,0.0,0.0,0.0,0.0,0.0,0.0,0.0,0.0,0.0,0.0,0.0,4.9826,5.0195,5.0195,5.0446,5.0707,5.0707,5.0707,5.0707,5.0707,5.0467,5.0195,5.0195,4.9949,4.9596,4.9202,4.9371,0.0,0.0,4.877,4.8915,4.8559,4.8523,4.8523,4.8523,0.0,0.0,0.0,0.0,4.945,0.0,0.0,0.0,0.0,0.0,0.0,0.0,0.0,5.1363,5.0839,5.0802,5.1096,5.1767,5.2454,5.2774,5.2774,5.2333,5.2083,5.2083,5.1668,5.1444,5.1444,5.133,5.1609,5.216,5.2042,0.0,5.1924,5.2056,5.1599,5.0845,5.109,5.1126,5.1032,5.1167,5.1201,5.1201,0.0,0.0,0.0,0.0,0.0,0.0,0.0,4.8296,4.8296,4.8296,4.8296,4.8296,4.8296,4.8296,4.8296,0.0,0.0,0.0,0.0,0.0,0.0,0.0,0.0,0.0,0.0,0.0,0.0,0.0,0.0,0.0,0.0,0.0,0.0,0.0,0.0,0.0,0.0,0.0,0.0,0.0,0.0,0.0,0.0,0.0,0.0,0.0,0.0,0.0,0.0,0.0,4.9139,4.9518,4.9707,4.9924,5.0093,5.0093,5.0093,5.0093,5.0093,4.9936,4.9806,4.9806,4.9631,4.9393,4.8986,0.0,0.0,0.0,4.8458,4.8513,4.8344,4.8296,0.0,0.0,0.0,0.0,0.0,0.0,0.0,0.0,0.0,0.0,0.0,0.0,0.0,0.0,0.0,5.2454,5.2076,5.204,5.2223,5.2601,5.2994,5.3214,5.3214,5.2872,5.2667,5.2654,5.235,5.2225,5.2236,5.187,5.1934,5.2242,5.1839,0.0,5.1735,5.1735,5.1534,5.1235,5.1607,5.1776,5.181,5.2249,5.2385,5.2385,0.0,0.0,0.0,0.0,0.0,0.0,0.0,4.8296,4.8296,4.8296,4.8296,4.8296,4.8296,4.8296,4.8296,0.0,0.0,0.0,0.0,0.0,0.0,0.0,0.0,0.0,0.0,0.0,0.0,0.0,0.0,0.0,0.0,0.0,0.0,0.0,0.0,0.0,0.0,0.0,0.0,0.0,0.0,0.0,0.0,0.0,0.0,0.0,0.0,0.0,0.0,0.0,4.8495,4.883,4.9139,4.9356,4.9496,4.9496,4.9496,4.9496,4.9496,4.9438,4.9371,4.9371,4.9303,4.9155,4.8847,4.877,0.0,0.0,4.8296,4.8296,4.8296,0.0,4.837,0.0,4.9123,0.0,0.0,0.0,0.0,0.0,0.0,0.0,0.0,0.0,0.0,0.0,0.0,0.0,5.3214,5.3361,5.3471,5.3471,5.3452,5.3496,5.3496,5.3167,5.3026,5.3001,5.2847,5.2799,5.2817,5.2305,5.2138,5.228,5.1693,0.0,0.0,5.1674,5.1674,5.1742,5.2334,5.257,5.2638,5.3281,5.3518,5.3518,0.0,0.0,0.0,0.0,0.0,0.0,0.0,4.8296,4.8296,4.8296,4.8296,4.8296,4.8296,4.8296,4.8296,0.0,0.0,0.0,0.0,0.0,0.0,0.0,0.0,0.0,0.0,0.0,0.0,0.0,0.0,0.0,0.0,0.0,0.0,0.0,0.0,0.0,0.0,0.0,0.0,0.0,0.0,0.0,0.0,0.0,0.0,0.0,0.0,0.0,0.0,0.0,0.0,4.8373,4.8383,4.8915,4.9496,4.9496,0.0,0.0,4.9496,4.9234,4.8945,4.8945,4.8665,4.8393,4.8345,0.0,0.0,4.8306,4.8296,4.8296,4.8296,4.8296,0.0,0.0,0.0,4.9858,0.0,0.0,0.0,0.0,0.0,0.0,0.0,0.0,0.0,0.0,0.0,0.0,5.3251,5.3885,5.4289,5.4289,5.4348,5.4399,5.4399,5.3047,5.2396,5.2378,5.1691,5.1403,5.1392,5.1312,5.1653,5.2313,5.2231,0.0,0.0,5.3281,5.3281,5.3315,5.3382,5.3382,5.3416,5.3484,5.3518,5.3518,0.0,0.0,0.0,0.0,0.0,0.0,4.8296,4.8296,4.8296,4.8296,4.8296,4.8296,4.8296,4.8296,4.8296,4.8296,0.0,0.0,0.0,0.0,0.0,0.0,0.0,0.0,0.0,0.0,0.0,0.0,0.0,0.0,0.0,0.0,0.0,0.0,0.0,0.0,0.0,0.0,0.0,0.0,0.0,0.0,0.0,0.0,0.0,0.0,0.0,0.0,0.0,0.0,0.0,0.0,4.8296,4.8541,0.0,0.0,4.877,4.877,4.877,4.8667,4.8532,4.8532,4.8411,4.8296,4.8296,0.0,4.8296,4.8296,4.8296,4.8296,4.8296,4.871,4.9197,0.0,0.0,0.0,5.1473,0.0,0.0,0.0,0.0,0.0,0.0,0.0,0.0,0.0,0.0,0.0,5.4021,5.43,5.4231,5.3742,5.3749,5.377,5.377,5.3203,5.2925,5.2952,5.2666,5.2566,5.2588,5.2588,5.2723,5.301,5.301,0.0,0.0,5.3518,5.3518,5.3518,5.3518,5.3518,5.3518,5.3518,5.3518,5.3518,0.0,0.0,0.0,0.0,0.0,4.8296,4.8296,4.8296,4.8296,4.8296,4.8296,4.8296,4.8296,4.8296,4.8296,4.8296,4.8296,0.0,0.0,0.0,0.0,0.0,0.0,0.0,0.0,0.0,0.0,4.8296,4.8296,4.8296,0.0,0.0,0.0,0.0,0.0,0.0,0.0,0.0,0.0,0.0,0.0,0.0,0.0,0.0,0.0,0.0,0.0,0.0,0.0,0.0,0.0,0.0,0.0,0.0,0.0,0.0,4.8296,4.8296,4.8296,4.8296,4.8296,4.8296,4.8296,4.8296,0.0,4.8296,4.8379,4.8636,4.8673,4.8746,4.8994,4.9554,5.0041,5.0271,0.0,5.2097,5.2307,5.2847,0.0,0.0,0.0,0.0,0.0,0.0,0.0,0.0,0.0,0.0,5.4563,5.4523,5.4269,5.3673,5.3662,5.3689,5.3689,5.348,5.3376,5.3444,5.3444,5.3466,5.3518,5.3518,5.3518,5.3518,5.3518,0.0,0.0,5.3518,5.3518,5.3518,5.3518,5.3518,5.3518,5.3754,5.3822,5.3856,0.0,0.0,0.0,0.0,0.0,0.0,4.8296,4.8296,4.8296,4.8296,4.8296,4.8296,4.8296,4.8296,4.8296,4.8296,4.8296,0.0,0.0,0.0,0.0,0.0,0.0,0.0,0.0,0.0,0.0,4.8296,4.8296,4.8296,4.8296,4.8296,4.8296,0.0,0.0,0.0,0.0,0.0,0.0,0.0,0.0,0.0,4.8296,0.0,0.0,0.0,0.0,0.0,0.0,0.0,0.0,0.0,0.0,4.8296,0.0,0.0,4.8296,4.8296,4.8296,4.8296,4.8296,4.8296,4.8296,4.8296,0.0,4.8296,4.8526,4.9417,4.961,4.9821,5.0618,5.0765,5.1059,5.184,5.1987,0.0,5.3067,5.3177,0.0,0.0,0.0,0.0,0.0,0.0,0.0,0.0,0.0,0.0,5.4614,5.4603,5.457,5.45,5.4545,5.4587,5.4587,5.3847,5.3501,5.3484,5.3484,5.3484,5.3518,5.3518,5.3518,0.0,0.0,0.0,0.0,5.3518,5.3518,5.3518,5.3518,5.3518,5.3585,5.4329,5.4583,5.4668,0.0,0.0,0.0,0.0,0.0,0.0,0.0,4.8296,4.8296,4.8296,4.8296,4.8296,4.8296,4.8296,4.8296,4.8296,4.8296,0.0,0.0,0.0,0.0,0.0,0.0,0.0,0.0,0.0,4.8296,4.8296,4.8296,4.8296,4.8296,4.8296,4.8296,4.8296,4.8296,0.0,0.0,0.0,0.0,0.0,0.0,4.9197,4.9233,0.0,0.0,0.0,0.0,0.0,0.0,0.0,0.0,0.0,0.0,0.0,0.0,5.0021,4.9187,4.8296,4.8296,4.871,4.9197,4.9197,4.9591,5.0021,5.0021,5.0021,5.0105,5.0362,5.0398,5.0508,5.0765,5.1242,5.1693,5.195,5.2454,5.3115,0.0,0.0,0.0,0.0,0.0,0.0,0.0,0.0,0.0,0.0,0.0,0.0,5.4649,5.4622,5.4363,5.3825,5.3826,5.3832,5.3832,5.3618,5.3518,5.3518,5.3518,5.3518,5.3518,5.3518,5.3518,0.0,0.0,0.0,0.0,5.4786,5.4989,5.4989,5.4989,5.4989,5.5023,5.5277,5.5327,5.5395,0.0,0.0,0.0,0.0,0.0,0.0,0.0,4.8296,4.8296,4.8296,4.8296,4.8296,4.8296,4.8296,4.8296,4.8296,4.8296,0.0,0.0,0.0,0.0,0.0,0.0,0.0,0.0,4.8296,4.8296,4.8296,4.8296,4.8296,4.8296,4.8296,4.8296,4.8296,4.8296,0.0,0.0,0.0,0.0,0.0,4.9821,5.0041,5.0115,0.0,0.0,0.0,0.0,0.0,0.0,0.0,0.0,0.0,0.0,0.0,0.0,0.0,5.0068,4.9251,0.0,4.9627,5.0041,5.0041,5.0435,5.0802,5.0802,5.0802,5.0875,5.1206,5.1242,5.1353,5.1636,5.2123,5.2454,5.2454,5.3151,5.3838,0.0,0.0,0.0,0.0,0.0,0.0,0.0,0.0,0.0,0.0,0.0,0.0,5.4216,5.4168,5.4098,5.3907,5.3653,5.3518,5.3518,5.3518,5.3653,5.3923,5.3923,5.4059,5.4312,5.4312,5.4312,0.0,0.0,0.0,0.0,5.5496,5.5699,5.5699,5.5699,5.5699,5.5733,5.6003,5.6105,5.6139,0.0,0.0,0.0,0.0,0.0,0.0,0.0,4.8296,4.8296,4.8296,4.8296,4.8296,4.8296,4.8296,4.8296,4.8296,0.0,0.0,0.0,0.0,0.0,0.0,0.0,0.0,0.0,4.8296,4.8296,4.8296,4.8296,4.8296,4.8296,4.8296,4.8296,4.8296,4.837,0.0,0.0,0.0,0.0,0.0,5.0875,5.0875,0.0,0.0,0.0,0.0,0.0,0.0,0.0,0.0,0.0,0.0,0.0,0.0,0.0,0.0,0.0,0.0,0.0,5.0949,5.0875,5.0875,5.0949,5.0986,5.0986,5.0986,0.0,5.195,5.2097,5.2307,5.3067,5.3251,5.3287,5.3287,5.3959,5.4509,0.0,5.5211,0.0,0.0,0.0,0.0,0.0,0.0,0.0,0.0,0.0,0.0,5.3585,5.3619,5.3957,5.4668,5.4025,5.3653,5.3653,5.3653,5.3991,5.4668,5.4668,5.504,5.5699,5.5699,5.5699,0.0,0.0,0.0,0.0,5.5834,5.5868,5.5868,5.5868,5.5868,5.5936,5.663,5.6867,5.6968,0.0,0.0,0.0,0.0,0.0,0.0,0.0,0.0,0.0,0.0,4.8296,4.8296,4.8296,4.8296,4.8296,0.0,0.0,0.0,0.0,0.0,0.0,0.0,0.0,0.0,0.0,4.8296,4.8296,4.8296,4.8296,4.8296,4.8296,4.8296,4.8296,4.8333,4.9013,0.0,0.0,0.0,0.0,0.0,5.1463,5.172,0.0,0.0,0.0,0.0,5.2627,5.2627,0.0,0.0,0.0,0.0,0.0,0.0,0.0,0.0,5.2627,5.2627,5.2627,0.0,5.172,5.172,5.2197,5.2627,0.0,5.2627,0.0,0.0,0.0,5.2994,5.3177,5.3691,5.4106,5.4106,5.4803,5.5537,5.6161,0.0,0.0,0.0,0.0,0.0,0.0,0.0,0.0,0.0,0.0,5.4931,5.4381,5.4871,5.5259,5.5428,5.5259,5.5192,5.5192,5.5192,5.5259,5.5428,5.5428,5.553,5.5699,5.5699,5.5699,0.0,0.0,0.0,5.6596,5.7137,5.7374,5.7374,5.7374,5.7374,5.7408,5.7595,5.7645,5.7663,0.0,0.0,0.0,0.0,0.0,0.0,0.0,0.0,0.0,0.0,0.0,0.0,0.0,0.0,0.0,0.0,0.0,0.0,0.0,0.0,0.0,0.0,0.0,0.0,4.8296,4.8296,4.8296,4.8296,4.8296,4.8489,4.8903,4.8903,4.9077,4.9481,4.9931,0.0,0.0,0.0,0.0,5.193,5.238,0.0,0.0,0.0,0.0,0.0,5.3214,5.3214,0.0,5.3214,5.3214,5.3214,0.0,0.0,0.0,0.0,5.3214,5.3214,5.3214,5.2884,5.2564,5.2564,5.2884,5.3214,5.3214,0.0,0.0,0.0,0.0,5.3739,5.3739,5.4399,5.4961,5.4961,5.5339,0.0,0.0,0.0,0.0,0.0,0.0,0.0,0.0,0.0,0.0,0.0,0.0,5.5536,5.5125,5.5462,5.5868,5.6172,5.6206,5.6037,5.5699,5.5699,5.5868,5.6206,5.6206,5.6393,5.6697,5.6697,5.6697,0.0,0.0,0.0,5.734,5.773,5.79,5.79,5.79,5.79,5.79,5.79,5.79,5.79,0.0,0.0,0.0,0.0,0.0,0.0,0.0,0.0,0.0,0.0,0.0,0.0,0.0,0.0,0.0,0.0,0.0,0.0,0.0,0.0,0.0,0.0,0.0,4.8296,4.8296,4.8416,4.8489,4.8489,4.8636,4.904,4.9784,4.9784,5.0225,5.0986,5.0986,5.1426,0.0,0.0,0.0,5.3214,5.3214,0.0,0.0,0.0,0.0,0.0,0.0,0.0,0.0,5.3214,5.3214,5.3214,5.3214,0.0,0.0,0.0,0.0,0.0,5.3214,5.3287,5.3361,5.3214,5.3214,5.3214,5.3361,0.0,0.0,0.0,0.0,0.0,0.0,5.5152,0.0,0.0,0.0,0.0,5.6791,5.7228,0.0,0.0,0.0,0.0,0.0,0.0,0.0,0.0,0.0,5.5868,5.5868,5.5969,5.6308,5.6934,5.6968,5.6664,5.6037,5.6037,5.6359,5.6968,5.6968,5.7306,5.79,5.79,5.79,0.0,0.0,0.0,5.79,5.79,5.79,5.79,5.79,5.79,5.79,5.79,5.79,5.7863,0.0,0.0,0.0,0.0,0.0,0.0,0.0,0.0,0.0,0.0,0.0,0.0,0.0,0.0,0.0,0.0,0.0,0.0,0.0,0.0,0.0,0.0,4.8296,4.8296,4.8296,4.9013,4.938,4.938,5.0068,5.0472,5.0618,5.0618,5.1059,5.184,5.184,5.227,5.3031,0.0,0.0,5.3214,5.3214,0.0,0.0,0.0,0.0,0.0,0.0,0.0,0.0,5.3214,5.3214,5.3214,5.3214,0.0,0.0,0.0,0.0,0.0,5.3214,5.3691,5.4069,5.3361,5.3214,5.3398,5.4069,0.0,0.0,0.0,0.0,0.0,0.0,5.565,5.6431,0.0,0.0,5.6755,0.0,0.0,0.0,0.0,0.0,0.0,0.0,0.0,0.0,0.0,0.0,5.663,5.663,5.7205,5.7629,5.7712,5.7712,5.7697,5.7543,5.7543,5.7611,5.7712,5.7712,5.7798,5.79,5.79,5.79,0.0,0.0,5.79,5.79,5.79,5.79,5.79,5.79,5.79,5.79,5.79,5.79,5.7772,0.0,0.0,0.0,0.0,0.0,0.0,0.0,0.0,0.0,0.0,0.0,0.0,0.0,0.0,0.0,0.0,0.0,0.0,0.0,0.0,0.0,4.8296,4.8746,4.9003,4.9003,4.938,4.9821,5.0261,5.0618,5.1022,5.1463,5.1903,5.2297,5.2637,5.2637,5.2847,5.3214,5.3214,5.3214,5.3214,0.0,0.0,0.0,0.0,0.0,0.0,0.0,0.0,0.0,0.0,5.3214,5.3214,5.3214,0.0,0.0,0.0,0.0,0.0,5.3728,5.4106,5.4436,5.4473,5.4509,5.4583,5.495,0.0,0.0,0.0,0.0,0.0,0.0,0.0,5.7059,5.5896,0.0,0.0,0.0,0.0,0.0,0.0,0.0,0.0,0.0,0.0,0.0,0.0,0.0,0.0,5.7374,5.773,5.79,5.79,5.79,5.79,5.79,5.79,5.79,5.79,5.79,5.79,5.79,5.79,5.79,5.79,0.0,5.79,5.79,5.79,5.79,5.79,5.79,5.79,5.79,5.79,5.79,5.7827,0.0,0.0,0.0,0.0,0.0,0.0,0.0,0.0,0.0,0.0,0.0,0.0,0.0,0.0,0.0,0.0,0.0,0.0,0.0,0.0,4.86,4.86,4.9417,4.9784,4.9564,4.9968,5.0445,5.1096,5.1279,5.1683,5.227,5.292,5.3214,5.3214,5.3214,5.3214,5.3214,5.3214,5.3214,5.3214,0.0,0.0,0.0,0.0,0.0,0.0,0.0,0.0,0.0,0.0,0.0,0.0,0.0,0.0,0.0,5.3434,5.3471,5.3654,5.4473,5.4803,5.5097,5.5721,5.5732,5.5658,5.5842,0.0,0.0,0.0,0.0,0.0,0.0,5.7315,0.0,5.6177,5.6455,0.0,0.0,0.0,0.0,0.0,0.0,0.0,0.0,0.0,0.0,0.0,0.0,0.0,5.79,5.79,5.79,5.79,5.79,5.79,5.79,5.79,5.79,5.79,5.79,5.79,5.79,5.79,5.79,5.79,5.79,5.79,5.79,5.79,5.79,5.79,5.79,5.79,5.79,5.79,5.79,5.7827,0.0,0.0,0.0,0.0,0.0,0.0,0.0,0.0,0.0,0.0,0.0,0.0,0.0,0.0,0.0,0.0,0.0,0.0,0.0,0.0,4.95,4.95,5.0288,5.0325,4.9517,5.1032,5.1877,5.1914,5.2674,5.3067,5.3104,5.3177,5.3214,5.3214,5.3214,5.3214,5.3214,5.3214,5.3214,5.3214,5.3214,0.0,0.0,0.0,0.0,0.0,0.0,0.0,0.0,0.0,0.0,0.0,0.0,0.0,5.3361,5.4106,5.4326,5.4473,5.5291,5.6051,5.6627,5.6701,5.6161,0.0,5.6528,5.6701,0.0,0.0,0.0,0.0,0.0,5.6926,5.6922,5.6807,5.6819,0.0,0.0,0.0,0.0,0.0,0.0,0.0,0.0,0.0,0.0,0.0,0.0,0.0,5.79,5.79,5.79,5.79,5.79,5.79,5.79,5.79,5.79,5.79,5.79,5.79,5.79,5.79,5.79,5.79,5.79,5.79,5.79,5.79,5.79,5.79,5.79,5.79,5.79,5.79,5.79,5.7591,0.0,0.0,0.0,0.0,0.0,0.0,0.0,0.0,0.0,0.0,0.0,0.0,0.0,0.0,0.0,0.0,0.0,0.0,0.0,0.0,5.0372,5.0372,5.1143,5.1389,5.1069,5.1693,5.2244,5.2747,5.3067,5.3214,5.3214,5.3214,5.3214,5.3214,5.3214,5.3214,5.3214,5.3214,5.3214,5.3214,5.3214,5.3214,0.0,0.0,0.0,0.0,0.0,0.0,0.0,0.0,5.3214,5.3287,5.3801,5.3959,5.4106,5.4913,5.5144,5.5317,5.6124,5.6565,5.6921,5.7409,0.0,0.0,0.0,0.0,0.0,0.0,0.0,0.0,0.0,0.0,5.7656,5.7656,5.7182,0.0,0.0,0.0,0.0,0.0,0.0,0.0,0.0,0.0,0.0,0.0,0.0,0.0,5.79,5.79,5.79,5.79,5.79,5.79,5.79,5.79,5.79,5.79,5.79,5.79,5.79,5.79,5.79,5.79,5.79,5.79,5.79,5.79,5.79,5.79,5.79,5.79,5.79,5.79,5.79,5.779,0.0,0.0,0.0,0.0,0.0,0.0,0.0,0.0,0.0,0.0,0.0,0.0,0.0,0.0,0.0,0.0,0.0,0.0,5.0765,5.1059,5.1169,5.1169,5.194,5.238,5.238,5.238,5.2637,5.3214,5.3214,5.3214,5.3214,5.3214,5.3214,5.3214,5.3214,5.3214,5.3214,5.3214,5.3214,5.3214,5.3214,5.3214,0.0,0.0,0.0,0.0,0.0,0.0,0.0,0.0,5.3581,5.3728,5.4509,5.4766,5.495,5.5732,5.5978,5.6161,5.6969,5.7178,5.7299,0.0,0.0,0.0,0.0,0.0,0.0,0.0,0.0,0.0,0.0,0.0,0.0,0.0,0.0,0.0,0.0,0.0,0.0,0.0,0.0,0.0,0.0,0.0,0.0,0.0,0.0,0.0,0.0,5.79,5.79,5.79,5.79,5.79,5.79,5.79,5.79,5.79,5.79,5.79,5.79,5.79,5.79,5.79,5.79,5.79,5.79,5.79,5.79,5.79,5.79,5.79,5.79,5.79,5.7665,5.7316,0.0,0.0,0.0,0.0,0.0,0.0,0.0,0.0,0.0,0.0,0.0,0.0,0.0,0.0,0.0,0.0,0.0,0.0,5.0839,5.1573,5.2024,5.2024,5.2784,5.3214,5.3214,5.3214,5.3214,5.3214,5.3214,5.3214,5.3214,5.3214,5.3214,5.3214,5.3214,5.3214,5.3214,5.3214,5.3214,5.3214,5.3214,5.3214,5.3214,0.0,0.0,0.0,0.0,0.0,0.0,0.0,5.4399,5.4546,5.5365,5.5622,5.5768,5.6602,5.6811,5.7005,5.7776,5.7997,5.7997,0.0,0.0,0.0,0.0,0.0,0.0,0.0,0.0,0.0,0.0,0.0,0.0,0.0,0.0,0.0,0.0,0.0,0.0,0.0,0.0,0.0,0.0,0.0,0.0,0.0,0.0,0.0,0.0,5.79,5.79,5.79,5.79,5.79,5.79,5.79,5.79,5.79,5.79,5.79,5.79,5.79,5.79,5.79,5.79,5.79,5.79,5.79,5.79,5.79,5.79,5.79,5.79,5.79,5.7204,5.6067,0.0,0.0,0.0,0.0,0.0,0.0,0.0,0.0,0.0,0.0,0.0,0.0,0.0,0.0,0.0,0.0,0.0,0.0,5.2443,5.27,5.2847,5.2847,5.3067,5.3214,5.3214,5.3214,5.3214,5.3214,5.3214,5.3214,5.3214,5.3214,5.3214,5.3214,5.3214,5.3214,5.3214,5.3214,5.3214,5.3214,5.3214,5.3214,5.3214,0.0,0.0,0.0,0.0,0.0,0.0,0.0,0.0,0.0,5.6198,5.6455,5.6602,5.7409,5.7629,5.7703,5.7923,5.7997,0.0,5.7997,0.0,0.0,0.0,0.0,0.0,0.0,0.0,0.0,0.0,0.0,0.0,0.0,0.0,0.0,0.0,0.0,0.0,0.0,0.0,0.0,0.0,0.0,0.0,0.0,0.0,0.0,0.0,5.79,5.79,5.79,5.79,5.79,5.79,5.79,5.79,5.79,5.79,5.79,5.79,5.79,5.79,5.79,5.79,5.79,5.79,5.79,5.79,5.79,5.79,5.79,5.79,5.79,5.7683,5.7353,0.0,0.0,0.0,0.0,0.0,0.0,0.0,0.0,0.0,0.0,0.0,0.0,0.0,0.0,0.0,0.0,0.0,0.0,0.0,0.0,5.3214,5.3214,5.3214,5.3214,5.3214,5.3214,5.3214,5.3214,5.3214,5.3214,5.3214,5.3214,5.3214,5.3214,0.0,5.3214,5.3214,5.3214,5.3214,5.3214,5.3214,5.3214,5.3214,0.0,0.0,0.0,0.0,0.0,0.0,0.0,0.0,0.0,5.7005,5.7299,5.7373,5.785,5.7997,5.7997,5.7997,5.7997,0.0,5.84,5.8829,5.938,6.0003,0.0,0.0,0.0,0.0,0.0,0.0,0.0,0.0,0.0,0.0,0.0,0.0,0.0,0.0,0.0,0.0,0.0,0.0,0.0,0.0,0.0,0.0,0.0,0.0,5.79,5.79,5.79,5.79,5.79,5.79,5.79,5.79,5.79,5.79,5.79,5.79,5.79,5.79,5.79,5.79,5.79,5.79,5.79,5.79,5.79,5.79,5.79,5.79,5.79,5.7609,5.7241,0.0,0.0,0.0,0.0,0.0,0.0,0.0,0.0,0.0,0.0,0.0,0.0,0.0,0.0,0.0,0.0,0.0,0.0,0.0,0.0,5.3214,5.3214,5.3214,5.3214,5.3214,5.3287,5.3324,5.3324,5.3251,5.3251,5.3324,5.3324,5.3361,5.3434,0.0,5.3434,5.3434,5.3434,5.3434,5.3434,5.3434,5.3434,5.3508,5.4216,0.0,0.0,0.0,0.0,0.0,0.0,0.0,0.0,5.7776,5.7997,5.7997,5.7997,5.7997,5.8033,5.8107,5.8107,5.829,5.9123,5.938,0.0,6.1263,6.1581,6.1381,6.0585,0.0,6.0023,0.0,0.0,0.0,0.0,0.0,0.0,0.0,0.0,0.0,0.0,0.0,0.0,0.0,0.0,0.0,0.0,0.0,0.0,0.0,5.79,5.79,5.79,5.79,5.79,5.79,5.79,5.79,5.79,5.79,5.79,5.79,5.79,5.79,5.79,5.79,5.79,5.79,5.79,5.79,5.79,5.79,5.79,5.79,5.79,5.7241,5.634,0.0,0.0,0.0,0.0,0.0,0.0,0.0,0.0,0.0,0.0,0.0,0.0,0.0,0.0,0.0,0.0,0.0,0.0,0.0,0.0,5.3214,5.3214,5.3214,5.3214,5.3214,5.3801,5.4142,5.4142,5.3508,5.3508,0.0,0.0,0.0,5.5071,0.0,5.5071,5.5071,5.5071,5.5071,5.5071,5.5071,5.5071,5.5108,5.5291,5.5328,0.0,0.0,0.0,0.0,0.0,0.0,0.0,5.796,5.7997,5.7997,5.7997,5.7997,5.8143,5.8756,5.8939,0.0,0.0,6.0639,6.1165,6.1537,6.1584,6.1379,6.0555,5.987,5.9111,0.0,0.0,0.0,0.0,0.0,0.0,0.0,0.0,0.0,0.0,0.0,0.0,0.0,0.0,0.0,0.0,0.0,0.0,5.79,5.79,5.79,5.79,5.79,5.79,5.79,5.79,5.79,0.0,5.79,5.79,5.79,5.79,5.79,5.79,5.79,5.79,5.79,5.79,5.79,5.79,5.79,5.79,5.79,5.79,5.772,5.7536,0.0,0.0,0.0,0.0,0.0,0.0,0.0,0.0,0.0,0.0,0.0,0.0,0.0,0.0,0.0,0.0,0.0,0.0,0.0,0.0,0.0,5.3214,5.3214,5.3398,5.3765,5.4179,5.4583,5.4961,5.4546,0.0,0.0,0.0,0.0,5.5585,0.0,5.5585,5.5585,5.5585,5.5585,5.5585,5.5585,5.5585,5.5658,5.6014,5.6161,5.6271,5.7079,0.0,0.0,0.0,0.0,0.0,0.0,0.0,5.7997,5.7997,5.8253,5.8682,5.9086,0.0,0.0,6.0786,0.0,6.1594,6.1592,6.1286,6.079,5.996,5.9427,5.8857,0.0,0.0,0.0,0.0,0.0,0.0,0.0,0.0,0.0,0.0,0.0,0.0,0.0,0.0,0.0,0.0,0.0,5.79,5.79,5.79,5.79,5.79,5.79,5.79,5.79,5.79,5.79,5.79,5.79,5.79,5.79,5.79,5.79,5.79,5.79,5.79,5.79,5.79,5.79,5.79,5.79,5.79,5.79,5.79,5.7554,5.7076,0.0,0.0,0.0,0.0,0.0,0.0,0.0,0.0,0.0,0.0,0.0,0.0,0.0,0.0,0.0,0.0,0.0,0.0,0.0,0.0,0.0,0.0,5.3398,5.3775,5.4583,5.473,5.5133,5.5805,0.0,0.0,0.0,0.0,0.0,5.6025,0.0,5.6025,5.6025,5.6025,5.6025,5.6025,5.6025,5.6025,5.6099,0.0,0.0,5.7068,5.7776,5.7997,5.7997,5.7997,0.0,0.0,0.0,0.0,5.8033,5.818,5.8682,5.9269,5.9526,6.0187,6.0933,6.1458,6.1617,0.0,6.1243,6.067,5.9928,5.906,5.8993,5.8857,0.0,0.0,0.0,0.0,0.0,0.0,0.0,0.0,0.0,0.0,0.0,0.0,0.0,0.0,0.0,0.0,0.0,5.79,5.79,5.79,5.79,5.79,5.79,5.79,5.79,5.79,5.79,5.79,5.79,5.79,5.79,5.79,5.79,5.79,5.79,5.79,5.79,5.79,5.79,5.79,5.79,5.79,5.7881,5.7665,5.7001,5.6184,0.0,0.0,0.0,0.0,0.0,0.0,0.0,0.0,0.0,0.0,0.0,0.0,0.0,0.0,0.0,0.0,0.0,0.0,0.0,0.0,0.0,5.4216,5.4252,5.462,5.5438,5.6124,5.6517,0.0,0.0,0.0,0.0,0.0,0.0,5.7666,0.0,0.0,5.7666,5.7666,5.7666,5.7666,5.7666,5.7666,5.7666,0.0,0.0,0.0,0.0,5.7997,5.7997,5.7997,5.7997,0.0,0.0,0.0,5.8143,5.8829,5.9123,5.949,6.0896,0.0,6.2325,0.0,6.1615,6.1229,0.0,0.0,5.9061,0.0,5.8616,5.8857,0.0,0.0,0.0,0.0,0.0,0.0,0.0,0.0,0.0,0.0,0.0,0.0,0.0,0.0,0.0,0.0,5.79,5.79,5.79,5.79,5.79,5.79,5.79,5.79,5.79,5.79,5.79,5.79,5.79,5.79,5.79,5.79,5.79,5.79,5.79,5.79,5.79,5.79,5.79,5.79,5.79,5.79,5.779,5.6778,5.6321,5.6087,0.0,0.0,0.0,0.0,0.0,0.0,0.0,0.0,0.0,0.0,0.0,0.0,0.0,0.0,0.0,0.0,0.0,0.0,0.0,0.0,0.0,5.5071,5.5071,5.5464,5.6235,5.6638,5.7042,0.0,0.0,0.0,0.0,5.7629,5.7666,0.0,0.0,0.0,0.0,0.0,0.0,0.0,0.0,0.0,0.0,0.0,0.0,0.0,0.0,0.0,0.0,5.7997,5.7997,5.7997,5.7997,0.0,0.0,0.0,5.982,6.0701,6.142,6.1862,6.1942,0.0,6.0544,6.0019,5.9278,0.0,5.8335,5.7972,5.8191,5.8317,5.7972,0.0,0.0,0.0,0.0,0.0,0.0,0.0,0.0,0.0,0.0,0.0,0.0,0.0,0.0,0.0,5.79,5.79,5.79,5.79,5.79,5.79,5.79,5.79,5.79,5.79,5.79,5.79,5.79,5.79,5.79,5.79,5.79,5.79,5.79,5.79,5.79,5.79,5.79,5.79,5.79,5.79,5.7845,5.7335,5.7038,5.6823,0.0,0.0,0.0,0.0,0.0,0.0,0.0,0.0,0.0,0.0,0.0,0.0,0.0,0.0,0.0,0.0,0.0,0.0,0.0,0.0,0.0,5.5915,5.5904,5.6271,5.7079,5.7116,0.0,0.0,0.0,0.0,5.7997,5.7997,5.7997,0.0,5.7997,0.0,0.0,0.0,0.0,0.0,0.0,0.0,0.0,0.0,0.0,0.0,0.0,0.0,0.0,0.0,0.0,0.0,0.0,5.8719,0.0,0.0,0.0,6.1596,0.0,0.0,6.1099,6.0273,5.959,5.9044,0.0,0.0,5.79,0.0,5.79,5.79,5.79,0.0,0.0,0.0,0.0,0.0,0.0,0.0,0.0,0.0,0.0,0.0,0.0,0.0,0.0,0.0,5.79,5.79,5.79,5.79,5.79,5.79,5.79,5.79,5.79,5.79,5.79,5.79,5.79,5.8001,5.8186,5.8186,5.8287,5.8423,5.8051,5.79,5.7934,5.8084,5.8186,5.8186,5.8407,5.8475,5.8438,5.8145,5.7897,5.7581,0.0,0.0,0.0,0.0,0.0,0.0,0.0,0.0,0.0,0.0,0.0,0.0,0.0,0.0,5.5475,5.5475,0.0,0.0,0.0,0.0,0.0,5.6701,5.6737,0.0,5.7923,5.7923,0.0,0.0,0.0,0.0,5.7997,5.7997,5.7997,5.7997,5.7997,5.7997,5.7997,0.0,0.0,0.0,0.0,0.0,0.0,0.0,0.0,0.0,0.0,0.0,0.0,0.0,0.0,0.0,0.0,0.0,0.0,0.0,0.0,0.0,0.0,6.1041,0.0,5.9394,5.9128,5.8909,0.0,0.0,0.0,5.79,5.79,5.79,5.79,0.0,0.0,0.0,0.0,0.0,0.0,0.0,0.0,0.0,0.0,0.0,0.0,0.0,0.0,0.0,5.79,5.79,5.79,5.79,5.79,5.79,5.79,5.79,5.79,5.79,5.79,5.79,5.79,5.8254,5.8945,5.8945,5.9317,5.9911,5.849,5.79,5.7967,5.866,5.8945,5.9013,5.9708,5.9979,5.9865,5.8847,5.8467,5.8121,0.0,0.0,0.0,0.0,0.0,0.0,0.0,0.0,0.0,0.0,0.0,0.0,0.0,5.5438,5.5585,5.5585,5.6051,0.0,0.0,0.0,0.0,5.7556,5.7556,5.7703,5.7997,0.0,0.0,0.0,0.0,5.7997,5.7997,5.7997,5.7997,5.7997,5.7997,5.7997,5.7997,5.7997,0.0,0.0,0.0,0.0,0.0,0.0,0.0,0.0,0.0,0.0,0.0,0.0,0.0,0.0,0.0,0.0,0.0,0.0,0.0,0.0,0.0,0.0,0.0,5.8529,5.8335,5.8246,5.7972,5.79,5.79,5.79,5.79,5.79,5.79,0.0,0.0,0.0,0.0,0.0,0.0,0.0,0.0,0.0,0.0,0.0,0.0,0.0,0.0,0.0,0.0,5.79,5.79,5.79,5.79,5.79,5.79,5.79,5.79,5.79,5.8118,5.8626,5.8626,5.8998,5.9708,5.9708,5.9844,6.008,5.9539,5.9302,5.9336,5.9607,5.9708,5.9742,6.0013,6.0114,6.0042,5.9646,5.9865,6.0202,0.0,0.0,0.0,0.0,0.0,0.0,0.0,0.0,0.0,0.0,0.0,0.0,0.0,0.0,5.6393,5.6393,5.6895,5.7446,5.796,5.7997,5.7997,5.7997,5.7997,5.7997,0.0,0.0,0.0,0.0,0.0,0.0,0.0,0.0,5.7997,5.7997,5.7997,0.0,0.0,0.0,0.0,5.8033,0.0,0.0,5.8437,0.0,0.0,0.0,0.0,0.0,0.0,0.0,0.0,0.0,0.0,0.0,0.0,0.0,0.0,0.0,5.9474,0.0,0.0,0.0,5.79,5.79,5.79,0.0,5.79,5.79,5.79,5.79,5.79,5.79,0.0,0.0,0.0,0.0,0.0,0.0,0.0,0.0,0.0,0.0,0.0,0.0,0.0,0.0,0.0,0.0,5.79,5.79,5.79,5.79,5.79,5.8017,5.8254,5.8254,5.8626,5.9351,5.9351,5.9776,6.0486,6.0486,6.0655,6.0858,6.0858,6.0588,6.0114,6.0385,6.0486,6.052,6.0791,6.0858,6.0858,6.0858,6.1197,6.1612,0.0,0.0,0.0,0.0,0.0,0.0,0.0,0.0,0.0,0.0,0.0,0.0,0.0,0.0,0.0,5.802,5.8008,5.7997,5.7997,5.7997,5.7997,5.7997,0.0,0.0,0.0,0.0,0.0,0.0,0.0,0.0,0.0,0.0,5.807,0.0,5.807,5.807,5.807,0.0,5.8033,5.8143,0.0,5.9233,5.9306,0.0,0.0,0.0,6.0419,6.0456,0.0,0.0,0.0,0.0,0.0,0.0,0.0,0.0,0.0,0.0,0.0,0.0,0.0,0.0,0.0,0.0,5.79,0.0,5.79,5.79,5.79,5.79,5.79,5.79,0.0,0.0,0.0,0.0,0.0,0.0,0.0,0.0,0.0,0.0,0.0,0.0,0.0,0.0,5.79,5.79,5.79,5.79,5.7934,5.7934,5.7934,5.8287,5.9013,5.9013,5.9385,6.0148,6.0148,6.0554,6.1332,6.1332,6.1704,6.24,6.24,6.1535,6.0216,6.1028,6.1332,6.14,6.211,6.24,6.24,6.24,6.2381,6.2169,0.0,0.0,0.0,0.0,0.0,0.0,0.0,0.0,0.0,0.0,0.0,0.0,0.0,0.0,5.8142,5.8492,5.822,5.7997,5.7997,5.7997,5.7997,5.7997,5.7997,5.7997,0.0,0.0,0.0,0.0,0.0,0.0,0.0,0.0,0.0,0.0,5.9758,5.9758,5.9722,5.9123,0.0,0.0,5.9967,6.0077,0.0,0.0,0.0,0.0,0.0,6.1263,0.0,0.0,6.2132,6.2082,0.0,0.0,0.0,0.0,0.0,0.0,5.8476,0.0,0.0,0.0,0.0,0.0,0.0,0.0,5.79,5.79,5.79,5.79,5.79,5.79,5.79,0.0,0.0,0.0,0.0,0.0,0.0,0.0,0.0,0.0,0.0,0.0,0.0,0.0,5.79,5.79,5.79,5.79,5.8152,5.8693,5.8693,5.9066,5.981,5.981,6.0182,6.096,6.096,6.1366,6.2096,6.2096,6.2231,6.24,6.24,6.2164,6.1772,6.2009,6.2096,6.211,6.2313,6.24,6.24,6.24,6.1837,6.1036,0.0,0.0,0.0,0.0,0.0,0.0,0.0,0.0,0.0,0.0,0.0,0.0,0.0,0.0,0.0,5.8397,5.8164,5.7997,5.7997,5.7997,5.7997,5.7997,5.7997,5.7997,5.7997,0.0,0.0,0.0,0.0,0.0,0.0,0.0,0.0,0.0,0.0,0.0,0.0,0.0,0.0,0.0,6.0786,0.0,0.0,6.1251,6.1398,0.0,0.0,0.0,6.2181,6.2646,6.2567,0.0,0.0,0.0,0.0,0.0,0.0,0.0,0.0,0.0,0.0,0.0,0.0,0.0,5.79,5.79,5.79,0.0,5.79,5.79,5.79,5.79,5.79,5.79,0.0,0.0,0.0,0.0,0.0,0.0,0.0,0.0,0.0,5.79,5.79,5.79,5.79,5.79,5.79,5.8186,5.8558,5.8979,5.9284,5.9844,6.0588,6.0588,6.0994,6.1772,6.1772,6.1975,6.24,6.24,6.24,6.24,6.24,6.24,6.24,6.24,6.24,6.24,6.24,6.209,6.1656,6.1656,6.0891,5.9849,0.0,0.0,0.0,5.9627,6.0281,6.0787,0.0,0.0,0.0,0.0,0.0,0.0,0.0,0.0,0.0,0.0,5.8042,5.7997,5.7997,5.807,5.8143,5.8143,5.8217,5.8253,5.8253,5.8976,0.0,0.0,0.0,0.0,0.0,0.0,0.0,0.0,0.0,0.0,0.0,0.0,0.0,6.075,6.1447,6.1741,0.0,0.0,6.2793,0.0,6.2793,6.2793,6.278,6.2705,6.2205,0.0,0.0,0.0,0.0,0.0,5.8977,0.0,0.0,0.0,0.0,0.0,0.0,0.0,5.79,5.79,5.79,0.0,5.79,5.79,5.79,5.79,5.79,5.79,0.0,0.0,0.0,0.0,0.0,0.0,0.0,0.0,5.79,5.79,5.79,5.79,5.79,5.7934,5.8035,5.866,5.9081,5.925,5.9911,6.0622,6.14,6.1434,6.1738,6.24,6.24,6.24,6.24,6.24,6.24,6.24,6.24,6.24,6.24,6.24,6.24,6.24,6.24,6.1736,6.0807,6.0807,6.0054,5.8992,0.0,0.0,0.0,6.055,6.071,6.0787,0.0,0.0,0.0,0.0,0.0,0.0,0.0,0.0,0.0,0.0,5.8205,5.7997,5.7997,5.8621,5.8976,5.8976,5.96,5.9942,5.9942,6.0077,6.015,6.015,0.0,0.0,0.0,0.0,0.0,0.0,0.0,0.0,0.0,0.0,0.0,6.2352,6.2499,0.0,6.2572,6.2756,6.2793,6.2793,6.2793,6.2793,6.2717,0.0,6.1728,6.1329,0.0,0.0,0.0,0.0,0.0,0.0,0.0,0.0,0.0,0.0,0.0,0.0,5.79,5.79,5.79,0.0,5.79,5.79,5.79,5.79,5.79,5.79,5.79,0.0,0.0,0.0,0.0,0.0,0.0,0.0,5.79,5.79,5.79,5.79,5.79,5.8152,5.8761,5.8912,5.9554,6.0825,6.0994,6.1434,6.2178,6.2197,6.2265,6.24,6.24,6.24,6.24,6.24,6.24,6.24,6.24,6.24,6.24,6.24,6.24,6.24,6.24,6.2263,6.205,6.205,6.1296,6.0247,0.0,0.0,0.0,0.0,6.0787,6.0787,6.0787,0.0,0.0,0.0,0.0,0.0,0.0,0.0,0.0,0.0,0.0,0.0,0.0,5.9563,5.9783,5.9783,6.0187,6.0419,6.0419,6.0786,6.1006,6.1006,0.0,0.0,0.0,0.0,0.0,0.0,0.0,0.0,0.0,0.0,6.2793,6.2793,6.2793,0.0,6.2793,6.2793,6.2793,6.2793,6.2793,6.2793,6.2605,6.1421,6.0997,0.0,0.0,5.8494,5.844,0.0,5.79,5.79,0.0,0.0,0.0,5.79,0.0,0.0,0.0,5.79,5.79,5.79,5.79,5.79,5.79,5.79,5.79,5.79,5.79,5.79,0.0,0.0,0.0,0.0,0.0,0.0,5.79,5.79,5.79,5.79,5.8254,5.8626,5.8979,5.9723,6.052,6.1298,6.167,6.2009,6.24,6.24,6.24,6.24,6.24,6.24,6.24,6.24,6.24,6.24,6.24,6.24,6.24,6.24,6.24,6.24,6.24,6.203,6.148,6.148,6.0374,5.8803,0.0,0.0,0.0,0.0,6.0941,6.1056,6.1056,0.0,0.0,0.0,0.0,0.0,0.0,0.0,0.0,0.0,0.0,0.0,0.0,0.0,6.0639,6.0639,6.0786,6.086,6.086,6.1484,6.1814,6.1814,0.0,0.0,0.0,0.0,0.0,0.0,0.0,0.0,0.0,0.0,0.0,6.2793,0.0,6.2793,6.2793,6.2793,6.2793,6.2793,6.2793,6.2705,6.2337,6.0879,0.0,5.988,5.837,5.79,0.0,0.0,0.0,0.0,0.0,0.0,0.0,0.0,0.0,5.79,0.0,0.0,0.0,5.79,5.79,0.0,0.0,0.0,0.0,0.0,0.0,0.0,0.0,5.79,0.0,0.0,0.0,0.0,5.79,5.79,5.7967,5.8084,5.8641,5.9115,5.9419,6.0622,6.1366,6.1501,6.2076,6.24,6.24,6.24,6.24,6.24,6.24,6.24,6.24,6.24,6.24,6.24,6.24,6.24,6.24,6.24,6.24,6.24,6.24,6.1797,6.0953,6.0953,5.9588,5.7738,6.0787,6.0787,0.0,0.0,6.1441,6.1941,6.1941,0.0,0.0,0.0,0.0,0.0,0.0,0.0,0.0,0.0,0.0,0.0,6.0419,0.0,0.0,6.1459,6.2132,6.2536,6.2536,6.2609,6.2646,6.2646,6.2756,0.0,0.0,0.0,0.0,0.0,6.2793,0.0,0.0,0.0,6.2793,0.0,6.2793,6.2793,0.0,6.2793,6.2793,6.2793,6.2793,6.2337,6.1604,0.0,5.9896,5.9077,0.0,5.79,0.0,0.0,0.0,0.0,0.0,0.0,0.0,0.0,5.79,0.0,0.0,0.0,5.79,5.79,0.0,0.0,0.0,0.0,0.0,0.0,0.0,0.0,5.79,5.79,5.79,5.79,0.0,0.0,0.0,5.79,5.8152,5.881,5.8945,5.9588,6.096,6.1197,6.1603,6.2245,6.2367,6.24,6.24,6.24,6.24,6.24,6.24,6.24,6.24,6.24,6.24,6.24,6.24,6.24,6.24,6.24,6.24,6.24,6.24,6.2322,6.2203,6.2203,6.1358,6.0353,0.0,0.0,0.0,0.0,6.1864,6.2249,6.2743,0.0,0.0,0.0,0.0,0.0,0.0,0.0,0.0,0.0,0.0,6.2135,0.0,0.0,0.0,0.0,6.2609,6.2793,6.2793,6.2793,6.2793,6.2793,6.2793,6.2793,0.0,0.0,0.0,0.0,6.2793,0.0,6.2793,0.0,0.0,0.0,0.0,0.0,0.0,6.2793,6.2515,6.2089,6.2089,6.159,6.0775,0.0,5.941,0.0,0.0,0.0,0.0,0.0,0.0,0.0,0.0,0.0,0.0,0.0,0.0,0.0,0.0,0.0,5.79,0.0,0.0,0.0,0.0,0.0,0.0,0.0,5.79,0.0,0.0,0.0,5.79,0.0,0.0,0.0,0.0,0.0,0.0,0.0,5.9385,6.0114,6.1231,6.1704,6.2076,6.24,6.24,6.24,6.24,6.24,6.24,6.24,6.24,6.24,6.24,6.24,6.24,6.24,6.24,6.24,6.24,6.24,6.24,6.24,6.24,6.24,6.24,6.24,6.1656,6.0649,0.0,0.0,0.0,0.0,0.0,0.0,0.0,0.0,0.0,0.0,0.0,0.0,6.5683,6.5083,0.0,0.0,0.0,6.3215,0.0,0.0,6.2793,0.0,0.0,0.0,0.0,6.2793,6.2793,6.2793,6.2793,6.2793,0.0,0.0,0.0,0.0,0.0,6.2793,6.2793,0.0,0.0,6.2793,6.2793,6.2793,6.2768,6.2554,6.2103,6.159,6.1343,6.0745,5.9944,5.9311,5.8925,0.0,5.8083,0.0,0.0,0.0,0.0,0.0,5.79,0.0,0.0,0.0,0.0,0.0,0.0,0.0,0.0,0.0,0.0,0.0,0.0,0.0,0.0,0.0,0.0,5.79,0.0,0.0,0.0,0.0,0.0,0.0,0.0,0.0,0.0,5.9216,5.981,6.0554,6.1535,6.211,6.24,6.24,6.24,6.24,6.24,6.24,6.24,6.24,6.24,6.24,6.24,6.24,6.24,6.24,6.24,6.24,6.24,6.24,6.24,6.24,6.24,6.24,6.24,6.24,6.1419,6.0161,0.0,6.2062,0.0,0.0,0.0,0.0,0.0,0.0,0.0,0.0,0.0,0.0,0.0,0.0,0.0,0.0,0.0,6.2818,6.2793,0.0,6.2793,0.0,0.0,6.2793,0.0,0.0,6.2793,6.2793,6.2793,6.2793,0.0,0.0,0.0,0.0,0.0,6.2793,6.2793,6.2793,6.2793,6.2793,6.2793,6.2793,6.2717,0.0,6.1632,6.1506,6.0715,0.0,0.0,5.9111,5.8581,0.0,0.0,0.0,0.0,0.0,0.0,0.0,0.0,0.0,0.0,5.79,0.0,0.0,0.0,0.0,5.79,0.0,0.0,0.0,0.0,0.0,0.0,0.0,0.0,0.0,0.0,0.0,0.0,0.0,0.0,0.0,0.0,0.0,5.849,5.9945,6.008,6.0757,6.2299,6.24,6.24,6.24,6.24,6.24,6.24,6.24,6.24,6.24,6.24,6.24,6.24,6.24,6.24,6.24,6.24,6.24,6.24,6.24,6.24,6.24,6.24,6.24,6.24,6.24,6.0912,5.9014,0.0,0.0,0.0,0.0,0.0,0.0,0.0,6.5904,0.0,0.0,0.0,0.0,0.0,0.0,6.362,0.0,0.0,6.2793,6.2793,6.2793,0.0,0.0,0.0,6.2793,0.0,0.0,0.0,0.0,0.0,0.0,0.0,0.0,0.0,0.0,0.0,6.2793,0.0,0.0,0.0,0.0,0.0,6.2793,6.2768,0.0,0.0,6.076,6.0489,5.9511,0.0,5.8299,5.8119,5.79,5.79,5.79,5.79,5.79,5.79,0.0,0.0,0.0,5.79,5.79,0.0,0.0,0.0,0.0,0.0,0.0,0.0,0.0,0.0,0.0,0.0,0.0,0.0,0.0,0.0,0.0,0.0,0.0,0.0,0.0,0.0,0.0,0.0,6.0047,6.0588,6.1332,6.2367,6.24,6.24,6.24,6.24,6.24,6.24,6.24,6.24,6.24,6.24,6.24,6.24,6.24,6.24,6.24,6.24,6.24,6.24,6.24,6.24,6.24,6.24,6.24,6.24,6.24,6.1857,6.1119,6.3775,0.0,0.0,0.0,0.0,0.0,0.0,0.0,0.0,0.0,6.4932,0.0,6.4417,0.0,6.362,0.0,6.3097,6.2793,6.2793,6.2793,0.0,6.2793,6.2793,0.0,0.0,0.0,0.0,0.0,0.0,6.2793,0.0,0.0,0.0,0.0,0.0,6.2793,6.2793,0.0,6.2793,0.0,0.0,6.2363,0.0,0.0,6.1308,6.0304,0.0,5.8823,5.79,5.79,5.79,5.79,5.79,5.79,5.79,5.79,5.79,5.79,5.79,5.79,0.0,5.79,5.79,0.0,5.79,0.0,0.0,0.0,0.0,0.0,0.0,0.0,0.0,0.0,0.0,0.0,0.0,5.79,0.0,0.0,0.0,0.0,0.0,0.0,5.9133,6.0419,6.0757,6.1332,0.0,0.0,6.24,6.24,6.24,6.24,6.24,6.24,6.24,6.24,6.24,6.24,6.24,6.24,6.24,6.24,6.24,6.24,6.24,6.24,6.24,6.24,6.24,6.24,6.24,6.24,6.1857,6.0953,0.0,0.0,0.0,0.0,6.5359,0.0,0.0,0.0,6.5099,0.0,6.4643,6.4332,6.4313,6.3871,6.3576,6.3576,6.3073,0.0,6.2793,6.2793,0.0,0.0,6.2793,6.2793,6.2793,0.0,0.0,0.0,0.0,0.0,0.0,0.0,0.0,0.0,6.2793,0.0,6.2793,6.2793,6.2768,6.2655,6.1928,6.159,6.1428,6.064,6.032,6.0117,5.8546,5.7936,5.79,5.79,5.79,5.79,5.79,5.79,5.79,5.79,5.79,5.79,5.79,5.79,5.79,5.79,0.0,0.0,0.0,0.0,5.79,0.0,0.0,0.0,0.0,0.0,0.0,0.0,0.0,0.0,0.0,0.0,0.0,0.0,0.0,0.0,0.0,5.8389,5.8915,6.1095,6.0588,6.0858,0.0,0.0,6.24,6.24,6.24,6.24,6.24,6.24,6.24,6.24,6.24,6.24,6.24,6.24,6.24,6.24,6.24,6.24,6.24,6.24,6.24,6.24,6.24,6.2361,6.2322,6.2322,6.087,5.8722,6.5551,6.5743,6.582,0.0,6.5743,6.5904,0.0,0.0,0.0,0.0,6.4119,6.3648,6.3236,6.3073,6.3002,6.3002,6.2892,0.0,0.0,0.0,0.0,6.2793,6.2793,6.2793,6.2793,6.2793,0.0,6.2793,0.0,0.0,6.2793,0.0,0.0,0.0,0.0,0.0,6.2793,6.2793,6.2464,6.1901,6.1687,6.1229,0.0,0.0,5.9443,5.9377,5.896,5.8423,5.79,5.79,5.79,5.79,5.79,5.79,5.79,5.79,5.79,5.79,5.79,5.79,5.79,5.79,5.79,5.79,0.0,0.0,0.0,0.0,0.0,0.0,0.0,0.0,0.0,0.0,0.0,0.0,0.0,0.0,0.0,5.79,0.0,0.0,5.822,5.8998,5.9776,6.0351,6.1264,0.0,0.0,0.0,0.0,6.24,6.24,6.24,6.24,6.24,6.24,6.24,6.24,6.24,6.24,6.24,6.24,6.24,6.24,6.24,6.24,6.24,6.24,6.24,6.24,6.1837,6.1057,6.1057,6.0649,5.9957,6.5904,0.0,0.0,6.5904,0.0,0.0,6.5576,0.0,0.0,6.4454,6.3944,0.0,6.318,6.2929,6.2793,6.2793,6.2793,0.0,6.2793,0.0,0.0,6.2793,6.2793,6.2793,6.2793,6.2793,0.0,6.2793,0.0,0.0,6.2793,0.0,0.0,0.0,0.0,6.2793,0.0,6.2793,6.2541,6.2063,6.1379,0.0,0.0,5.9044,5.8581,5.8581,5.8581,5.8281,5.79,5.79,5.79,5.79,5.79,5.79,5.79,5.79,5.79,5.79,5.79,5.79,5.79,5.79,5.79,5.79,5.79,5.79,5.79,0.0,0.0,0.0,0.0,0.0,0.0,0.0,0.0,0.0,0.0,0.0,0.0,0.0,5.8254,0.0,5.8389,5.9438,6.025,6.0588,6.1434,0.0,0.0,0.0,0.0,6.24,6.24,6.24,6.24,6.24,6.24,6.24,6.24,6.24,6.24,6.24,6.24,6.24,6.24,6.24,6.24,6.24,6.209,6.1541,6.1016,6.0593,6.0206,5.9643,5.9271,5.8979,0.0,0.0,0.0,0.0,0.0,0.0,0.0,6.5019,0.0,6.4351,0.0,6.3498,6.3498,6.3098,6.2793,6.2793,0.0,6.2793,6.2793,6.2793,6.2793,6.2793,6.2793,6.2793,6.2793,6.2793,0.0,0.0,0.0,0.0,0.0,0.0,0.0,0.0,0.0,0.0,0.0,6.2705,6.2567,6.2337,6.0835,6.0149,5.9896,5.8458,5.79,5.79,5.79,5.79,5.79,5.79,5.79,5.79,5.79,5.79,5.79,5.79,5.79,5.79,5.79,5.79,5.79,5.79,5.79,5.79,5.79,5.79,5.79,5.79,5.79,5.79,0.0,0.0,0.0,0.0,0.0,0.0,0.0,0.0,0.0,0.0,0.0,0.0,5.9081,5.9708,6.0419,6.1231,0.0,0.0,0.0,0.0,0.0,6.24,6.24,6.24,6.24,0.0,6.24,6.24,6.24,6.24,6.24,6.24,6.24,6.24,6.24,6.2322,6.215,6.215,6.1506,6.0378,5.9165,5.9115,5.9535,5.8308,5.753,5.7122,0.0,0.0,0.0,0.0,0.0,6.5075,6.459,6.4509,6.4332,6.3808,6.3285,6.2929,6.2929,6.2867,6.2793,6.2793,6.2793,0.0,0.0,0.0,0.0,6.2793,6.2793,6.2793,6.2793,6.2793,6.2793,0.0,0.0,0.0,0.0,0.0,0.0,0.0,0.0,0.0,6.2755,6.2089,0.0,6.073,5.9736,5.8926,5.8315,5.8027,5.79,5.79,5.79,5.79,5.79,5.79,5.79,5.79,5.79,5.79,5.79,5.79,5.79,5.79,5.79,5.79,5.79,5.79,5.79,5.79,5.79,5.79,5.79,5.79,5.79,5.79,5.79,0.0,0.0,0.0,0.0,0.0,0.0,0.0,0.0,0.0,0.0,0.0,0.0,0.0,0.0,0.0,0.0,0.0,0.0,0.0,0.0,0.0,6.24,0.0,0.0,0.0,6.24,6.24,6.24,6.24,6.24,6.24,6.24,6.24,6.24,6.1817,6.0912,6.0912,6.051,5.9835,5.8609,5.8522,5.8918,5.7679,5.7187,5.7097,0.0,0.0,0.0,0.0,0.0,0.0,0.0,6.4005,0.0,6.3615,6.3363,6.3215,6.3215,6.2953,6.2793,6.2793,6.2793,6.2793,6.2793,6.2793,6.2793,6.2793,6.2793,0.0,6.2793,6.2793,6.2793,6.2793,0.0,0.0,0.0,0.0,0.0,0.0,0.0,6.2567,0.0,0.0,0.0,6.0304,5.9459,5.8875,5.8459,5.8047,5.79,5.79,5.79,5.8152,5.8423,5.8035,5.79,5.79,5.79,5.79,5.8001,5.8355,5.8457,5.8558,5.893,5.9032,5.9032,5.9032,5.9032,5.9032,5.9032,5.9032,5.9032,5.9032,5.9032,5.9032,5.9032,5.9032,0.0,0.0,0.0,0.0,0.0,0.0,0.0,0.0,0.0,0.0,0.0,0.0,0.0,0.0,0.0,6.24,0.0,0.0,0.0,0.0,0.0,0.0,0.0,0.0,0.0,6.24,6.24,6.24,6.24,6.24,6.24,6.24,6.24,6.207,6.1513,6.1267,6.0869,6.0242,5.9044,5.8552,5.8403,5.7839,5.7842,5.8082,0.0,6.5717,0.0,0.0,6.485,0.0,6.3723,6.3509,6.3431,6.3431,6.3431,6.3431,6.3431,6.3062,6.2793,6.2793,6.2793,6.2793,6.2793,6.2793,6.2793,6.2793,6.2793,6.2793,6.2793,6.2793,6.2793,0.0,0.0,0.0,0.0,0.0,0.0,0.0,0.0,0.0,0.0,0.0,6.068,6.0055,5.9178,5.8944,5.8996,5.8375,5.822,5.8355,5.8355,5.8727,5.9167,5.8558,5.8355,5.8355,5.8355,5.8355,5.849,5.9047,5.9216,5.9351,5.9945,6.0114,6.0114,6.0114,6.0114,6.0114,6.0114,6.0114,6.0114,6.0114,6.0114,6.0114,6.0114,6.0114,0.0,0.0,0.0,0.0,0.0,0.0,0.0,0.0,0.0,0.0,0.0,0.0,0.0,0.0,0.0,6.24,6.24,6.24,6.24,0.0,0.0,6.24,6.24,0.0,6.24,0.0,6.24,6.24,6.24,6.24,6.24,6.2415,6.255,6.2566,6.2435,6.1511,6.098,6.0622,5.9371,5.8653,5.8294,5.8294,5.865,5.9039,0.0,0.0,0.0,0.0,0.0,0.0,6.3593,6.3191,6.288,6.288,6.288,6.288,6.288,6.283,6.2793,6.2793,6.2793,6.2793,6.2793,6.2793,6.2793,6.2793,6.2793,6.2793,6.2793,6.2793,6.2793,0.0,0.0,0.0,0.0,0.0,0.0,0.0,0.0,0.0,0.0,5.9687,5.9294,5.9144,5.8335,5.8415,5.9007,5.8915,5.9302,5.9877,5.9877,5.9945,5.9979,5.9911,5.9877,5.9877,5.9877,5.9877,5.9911,5.9979,6.0013,6.0013,6.008,6.0114,6.0114,6.0114,6.0114,6.0114,6.0114,6.0114,6.0114,6.0114,6.0114,6.0114,6.0114,6.0114,6.0351,0.0,0.0,0.0,0.0,0.0,0.0,0.0,0.0,0.0,0.0,6.2299,0.0,0.0,6.2367,6.24,6.24,6.24,6.24,6.24,0.0,6.24,6.24,6.24,6.24,6.24,6.24,6.24,6.24,6.24,6.24,6.2434,6.3125,6.3165,6.2584,6.0273,5.9661,6.0035,5.8698,5.8518,5.9009,5.9009,5.9069,5.9099,0.0,0.0,0.0,0.0,0.0,0.0,0.0,6.2929,6.2793,6.2793,6.2793,6.2793,6.2793,6.2793,6.2793,6.2793,6.2793,6.2793,6.2793,6.2793,6.2793,6.2793,6.2793,6.2793,6.2793,6.2793,6.2793,0.0,0.0,0.0,0.0,0.0,0.0,0.0,0.0,6.1142,6.0371,5.9999,5.9512,5.9051,5.9146,5.9404,5.9674,5.9674,5.9844,6.0114,6.0114,6.0419,6.0825,6.0825,6.0486,6.0114,6.0114,6.0114,6.0182,6.0689,6.0825,6.0926,6.1366,6.1467,6.1467,6.1467,6.1467,6.1467,6.1467,6.1467,6.1467,6.1467,6.1467,6.1467,6.1467,6.1467,6.1569,0.0,0.0,0.0,0.0,0.0,0.0,0.0,0.0,0.0,0.0,0.0,0.0,0.0,0.0,6.24,6.24,6.24,0.0,6.24,0.0,6.24,6.24,6.24,6.24,6.24,6.24,6.24,6.24,6.24,6.2226,6.1975,6.2707,6.2727,6.2174,6.117,6.0742,6.0592,6.0059,5.9546,5.9099,5.9099,5.9099,5.9099,6.4722,0.0,6.4016,0.0,6.3351,6.325,6.2867,6.2793,6.2793,6.2793,6.2793,6.2793,6.2793,6.2793,6.2793,6.2793,6.2793,6.2793,6.2793,6.2793,6.2793,6.2793,6.2793,0.0,6.2793,6.2793,6.2793,6.2793,6.2793,0.0,0.0,0.0,0.0,0.0,6.1816,6.1102,6.0324,6.0238,5.9893,5.9351,5.9911,6.025,6.0452,6.0452,6.0588,6.0791,6.0791,6.1129,6.1637,6.1637,6.1264,6.0791,6.0791,6.0791,6.0892,6.1467,6.1637,6.1738,6.2265,6.24,6.24,6.24,6.24,6.24,6.24,6.24,6.24,6.24,6.24,6.24,6.24,6.24,6.24,6.24,0.0,0.0,0.0,0.0,0.0,0.0,0.0,6.24,6.24,6.24,0.0,0.0,0.0,6.24,6.24,0.0,0.0,0.0,0.0,0.0,0.0,6.24,6.24,6.24,6.24,6.24,6.2381,6.2246,6.2003,6.1708,6.223,6.2363,6.2189,6.1805,6.1381,6.0963,6.0614,5.9891,5.9099,5.9099,5.9099,5.9099,6.3829,6.3593,6.3442,6.2917,6.2805,6.2805,6.2793,6.2793,6.2793,6.2793,6.2793,6.2793,6.2793,6.2793,6.2793,6.2793,6.2793,6.2793,6.2793,6.2793,6.2793,0.0,0.0,6.2793,6.2793,6.2793,6.2793,6.2793,0.0,0.0,6.2793,0.0,6.2327,6.1514,6.1498,6.0994,6.0118,6.0099,6.0099,6.008,6.0114,6.0588,6.1298,6.1298,6.1738,6.2367,6.2367,6.24,6.24,6.24,6.24,6.2367,6.2367,6.2367,6.2347,6.24,6.24,6.24,6.24,6.24,6.24,6.24,6.24,6.24,6.24,6.24,6.24,6.24,6.24,6.24,6.24,6.24,6.24,6.24,0.0,0.0,0.0,0.0,0.0,0.0,6.24,6.24,6.24,6.24,0.0,0.0,0.0,0.0,0.0,0.0,0.0,6.24,6.24,0.0,6.24,6.24,6.24,6.24,6.24,6.24,6.2395,6.1862,6.1717,6.1916,6.1916,6.2332,6.2876,6.1571,6.1014,6.0861,5.9603,5.9099,5.9099,5.9099,5.9099,5.9099,6.3659,6.3319,6.3002,6.283,6.2793,6.2793,6.2793,6.2793,6.2793,6.2793,6.2793,6.2793,6.2793,6.2793,6.2793,0.0,6.2793,6.2793,0.0,6.2793,6.2793,6.2793,6.2793,6.2793,6.2793,6.3392,6.3686,6.3686,0.0,0.0,0.0,6.3857,6.3393,6.3099,6.1942,6.1276,6.097,6.094,6.0926,6.096,6.1467,6.1806,6.2042,6.2042,6.2178,6.24,6.24,6.24,6.24,6.24,6.24,6.24,6.24,6.24,6.24,6.24,6.24,6.24,6.24,6.24,6.24,6.24,6.24,6.24,6.24,6.24,6.24,6.24,6.24,6.24,6.24,6.24,6.24,6.24,6.24,0.0,0.0,0.0,0.0,0.0,6.24,6.24,0.0,6.24,0.0,0.0,0.0,0.0,0.0,0.0,0.0,0.0,6.24,0.0,6.24,6.24,6.24,6.24,6.24,6.2651,6.3173,6.4009,6.3496,6.1925,6.2404,6.1757,6.0307,5.9864,5.9679,5.9683,5.9261,5.9099,5.9099,5.9099,5.9099,5.9099,6.3374,6.3038,6.2793,6.2793,6.2793,6.2793,6.2793,6.2793,6.2903,6.3246,6.3282,6.338,6.371,6.3747,0.0,6.3319,6.3282,6.3429,6.371,6.3747,6.3747,6.3747,6.3747,6.3747,6.3747,0.0,0.0,6.453,6.5031,6.5121,6.4753,6.4172,6.3726,6.333,6.2264,6.1807,6.1771,6.1717,6.1704,6.1738,6.2212,6.24,6.24,6.24,6.24,6.24,6.24,6.24,6.24,6.24,6.24,6.24,6.24,6.24,6.24,6.24,6.24,6.24,6.24,6.24,6.24,6.24,6.24,6.24,6.24,6.24,6.24,6.24,6.24,6.24,6.24,6.24,6.24,6.24,6.24,6.24,6.24,0.0,0.0,0.0,0.0,0.0,0.0,6.24,6.24,0.0,0.0,0.0,0.0,0.0,0.0,6.24,6.24,0.0,6.24,6.24,6.24,6.24,6.2685,6.2851,6.2929,6.3834,6.3033,6.0852,6.1314,6.0619,5.9099,5.9099,5.9099,5.9099,5.9099,5.9099,5.9099,5.9099,5.9099,5.9099,6.3002,6.2793,6.2829,0.0,6.2903,0.0,6.2976,6.2976,6.327,6.4103,6.4176,6.4457,6.5215,6.5288,6.5007,6.4323,0.0,0.0,0.0,6.5288,6.5288,6.5288,6.5288,6.5288,6.5288,6.5362,6.5398,6.5472,6.5472,6.5017,6.4173,6.4057,6.35,6.2681,6.2538,6.2438,6.24,6.24,6.24,6.24,6.24,6.24,6.24,6.24,6.24,6.24,6.24,6.24,6.24,6.24,6.24,6.24,6.24,6.24,6.24,6.24,6.24,6.24,6.24,6.24,6.24,6.24,6.24,6.24,6.24,6.24,6.24,6.24,6.24,6.24,6.24,6.24,6.24,6.24,6.24,6.24,6.24,0.0,0.0,0.0,0.0,0.0,0.0,6.24,6.24,0.0,0.0,0.0,0.0,0.0,6.24,6.24,6.24,6.24,6.24,6.24,6.2395,6.235,6.314,6.2929,6.1909,6.1933,6.0983,5.9234,5.9234,5.918,5.9099,5.9099,5.9099,5.9099,5.9099,5.9099,5.9099,5.9099,5.9099,5.9099,0.0,0.0,6.3013,6.3686,6.3796,6.4016,6.4591,6.4701,6.4774,6.5007,6.5007,6.5081,6.5288,6.5288,6.5472,6.5888,6.5375,6.5105,6.5288,6.5288,6.5288,6.5288,6.5288,6.5288,6.5288,6.5888,6.6512,6.715,6.715,6.7019,6.6756,6.5407,6.4604,6.4367,6.302,6.2411,6.24,6.24,6.24,6.24,6.24,6.24,6.24,6.24,6.24,6.24,6.24,6.24,6.24,6.24,6.24,6.24,6.24,6.24,6.24,6.24,6.24,6.24,6.24,6.24,6.24,6.24,6.24,6.24,6.24,6.24,6.24,6.24,6.24,6.24,6.24,6.24,6.24,6.24,6.24,6.24,6.24,6.24,0.0,0.0,6.24,6.24,6.24,6.24,6.24,0.0,0.0,0.0,0.0,6.24,6.24,6.24,6.24,6.24,6.24,6.24,6.2199,6.1815,6.3095,6.3107,6.1901,6.2468,6.1937,6.0531,6.0531,6.0023,5.9099,5.9099,5.9099,5.9099,5.9099,5.9099,5.9099,5.9099,5.9099,5.9099,6.3455,6.3673,6.4077,6.4567,6.464,6.4787,6.5215,6.5288,6.5435,6.5802,6.5852,6.5999,6.6366,6.6402,6.6549,6.699,6.6329,6.5999,6.6366,6.6402,6.6402,6.6402,6.6402,6.6402,6.6402,6.6843,6.726,6.77,6.77,6.7286,6.6421,6.5454,6.4563,6.3757,6.2817,6.24,6.24,6.24,6.24,6.24,6.24,6.24,6.24,6.24,6.24,6.24,6.24,6.24,6.24,6.24,6.24,6.24,6.24,6.24,6.24,6.24,6.24,6.24,6.24,6.24,6.24,6.24,6.24,6.24,6.24,6.24,6.24,6.24,6.24,6.24,6.24,6.24,6.24,6.24,6.24,6.24,6.24,6.24,0.0,6.24,6.24,6.24,6.24,6.24,6.24,6.24,0.0,0.0,6.24,6.24,6.24,6.24,6.24,6.255,6.2888,6.2635,6.2577,6.2596,6.284,6.2406,6.1502,6.188,6.1376,6.0124,6.0124,5.9732,5.9099,5.9099,5.9099,5.9099,5.9099,5.9099,5.9099,5.9099,5.9099,5.9099,6.4351,6.4824,6.5325,6.5472,6.5472,6.5508,6.5632,6.5655,6.5925,6.6586,6.6659,6.6953,6.7627,6.77,6.77,6.77,6.7076,6.6953,6.7664,6.77,6.77,6.77,6.77,6.77,6.77,6.77,6.77,6.77,6.7556,6.6729,6.5196,6.4933,6.399,6.2581,6.2459,6.24,6.24,6.24,6.24,6.24,6.24,6.24,6.24,6.24,6.24,6.24,6.24,6.24,6.24,6.24,6.24,6.24,6.24,6.24,6.24,6.24,6.24,6.24,6.24,6.24,6.24,6.24,6.24,6.24,6.24,6.24,6.24,6.24,6.24,6.24,6.24,6.24,6.24,6.24,6.24,6.24,6.24,0.0,6.24,6.24,6.24,6.24,6.24,6.24,6.24,6.24,6.24,6.24,0.0,6.24,6.2468,6.255,6.255,6.2843,6.337,6.2855,6.2768,6.3199,6.2233,6.1404,6.0712,6.0712,6.0124,5.9099,5.9099,5.9099,5.9099,5.9099,5.9099,5.9099,5.9099,5.9099,5.9099,5.9099,5.9099,5.9099,6.5131,6.5215,6.5508,6.6219,6.6329,6.6549,6.7223,6.7333,6.737,6.7517,6.7517,6.7554,6.77,6.77,6.77,6.77,6.759,6.759,6.77,6.77,6.77,6.77,6.77,6.77,6.77,6.77,6.77,6.77,6.6953,6.6464,6.6156,6.4598,6.3773,6.348,6.2736,6.24,6.24,6.24,6.24,6.24,6.24,6.24,6.24,6.24,6.24,6.24,6.24,6.24,6.24,6.24,6.24,6.24,6.24,6.24,6.24,6.24,6.24,6.24,6.24,6.24,6.24,6.24,6.24,6.24,6.24,6.24,6.24,6.24,6.24,6.24,6.24,6.24,6.24,6.24,6.24,6.24,6.24,0.0,6.24,6.24,6.24,6.24,6.24,6.24,6.24,6.24,6.24,6.24,6.24,6.24,6.2685,6.3308,6.3308,6.3167,6.2845,6.2292,6.1512,6.0521,6.0933,6.0517,5.9392,5.9392,5.9285,5.9099,5.9099,5.9099,5.9099,5.9099,5.9099,5.9099,5.9099,5.9099,5.9099,5.9099,5.9099,5.9099,6.5962,6.6292,6.6696,6.7076,6.7136,6.726,6.7627,6.77,6.77,6.77,6.77,6.77,6.77,6.77,6.77,6.77,6.77,6.77,6.77,6.77,6.77,6.77,6.77,6.77,6.77,6.77,6.7474,6.6996,6.6582,6.5909,6.4937,6.4078,6.3462,6.2973,6.2562,6.24,6.24,6.24,6.24,6.24,6.24,6.24,6.24,6.24,6.24,6.24,6.24,6.24,6.24,6.24,6.24,6.24,6.24,6.24,6.24,6.24,6.24,6.24,6.24,6.24,6.24,6.24,6.24,6.24,6.24,6.24,6.24,6.24,6.24,6.24,6.24,6.24,6.24,6.24,6.24,0.0,0.0,6.24,6.24,6.24,6.24,6.24,6.24,6.24,6.24,6.24,6.24,6.255,6.2956,6.299,6.3328,6.4072,6.3814,6.322,6.2279,6.171,6.1102,6.0504,6.0154,5.9683,5.9099,5.9099,5.9099,5.9099,5.9099,5.9099,5.9099,5.9099,5.9099,5.9099,5.9099,5.9099,5.9099,5.9099,5.9099,5.9099,6.6769,6.7297,6.77,6.77,6.77,6.77,6.77,6.77,6.77,6.77,6.77,6.77,6.77,6.77,6.77,6.77,6.77,6.77,6.77,6.77,6.77,6.77,6.77,6.77,6.77,6.7501,6.7089,6.6404,6.5987,6.507,6.3701,6.3498,6.303,6.24,6.24,6.24,6.24,6.24,6.24,6.24,6.24,6.24,6.24,6.24,6.24,6.24,6.24,6.24,6.24,6.24,6.24,6.24,6.24,6.24,6.24,6.24,6.24,6.24,6.24,6.24,6.24,6.24,6.24,6.24,6.24,6.24,6.24,6.24,6.24,6.24,6.24,6.24,6.24,6.24,0.0,0.0,0.0,6.24,6.24,6.24,6.24,6.24,6.24,6.24,6.2448,6.2618,6.2651,6.299,6.3714,6.3471,6.3383,6.3489,6.3407,6.2807,6.1718,6.0944,6.0562,6.0562,5.9576,5.9099,5.9099,5.9099,5.9099,5.9099,5.9099,5.9099,5.9099,5.9099,5.9099,5.9099,5.9099,5.9099,5.9099,5.9099,5.9099,5.9099,6.7627,6.7664,6.77,6.77,6.77,6.77,6.77,6.77,6.77,6.77,6.77,6.77,6.77,6.77,6.77,6.77,6.77,6.77,6.77,6.77,6.77,6.77,6.77,6.77,6.77,6.691,6.6464,6.6404,6.4735,6.3845,6.3683,6.2874,6.2459,6.24,6.24,6.24,6.24,6.24,6.24,6.24,6.24,6.24,6.24,6.24,6.24,6.24,6.24,6.24,6.24,6.24,6.24,6.24,6.24,6.24,6.24,6.24,6.24,6.24,6.24,6.24,6.24,6.24,6.24,6.24,6.24,6.24,6.24,6.24,6.24,6.24,6.24,6.24,6.24,6.24,0.0,0.0,6.24,6.24,6.24,6.24,6.24,6.24,6.24,6.24,6.2685,6.3376,6.3409,6.3748,6.4478,6.3394,6.1977,6.0303,6.1416,6.1741,6.1049,5.9834,5.9231,5.9261,5.9153,5.9099,5.9099,5.9099,5.9099,5.9099,5.9099,5.9099,5.9099,5.9099,5.9099,5.9099,5.9099,5.9099,5.9099,5.9099,5.9099,5.9099,6.77,6.77,6.77,6.77,6.77,6.77,6.77,6.77,6.77,6.77,6.77,6.77,6.77,6.77,6.77,6.77,6.77,6.77,6.77,6.77,6.77,6.77,6.77,6.7447,6.691,6.6568,6.5862,6.4735,6.4025,6.3425,6.2893,6.2542,6.24,6.24,6.24,6.24,6.24,6.24,6.24,6.24,6.24,6.24,6.24,6.24,6.24,6.24,6.24,6.24,6.24,6.24,6.24,6.24,6.24,6.24,6.24,6.24,6.24,6.24,6.24,6.24,6.24,6.24,6.24,6.24,6.24,6.24,6.24,6.24,6.24,6.24,6.24,6.24,6.24,6.24,0.0,6.24,6.24,6.24,6.24,6.24,6.2787,6.3091,6.3091,6.3497,6.3869,6.4174,6.4174,6.4512,6.5222,6.4516,6.3006,6.0668,6.1071,6.0848,5.9838,5.9339,5.9099,5.9099,5.9099,5.9099,5.9099,5.9099,5.9099,5.9099,5.9099,5.9099,5.9099,5.9099,5.9099,5.9099,5.9099,5.9099,5.9099,5.9099,5.9099,5.9099,6.77,6.77,6.77,6.77,6.77,6.77,6.77,6.77,6.77,6.77,6.77,6.77,6.77,6.77,6.77,6.77,6.77,6.77,6.77,6.77,6.77,6.77,6.7447,6.7146,6.6823,6.6002,6.5103,6.4131,6.3556,6.3007,6.24,6.24,6.24,6.24,6.24,6.24,6.24,6.24,6.24,6.24,6.24,6.24,6.24,6.24,6.24,6.24,6.24,6.24,6.24,6.24,6.24,6.24,6.24,6.24,6.24,6.24,6.24,6.24,6.24,6.24,6.24,6.24,6.24,6.24,6.24,6.24,6.24,6.24,6.24,6.24,6.24,6.24,6.24,6.24,6.24,6.2502,6.2719,6.2753,6.2821,6.3057,6.3531,6.3849,6.3849,6.4309,6.4681,6.4918,6.4952,6.4912,6.488,6.4097,6.2675,6.0484,6.0406,5.9966,5.9099,5.9099,5.9099,5.9099,5.9099,5.9099,5.9099,5.9099,5.9099,5.9099,5.9099,5.9099,5.9099,5.9099,5.9099,5.9099,5.9099,5.9099,5.9099,5.9099,5.9099,5.9099,6.77,6.77,6.77,6.77,6.77,6.77,6.77,6.77,6.77,6.77,6.77,6.77,6.77,6.77,6.77,6.77,6.77,6.77,6.77,6.77,6.77,6.77,6.6867,6.6823,6.766,6.5068,6.4148,6.4983,6.3258,6.24,6.24,6.24,6.24,6.24,6.24,6.24,6.24,6.24,6.24,6.24,6.24,6.24,6.24,6.24,6.24,6.24,6.24,6.24,6.24,6.24,6.24,6.24,6.24,6.24,6.24,6.24,6.24,6.24,6.24,6.24,6.24,6.24,6.24,6.24,6.24,6.24,6.24,6.24,6.24,6.24,6.24,6.24,6.2415,6.2415,6.2415,6.2651,6.3409,6.3511,6.3781,6.4512,6.4613,6.4613,6.4613,6.4613,6.4918,6.5628,6.5696,6.4902,6.306,6.1721,6.0406,5.9153,5.9099,5.9099,5.9099,5.9099,5.9099,5.9099,5.9099,5.9099,5.9099,5.9099,5.9099,5.9099,5.9099,5.9099,5.9099,5.9099,5.9099,5.9099,5.9099,5.9099,5.9099,5.9099,5.9099,5.9099,6.77,6.77,6.77,6.77,6.77,6.77,6.77,6.77,6.77,6.77,6.77,6.77,6.77,6.77,6.77,6.77,6.77,6.77,6.77,6.77,6.77,6.77,6.7447,6.683,6.5837,6.5016,6.4131,6.3165,6.2659,6.24,6.24,6.24,6.24,6.24,6.24,6.24,6.24,6.24,6.24,6.24,6.24,6.24,6.24,6.24,6.24,6.24,6.24,6.24,6.24,6.24,6.24,6.24,6.24,6.24,6.24,6.24,6.24,6.24,6.24,6.24,6.24,6.24,6.24,6.24,6.24,6.24,6.24,6.24,6.24,6.24,6.24,6.2821,6.3193,6.3193,6.3599,6.4005,6.4241,6.4275,6.4343,6.458,6.5053,6.5358,6.5358,6.5831,6.6237,6.6474,6.5629,6.4084,6.1715,6.1218,6.0406,5.9153,5.9099,5.9099,5.9099,5.9099,5.9099,5.9099,5.9099,5.9099,5.9099,5.9099,5.9099,5.9099,5.9099,5.9099,5.9099,5.9099,5.9099,5.9099,5.9099,5.9099,5.9099,5.9099,5.9099,5.9099,6.77,6.77,6.77,6.77,6.77,6.77,6.77,6.77,6.77,6.77,6.77,6.77,6.77,6.77,6.77,6.77,6.77,6.77,6.77,6.77,6.77,6.77,6.7378,6.6685,6.557,6.4833,6.3971,6.2931,6.2562,6.24,6.24,6.24,6.24,6.24,6.24,6.24,6.24,6.24,6.24,6.24,6.24,6.24,6.24,6.24,6.24,6.24,6.24,6.24,6.24,6.24,6.24,6.24,6.24,6.24,6.24,6.24,6.24,6.24,6.24,6.24,6.24,6.24,6.24,6.24,6.24,6.24,6.24,6.24,6.2618,6.2854,6.2854,6.3429,6.3917,6.3917,6.4309,6.4715,6.4986,6.5019,6.5155,6.5459,6.5865,6.6136,6.6136,6.6542,6.6588,6.6105,6.4879,6.3236,6.1116,6.0536,5.9891,5.9126,5.9099,5.9099,5.9099,5.9099,5.9099,5.9099,5.9099,5.9099,5.9099,5.9099,5.9099,5.9099,5.9099,5.9099,5.9099,5.9099,5.9099,5.9099,5.9099,5.9099,5.9099,5.9099,5.9099,5.9099,6.77,6.77,6.77,6.77,6.77,6.77,6.77,6.77,6.77,6.77,6.77,6.77,6.77,6.77,6.77,6.77,6.77,6.77,6.77,6.7647,6.7569,6.7569,6.6729,6.6232,6.6156,6.4548,6.3665,6.3574,6.2779,6.24,6.24,6.24,6.24,6.24,6.24,6.24,6.24,6.24,6.24,6.24,6.24,6.24,6.24,6.24,6.24,6.24,6.24,6.24,6.24,6.24,6.24,6.24,6.24,6.24,6.24,6.24,6.24,6.24,6.24,6.24,6.2434,6.2502,6.2502,6.2502,6.2434,6.2468,6.2502,6.2502,6.3091,6.3579,6.3579,6.4208,6.4681,6.4681,6.4749,6.5019,6.5696,6.5818,6.6034,6.6724,6.6791,6.6791,6.6791,6.6791,6.6235,6.4823,6.3671,6.2365,6.0918,5.9705,5.9099,5.9099,5.9099,5.9099,5.9099,5.9099,5.9099,5.9099,5.9099,5.9099,5.9099,5.9099,5.9099,5.9099,5.9099,5.9099,5.9099,5.9099,5.9099,5.9099,5.9099,5.9099,5.9099,5.9099,5.9099,5.9099,6.77,6.77,6.77,6.77,6.77,6.77,6.77,6.77,6.77,6.77,6.77,6.77,6.77,6.77,6.77,6.77,6.77,6.77,6.77,6.7075,6.6671,6.6671,6.5811,6.4985,6.4306,6.3917,6.3369,6.2697,6.2498,6.24,6.24,6.24,6.24,6.24,6.24,6.24,6.24,6.24,6.24,6.24,6.24,6.24,6.24,6.24,6.24,6.24,6.24,6.24,6.24,6.24,6.24,6.24,6.24,6.24,6.24,6.24,6.24,6.24,6.24,6.24,6.2516,6.3125,6.324,6.3125,6.2516,6.2854,6.324,6.324,6.3869,6.4377,6.4377,6.4952,6.5459,6.5459,6.5967,6.6385,6.6542,6.6576,6.6622,6.6757,6.6791,6.6791,6.6791,6.6791,6.5855,6.36,6.3172,6.1977,5.9629,5.9261,5.9099,5.9099,5.9099,5.9099,5.9099,5.9099,5.9099,5.9099,5.9099,5.9099,5.9099,5.9099,5.9099,5.9099,5.9099,5.9099,5.9099,5.9099,5.9099,5.9099,5.9099,5.9099,5.9099,5.9099,5.9099,5.9099,6.77,6.77,6.77,6.77,6.77,6.77,6.77,6.77,6.77,6.77,6.77,6.77,6.77,6.77,6.77,6.77,6.77,6.7515,6.7117,6.6641,6.6201,6.5764,6.4868,6.4183,6.3719,6.3277,6.2855,6.24,6.24,6.24,6.24,6.24,6.24,6.24,6.24,6.24,6.24,6.24,6.24,6.24,6.24,6.24,6.24,6.24,6.24,6.24,6.24,6.24,6.24,6.24,6.24,6.24,6.24,6.24,6.24,6.24,6.24,6.2502,6.2821,6.2922,6.3091,6.3835,6.4018,6.3937,6.3531,6.3768,6.4018,6.4018,6.4613,6.5121,6.5121,6.573,6.6203,6.6203,6.6542,6.6791,6.6791,6.6791,6.6791,6.6791,6.6791,6.6791,6.6791,6.6791,6.5746,6.3196,6.3004,6.1853,5.9261,5.9099,5.9099,5.9099,5.9099,5.9099,5.9099,5.9099,5.9099,5.9099,5.9099,5.9099,5.9099,5.9099,5.9099,5.9099,5.9099,5.9099,5.9099,5.9099,5.9099,5.9099,5.9099,5.9099,5.9099,5.9099,5.9099,5.9099,6.77,6.77,6.77,6.77,6.77,6.77,6.77,6.77,6.77,6.77,6.77,6.77,6.77,6.77,6.77,6.77,6.7556,6.7174,6.6449,6.611,6.5605,6.4799,6.3936,6.3498,6.3498,6.2759,6.24,6.24,6.24,6.24,6.24,6.24,6.24,6.24,6.24,6.24,6.24,6.24,6.24,6.24,6.24,6.24,6.24,6.24,6.24,6.24,6.24,6.24,6.24,6.24,6.24,6.24,6.24,6.2482,6.2584,6.2584,6.2685,6.2888,6.3511,6.368,6.3849,6.4613,6.4783,6.4816,6.4952,6.4884,6.4783,6.4783,6.5358,6.5865,6.5865,6.6406,6.6791,6.6791,6.6791,6.6791,6.6791,6.6791,6.6791,6.6791,6.6791,6.6791,6.6791,6.6791,6.5746,6.3196,6.3004,6.1853,5.9261,5.9099,5.9099,5.9099,5.9099,5.9099,5.9099,5.9099,5.9099,5.9099,5.9099,5.9099,5.9099,5.9099,5.9099,5.9099,5.9099,5.9099,5.9099,5.9099,5.9099,5.9099,5.9099,5.9099,5.9099,5.9099,5.9099,5.9099,6.77,6.77,6.77,6.77,6.77,6.77,6.77,6.77,6.77,6.77,6.77,6.77,6.77,6.77,6.77,6.77,6.6996,6.6523,6.6419,6.4918,6.4007,6.3864,6.303,6.2562,6.2562,6.2459,6.24,6.24,6.24,6.24,6.24,6.24,6.24,6.24,6.24,6.24,6.24,6.24,6.24,6.24,6.24,6.24,6.24,6.24,6.24,6.24,6.24,6.24,6.24,6.24,6.24,6.24,6.24,6.2854,6.3342,6.3342,6.3802,6.4309,6.441,6.4444,6.4647,6.5358,6.5547,6.573,6.6373,6.6,6.5547,6.5547,6.6136,6.6656,6.6656,6.6724,6.6791,6.6791,6.6791,6.6791,6.6791,6.6791,6.6791,6.6791,6.6791,6.6791,6.6791,6.6791,6.5746,6.3196,6.3004,6.1853,5.9261,5.9099,5.9099,5.9099,5.9099,5.9099,5.9099,5.9099,5.9099,5.9099,5.9099,5.9099,5.9099,5.9099,5.9099,5.9099,5.9099,5.9099,5.9099,5.9099,5.9099,5.9099,5.9099,5.9099,5.9099,5.9099,5.9099,5.9099,6.77,6.77,6.77,6.77,6.77,6.77,6.77,6.77,6.77,6.77,6.77,6.77,6.77,6.77,6.7501,6.7032,6.6612,6.5971,6.497,6.4148,6.3498,6.3007,6.2601,6.24,6.24,6.24,6.24,6.24,6.24,6.24,6.24,6.24,6.24,6.24,6.24,6.24,6.24,6.24,6.24,6.24,6.24,6.24,6.24,6.24,6.24,6.24,6.24,6.24,6.2448,6.2888,6.3024,6.3091,6.3497,6.3869,6.4086,6.4086,6.4343,6.4681,6.5087,6.5222,6.5392,6.6136,6.6305,6.6406,6.6745,6.6542,6.6305,6.6305,6.6555,6.6791,6.6791,6.6791,6.6791,6.6791,6.6791,6.6791,6.6791,6.6791,6.6791,6.6791,6.6791,6.6791,6.6791,6.617,6.4992,6.3148,6.2291,6.1071,5.9207,5.9099,5.9099,5.9099,5.9099,5.9099,5.9099,5.9099,5.9099,5.9099,5.9099,5.9099,5.9099,5.9099,5.9099,5.9099,5.9099,5.9099,5.9099,5.9099,5.9099,5.9099,5.9099,5.9099,5.9099,5.9099,5.9099,5.9099]}]]